GFSNGP_sfc_dewp_000.txt.gz
Dewpoint
30 30 28 28 29 29 30 30 27 24 25 25 25 27 28 35 36 35 36 36 35 35 35 36 41 43 43 43 41 38 39 40 41 42 40 40 39 39 39 40 40 40 40 40
26 24 21 22 23 22 25 27 27 27 26 28 28 36 35 35 35 37 36 34 34 34 35 40 43 42 40 39 37 37 36 37 38 38 38 38 37 37 38 38 38 38 38 39
21 23 25 24 25 25 25 25 25 23 25 28 30 35 36 36 37 37 36 33 34 39 42 41 39 39 36 34 33 33 34 34 33 31 31 33 34 33 34 33 32 35 37 37
25 26 22 26 29 28 29 28 27 28 29 31 36 37 37 35 37 37 35 37 40 40 39 39 38 35 31 29 28 28 28 28 27 28 27 27 28 27 28 28 29 29 32 35
27 27 28 29 30 29 29 29 30 30 30 33 36 34 34 36 36 38 39 39 39 38 36 34 31 28 27 26 26 25 24 21 23 24 23 23 24 23 22 24 26 25 27 29
29 25 27 29 31 32 31 27 36 34 34 37 34 31 33 35 39 39 39 39 36 33 32 29 26 25 24 22 18 17 15 16 17 19 19 19 19 18 18 21 20 22 21 25
28 28 30 32 32 33 28 30 37 37 37 38 35 34 35 36 38 37 36 34 32 30 27 23 21 19 16 12 9 10 12 12 13 14 14 14 15 16 16 15 19 19 19 20
31 28 25 34 33 31 33 36 37 39 35 33 32 36 37 37 36 35 35 31 26 25 22 17 12 9 8 8 10 11 12 12 12 12 11 10 12 13 13 13 14 18 17 19
33 33 36 35 34 35 34 36 36 36 34 34 34 35 36 35 35 34 30 25 20 18 14 9 9 9 8 8 10 11 11 11 12 12 11 11 12 12 12 13 12 14 15 19
32 31 33 33 34 34 35 35 36 37 37 36 36 36 36 37 36 33 26 19 16 16 11 9 8 8 9 9 11 12 11 12 13 13 14 13 15 14 13 12 14 15 17 17
34 35 35 35 35 35 35 35 35 34 34 34 35 36 36 36 33 25 19 16 14 12 11 9 9 10 10 11 13 13 13 13 13 15 14 14 15 14 14 15 21 22 22 23
32 33 34 34 36 35 35 35 34 33 33 36 37 37 36 32 23 17 14 14 13 12 11 11 11 11 12 14 15 14 13 14 16 16 15 16 16 15 22 26 29 30 31 30
33 34 35 36 36 35 34 34 33 35 36 37 35 30 25 17 13 14 14 12 12 12 12 13 13 14 15 15 16 16 15 15 15 17 15 15 16 18 19 22 26 26 28 30
35 35 35 36 34 33 34 36 37 36 36 35 29 20 15 12 12 12 12 12 12 13 14 14 14 14 15 15 16 16 16 21 17 17 18 19 20 21 21 20 20 21 24 26
35 37 35 34 34 34 35 34 32 31 28 23 18 13 12 12 13 13 13 12 13 14 14 15 14 14 16 16 16 16 16 16 17 19 21 22 21 21 21 21 21 21 23 24
34 34 33 33 35 34 32 32 31 29 24 13 11 11 12 13 13 13 13 13 13 13 13 14 14 15 16 16 17 17 17 21 22 20 20 20 21 21 21 21 22 23 23 23
32 30 33 33 33 32 30 30 27 13 13 13 12 12 12 13 13 13 13 13 13 14 14 15 15 16 16 18 17 18 19 19 22 20 20 21 20 20 21 22 22 21 21 23
33 32 33 32 32 31 30 17 14 14 13 12 12 12 12 12 11 12 13 13 13 14 14 14 15 17 18 18 18 18 19 19 20 20 20 20 20 20 21 21 22 23 23 24
30 31 30 31 32 29 18 14 13 12 11 13 13 13 12 12 12 13 13 13 12 12 13 14 20 21 17 18 20 19 19 19 18 18 19 21 20 22 23 22 21 22 22 22
24 21 23 25 20 13 12 11 10 11 12 13 13 12 12 12 13 13 13 13 14 14 15 16 17 17 17 18 21 19 18 19 19 19 19 19 20 19 19 20 20 20 21 23
19 13 12 12 12 11 12 11 12 12 13 13 12 12 13 13 13 14 13 13 13 16 16 20 16 17 17 18 20 20 20 20 19 20 19 19 19 20 20 19 20 19 21 21
17 13 12 11 12 13 14 15 14 13 13 13 13 13 12 13 14 15 15 14 14 20 16 15 16 19 19 23 20 20 20 19 18 18 19 20 19 18 18 18 19 20 21 22
17 14 13 13 14 14 15 15 14 13 13 12 12 12 13 13 14 13 13 14 15 17 16 16 19 22 23 19 19 19 19 19 19 18 17 17 18 18 18 18 19 19 20 20
20 16 17 17 16 15 14 15 15 14 15 15 15 15 15 14 13 14 15 18 19 17 16 17 19 22 23 18 17 16 16 16 16 17 17 20 19 19 18 19 19 20 21 21
20 18 17 16 16 17 17 17 15 14 14 14 12 12 13 15 14 13 13 13 18 17 15 19 21 20 15 14 14 14 15 16 18 18 19 22 22 21 20 20 20 19 19 19
20 19 19 20 18 14 13 13 12 12 12 12 13 13 12 12 13 14 14 16 14 16 13 13 13 13 14 14 14 15 15 16 17 18 19 20 21 21 20 19 18 18 18 19
19 19 16 15 14 13 13 12 13 13 12 11 11 12 13 13 13 13 15 11 11 11 11 12 13 14 14 15 15 15 15 16 18 18 19 22 22 22 21 21 19 19 18 19

GFSNGP_sfc_dewp_003.txt.gz
Dewpoint
28 29 27 27 28 29 31 30 26 22 24 25 26 28 30 35 36 36 35 34 34 36 41 42 40 38 37 35 35 35 35 35 35 34 31 31 32 34 34 35 35 36 34 33
23 24 23 21 22 23 25 27 29 29 27 29 30 30 36 36 36 36 33 33 38 43 41 38 37 35 33 31 30 30 29 28 29 28 28 29 29 29 30 30 31 31 31 36
20 25 25 24 25 25 25 24 23 23 24 27 30 33 36 37 36 35 32 39 41 39 38 37 35 31 28 26 26 25 24 25 22 23 24 24 24 25 26 25 25 24 30 28
24 26 22 26 29 28 27 29 28 28 28 31 34 37 36 36 36 34 39 39 38 36 34 33 28 26 25 24 23 20 23 16 16 18 18 19 19 20 20 21 20 20 23 22
26 26 27 29 30 30 29 29 31 31 33 37 35 34 34 37 38 39 39 38 36 33 31 27 24 23 20 19 17 14 14 11 12 13 13 14 15 15 16 16 18 16 16 21
24 22 24 29 31 32 31 26 35 35 35 37 36 32 33 38 39 39 37 35 32 30 28 23 20 17 13 12 8 8 11 12 12 12 13 12 12 12 13 14 14 15 12 14
28 26 28 32 32 33 26 26 36 38 37 39 36 36 36 38 37 36 34 31 29 27 23 19 15 10 7 8 8 9 13 13 13 13 12 12 12 11 12 13 13 13 12 13
29 26 24 34 33 31 32 35 36 36 38 35 37 38 38 37 36 35 33 28 24 22 19 14 9 8 7 7 9 11 13 13 13 13 13 13 12 13 13 14 13 12 12 16
32 30 34 34 34 34 35 34 35 34 35 34 36 37 36 36 35 33 29 23 18 16 14 10 10 9 8 9 11 12 13 13 13 14 14 13 14 14 14 14 14 13 16 17
32 33 34 35 34 34 34 34 36 36 36 36 35 36 36 37 35 34 26 19 16 15 11 10 10 10 10 11 12 14 13 14 14 14 15 15 16 16 15 15 16 17 19 22
33 34 34 34 34 35 35 35 35 34 34 34 35 35 35 36 35 28 20 16 14 12 12 11 11 11 12 12 14 14 14 14 14 15 15 15 16 16 16 17 21 21 23 23
32 35 34 34 35 36 35 35 35 33 33 35 35 36 36 34 24 18 14 15 14 13 13 12 12 12 13 15 16 16 14 15 16 16 16 17 16 15 22 25 27 27 27 26
35 35 34 35 36 35 35 34 34 34 34 35 37 34 29 21 14 14 13 13 13 13 13 14 14 15 15 16 17 16 16 15 16 17 15 15 16 18 19 22 26 26 27 26
36 36 35 35 34 33 34 36 37 36 36 36 32 25 17 13 12 12 12 13 13 13 14 15 15 15 16 16 16 17 17 22 18 17 18 18 19 21 21 20 20 21 24 25
36 36 35 34 33 34 35 35 34 34 33 29 25 18 13 12 12 13 14 13 13 14 15 15 15 15 16 17 16 16 16 17 17 19 20 22 21 21 21 21 20 20 21 23
32 31 29 32 34 35 33 33 32 31 29 24 16 12 12 12 13 13 14 14 13 13 14 14 14 15 16 16 17 18 18 21 21 19 20 20 20 21 20 20 20 21 22 22
29 27 32 33 32 35 33 33 33 31 25 13 12 12 12 13 13 13 13 14 14 14 14 15 14 15 16 17 18 18 18 18 22 19 20 21 20 20 20 21 23 22 21 23
31 30 31 33 32 34 33 32 26 16 14 13 12 12 12 12 12 12 13 14 14 14 14 15 15 16 18 18 19 18 19 19 19 20 20 20 20 20 20 20 22 21 20 21
29 30 29 31 32 32 28 17 16 13 12 12 12 12 13 13 13 13 13 13 13 13 12 13 19 20 18 19 21 19 19 18 18 19 20 21 20 21 22 22 20 20 20 20
22 20 23 29 29 25 18 15 13 10 11 13 13 13 12 12 13 13 14 13 14 14 15 16 17 17 17 18 21 19 19 19 21 21 20 20 20 20 20 21 20 20 18 18
22 18 13 13 11 11 12 10 11 11 13 13 13 12 12 13 14 14 13 12 13 15 16 19 16 16 16 18 20 20 20 20 20 20 20 20 20 21 21 20 18 17 18 18
23 18 13 12 11 11 13 13 13 14 14 13 13 13 12 13 13 14 15 14 14 20 17 16 16 18 18 22 19 20 20 20 20 20 20 19 19 18 18 18 17 18 19 19
25 19 15 13 11 12 13 15 15 14 14 13 13 12 13 13 14 13 12 13 15 17 16 15 18 21 22 19 19 18 17 16 16 16 17 17 17 18 18 18 19 19 19 19
26 21 15 14 14 15 15 15 16 15 14 15 16 16 15 14 14 15 15 18 18 17 16 16 18 22 22 16 15 14 14 15 15 17 17 20 18 18 19 19 20 20 20 20
23 18 16 15 16 16 16 17 15 13 13 13 12 13 13 15 14 13 13 14 18 17 14 18 19 19 14 13 13 14 14 16 17 18 19 21 20 20 21 21 21 21 21 21
21 20 18 18 18 17 15 13 12 13 13 13 13 13 13 13 13 14 14 15 13 14 12 11 12 13 13 13 14 14 15 16 16 16 18 19 20 20 20 19 20 20 19 17
19 20 16 16 14 14 13 13 13 13 12 12 12 13 13 13 12 13 13 10 9 9 10 11 13 14 14 14 14 14 15 15 17 17 18 20 20 21 20 20 21 20 19 17

GFSNGP_sfc_dewp_006.txt.gz
Dewpoint
28 28 28 29 30 32 30 28 24 24 25 26 27 27 28 30 34 38 36 34 36 41 41 39 36 34 31 29 28 30 28 30 28 28 25 25 25 24 24 24 23 25 22 22
21 23 24 22 23 24 26 30 30 29 26 28 29 30 37 36 36 36 34 35 42 41 37 36 34 30 27 26 26 26 25 25 22 19 18 19 19 19 19 19 19 20 19 20
17 26 25 23 25 25 22 23 22 19 22 28 29 34 35 37 36 34 33 41 40 37 36 34 29 26 25 24 23 19 22 16 14 14 14 15 15 16 16 15 17 16 16 18
23 25 21 25 28 28 26 27 27 27 29 32 35 35 35 36 37 33 40 39 37 35 32 30 26 24 22 20 16 13 15 11 12 13 13 13 13 13 13 13 13 12 14 14
25 25 26 28 30 29 28 30 33 33 34 36 35 35 35 38 37 38 39 37 35 32 30 26 21 19 14 11 9 9 10 11 12 13 12 13 12 12 12 12 12 13 13 13
25 23 23 27 31 32 30 24 35 36 35 37 37 33 34 38 39 39 36 34 32 30 26 21 16 10 7 8 8 8 10 12 13 14 13 12 13 13 13 13 13 14 13 14
28 25 27 30 32 32 25 23 36 37 36 36 36 36 37 38 36 35 33 32 28 25 21 16 9 7 8 9 8 9 12 13 14 14 14 13 13 14 14 14 14 15 14 14
28 25 22 33 34 31 32 36 34 34 34 35 37 38 37 37 35 34 32 27 24 21 16 10 9 9 8 8 9 11 13 14 14 14 14 13 14 14 15 15 15 15 15 17
29 28 33 34 34 34 35 33 34 35 34 34 37 37 37 37 36 35 29 22 18 16 14 11 11 10 9 10 12 12 13 14 14 14 14 14 15 15 15 16 16 16 17 20
31 33 34 33 34 34 35 34 35 35 35 35 34 36 36 36 35 32 26 18 17 14 11 10 11 10 11 12 13 14 14 14 15 14 16 16 16 16 15 16 17 18 21 22
33 34 34 34 34 35 35 35 36 36 35 34 34 34 34 35 35 28 21 17 15 13 12 11 11 11 12 13 14 14 15 15 14 16 16 16 16 16 16 17 21 22 22 23
32 34 34 34 35 36 35 35 35 34 33 34 34 34 35 34 27 21 16 15 13 13 12 12 12 13 14 15 16 16 15 15 16 17 16 17 16 15 22 24 26 26 26 24
34 35 34 35 35 34 34 35 34 33 32 33 36 35 33 20 15 16 12 12 12 12 13 14 14 14 15 16 17 17 16 15 16 18 16 16 16 17 19 22 25 25 25 25
35 35 34 34 34 34 34 35 36 36 36 36 35 29 21 16 12 11 11 12 13 13 14 14 15 15 15 16 17 17 16 21 18 17 18 18 19 20 20 19 19 19 22 24
35 35 34 33 32 33 35 34 33 32 32 33 29 22 14 11 11 12 13 13 14 14 14 15 14 14 16 16 16 16 16 17 18 19 19 21 20 20 19 20 19 18 19 22
33 30 28 32 33 32 34 33 33 32 32 28 22 14 12 12 12 13 13 14 13 13 13 14 14 14 16 16 16 17 17 21 21 18 19 19 19 20 19 19 19 19 21 20
28 25 23 24 32 32 32 33 32 33 31 22 14 12 12 12 13 13 13 13 13 14 14 14 14 15 16 16 17 18 18 19 22 18 19 19 19 19 19 21 22 20 19 21
29 28 29 31 32 32 32 31 32 27 19 14 12 12 12 12 11 12 12 13 13 14 14 14 15 16 17 18 18 19 19 19 18 18 19 19 19 20 20 19 20 21 20 20
31 29 29 31 31 31 31 30 25 16 14 12 12 12 12 12 13 13 13 13 12 12 12 13 18 19 17 19 20 18 18 18 18 19 19 22 21 22 23 21 20 20 21 19
25 25 26 30 30 29 26 19 16 12 11 12 12 12 12 12 12 13 13 13 14 13 15 16 17 17 17 17 20 18 19 19 20 20 20 19 19 20 21 21 20 20 18 17
25 22 17 21 23 19 19 14 12 10 11 13 13 12 12 13 13 13 12 12 12 15 16 19 17 17 16 18 19 19 19 19 19 19 19 19 19 19 19 19 17 17 17 17
25 24 20 15 12 10 11 11 11 12 13 13 14 13 13 13 13 14 14 14 14 19 17 16 16 18 18 22 19 19 18 18 16 15 15 16 16 17 17 17 17 18 18 19
26 26 23 17 13 12 11 13 14 14 14 14 14 13 13 13 14 13 12 13 16 17 16 15 18 21 22 18 17 16 15 14 14 14 15 16 17 17 18 18 19 21 20 20
25 26 25 19 14 12 11 13 15 15 15 14 15 15 15 14 14 15 15 17 18 17 15 16 17 21 21 16 14 13 14 14 15 16 16 19 18 19 19 20 20 20 20 20
23 20 16 14 15 15 15 16 14 13 14 13 12 12 13 14 14 13 13 14 17 16 13 17 18 19 13 13 13 14 14 15 16 18 19 18 17 18 19 20 20 20 21 21
22 23 21 17 17 17 17 15 14 13 12 13 13 13 13 13 14 14 13 14 12 14 10 10 11 12 13 13 13 14 14 15 15 15 17 17 17 18 19 20 20 20 20 19
16 20 16 18 16 15 14 13 12 13 12 12 12 13 14 13 12 12 13 9 9 9 10 11 12 13 13 14 14 14 14 15 17 17 18 19 18 18 18 19 19 20 20 19

GFSNGP_sfc_dewp_009.txt.gz
Dewpoint
28 28 31 31 32 30 27 26 24 24 26 25 27 29 28 31 33 37 38 35 39 41 40 37 34 30 28 26 26 25 25 22 20 20 19 19 19 18 17 17 16 16 16 15
21 25 23 22 25 32 31 30 28 29 27 29 29 30 33 36 35 37 35 35 41 40 37 35 32 28 25 24 23 19 20 15 16 16 16 16 15 15 15 15 14 14 14 14
18 25 25 20 24 23 22 24 24 19 21 29 33 35 36 37 36 36 34 39 41 37 36 33 27 25 23 20 14 11 15 13 14 15 15 15 15 14 14 14 13 13 13 13
21 25 19 22 29 28 25 28 26 31 32 34 35 36 36 37 37 35 36 40 37 35 32 27 24 22 17 13 9 10 12 12 14 15 14 14 14 13 13 13 13 13 13 14
26 23 24 28 29 27 28 31 33 33 34 35 35 34 34 38 37 36 38 37 35 32 29 23 19 15 9 8 8 10 11 12 13 14 14 14 13 13 13 13 14 14 14 15
27 24 23 27 31 32 28 30 35 36 36 37 36 32 34 37 38 37 36 34 32 29 24 20 13 8 7 8 8 8 11 12 13 14 14 14 13 13 14 14 15 15 15 15
28 26 27 29 31 32 25 23 35 34 36 34 33 36 37 38 37 36 34 32 28 26 21 14 8 8 9 9 8 10 12 14 15 15 14 14 14 14 15 15 15 16 15 16
28 26 24 33 33 30 31 36 34 33 33 34 36 37 38 38 36 34 31 28 25 21 15 9 10 10 9 8 10 12 14 14 15 15 15 14 14 15 15 16 16 15 16 18
28 28 32 34 33 34 34 33 34 34 35 34 36 37 38 37 36 35 30 22 19 17 14 11 12 11 9 10 12 13 14 14 15 15 15 15 15 15 16 16 15 16 17 20
31 32 34 33 34 35 36 36 36 35 35 35 34 35 36 36 35 31 25 20 17 14 11 10 11 11 11 12 13 14 14 14 15 15 16 16 17 17 16 15 16 18 20 21
33 33 34 34 35 35 35 35 35 35 34 34 33 33 33 34 34 30 23 19 15 13 11 11 11 11 12 13 14 14 14 15 15 16 16 16 17 16 15 16 20 21 22 22
31 34 33 34 35 35 35 34 35 34 33 33 33 33 34 34 33 24 20 16 14 12 11 11 12 13 13 15 15 15 15 15 16 17 17 17 16 15 21 23 25 25 25 23
34 35 34 34 35 34 34 34 35 34 33 31 34 34 34 25 19 19 13 12 11 11 12 13 13 14 15 15 16 16 16 15 16 18 17 16 16 17 18 21 24 24 24 24
34 35 33 33 33 33 34 36 36 35 35 35 35 32 27 19 17 12 10 12 13 13 13 14 14 14 14 16 16 16 16 21 18 17 18 18 18 19 18 18 18 18 21 23
35 35 34 33 32 32 33 34 34 33 33 33 33 29 18 14 12 10 12 13 13 13 13 13 13 14 15 16 15 15 16 16 17 19 19 20 18 18 18 18 18 17 18 21
31 29 31 32 32 31 30 30 32 32 32 32 28 21 15 12 11 12 13 13 12 11 13 13 14 14 16 16 16 16 17 21 21 18 18 18 18 18 18 18 18 19 20 19
29 28 26 21 26 29 30 31 33 33 31 29 25 17 12 12 12 12 11 12 12 13 14 14 14 14 16 16 16 18 18 18 21 18 18 18 18 18 19 21 22 20 19 20
30 27 27 27 29 29 30 31 31 31 29 27 14 12 11 11 10 11 12 13 13 13 13 13 14 16 18 18 18 18 18 18 18 18 18 19 19 20 20 20 20 20 19 20
30 30 28 28 29 30 30 30 30 28 18 14 12 11 11 11 12 12 12 12 12 12 11 13 18 19 17 18 19 18 18 17 18 19 20 21 20 21 22 20 20 20 20 19
28 27 28 28 29 29 29 28 25 16 14 12 11 11 11 12 12 12 12 12 13 13 14 16 17 17 17 17 20 18 18 19 19 19 18 18 18 18 18 18 17 17 17 17
25 23 21 20 24 27 27 23 17 15 12 12 12 12 12 12 13 13 12 11 12 14 16 19 17 17 17 18 19 19 19 19 18 17 16 15 15 15 16 16 16 16 17 17
23 24 23 20 17 15 13 14 14 12 11 12 13 13 13 13 13 13 13 13 14 19 17 16 16 18 18 21 18 18 18 16 14 13 13 14 15 16 16 17 17 18 18 20
22 24 25 24 19 16 13 12 11 11 12 13 14 13 13 13 13 13 12 13 16 17 15 15 18 20 21 18 17 16 14 13 13 13 14 15 16 16 17 18 19 20 19 19
22 24 24 25 21 15 12 12 13 14 15 15 15 15 15 13 13 14 15 17 18 16 15 15 17 20 20 15 13 13 13 13 14 15 15 19 18 19 18 17 17 18 18 18
20 18 16 14 16 17 15 15 13 13 15 14 12 12 13 14 13 13 14 14 17 15 13 16 17 18 13 12 13 13 14 15 15 17 18 18 16 17 17 17 17 18 19 20
20 22 23 21 19 17 16 16 15 14 12 12 13 12 13 14 14 14 13 14 12 13 10 10 10 12 13 13 13 13 14 15 15 15 17 17 17 17 18 18 17 17 18 18
15 20 15 18 17 16 15 14 12 12 12 12 13 13 13 13 12 11 12 9 9 9 9 10 11 12 12 13 13 14 14 15 16 16 18 18 17 17 17 17 18 18 19 19

GFSNGP_sfc_dewp_012.txt.gz
Dewpoint
27 31 31 30 31 28 26 26 25 27 25 27 31 33 34 34 34 36 38 36 41 41 38 35 31 28 25 23 20 20 15 15 16 17 16 16 17 17 16 16 15 15 14 14
22 25 24 26 30 29 28 28 26 27 27 28 30 34 36 36 35 35 38 36 41 40 37 33 29 26 23 20 14 14 14 13 15 16 16 17 16 15 15 15 14 15 14 14
22 25 24 18 22 31 30 29 30 28 27 29 35 35 36 36 36 36 36 36 40 38 35 31 26 24 20 13 9 10 12 13 14 15 16 16 15 15 14 14 15 14 14 14
20 24 14 19 30 25 25 26 25 30 31 33 35 35 36 36 37 36 36 39 39 36 31 26 24 19 14 10 9 11 11 12 14 15 15 15 15 14 14 14 14 14 14 15
23 20 21 28 28 28 28 31 33 33 35 35 35 34 34 37 37 36 37 38 36 33 29 23 18 12 8 8 8 9 11 12 13 14 15 15 14 14 14 14 14 14 15 15
27 24 20 25 31 31 31 30 35 35 36 36 35 31 33 36 37 37 37 35 32 28 24 18 10 7 7 8 8 9 11 13 13 15 15 14 14 14 15 15 15 16 15 16
28 26 27 29 32 32 26 26 37 36 35 35 34 34 36 38 36 35 33 31 28 24 19 12 8 8 8 9 8 11 13 14 15 15 15 14 14 15 15 15 16 16 15 16
28 26 24 32 32 29 31 34 34 33 33 34 34 36 37 37 36 33 30 28 24 19 13 9 10 9 9 8 10 12 14 14 15 15 14 14 15 15 16 16 16 15 15 17
28 28 32 34 33 35 35 34 33 34 33 34 35 35 36 36 35 33 29 24 20 18 13 10 11 11 9 10 12 13 13 14 14 14 15 15 15 16 16 16 15 15 16 19
31 32 33 33 34 34 34 34 35 35 35 35 34 34 34 35 35 33 26 21 18 15 10 10 11 10 11 12 13 14 13 14 14 15 16 16 17 17 17 16 16 16 19 20
32 33 34 34 35 34 35 35 35 35 34 34 33 32 32 34 34 30 25 20 17 13 11 10 11 11 12 13 14 14 14 14 15 15 16 17 17 17 16 16 20 20 20 21
30 34 33 33 35 35 35 34 34 34 32 32 32 32 33 33 33 26 22 17 14 12 10 10 12 12 13 14 15 15 14 14 15 16 17 17 16 16 21 23 24 24 24 23
33 34 34 35 35 33 34 34 33 33 32 31 33 34 34 27 23 23 15 13 11 11 12 12 13 13 14 15 15 15 15 14 16 18 16 16 17 18 17 19 22 23 24 24
35 35 33 32 33 33 34 35 36 35 34 34 34 33 28 20 19 14 12 11 12 12 13 13 13 13 14 15 15 15 15 20 17 16 17 18 18 18 17 17 17 18 21 22
34 33 33 33 32 32 32 32 30 31 33 33 34 31 23 17 15 11 11 12 12 13 12 12 13 13 15 15 15 15 15 16 17 18 19 20 18 17 17 17 18 17 18 21
31 30 29 30 33 29 29 28 29 30 32 33 32 28 20 15 11 11 12 12 11 10 11 13 13 13 15 15 15 16 17 20 21 18 18 17 17 17 17 18 18 19 20 18
29 28 26 20 23 27 28 29 31 31 33 30 28 26 15 12 11 11 11 11 12 12 13 13 13 14 15 16 17 17 18 18 21 17 17 17 18 18 19 21 20 19 19 19
30 28 26 24 26 27 28 30 30 30 30 29 27 19 12 11 10 9 10 12 12 12 12 12 13 15 18 18 18 18 18 18 17 17 18 19 19 19 18 19 19 18 19 18
28 28 27 28 28 28 29 29 29 29 28 24 16 13 11 10 10 11 12 11 11 11 11 12 18 19 17 18 19 18 18 17 17 18 19 20 18 18 18 17 17 17 17 16
28 27 26 27 27 28 28 28 26 26 21 15 13 11 10 11 12 12 12 11 12 12 13 16 17 17 17 17 21 19 18 18 18 18 18 16 15 15 15 16 16 16 16 16
24 23 22 22 22 25 28 26 24 21 17 13 12 10 10 11 12 13 12 11 12 14 16 19 17 17 17 18 19 19 19 18 18 16 15 14 14 14 15 15 15 16 16 16
23 23 23 22 20 19 19 19 20 19 15 12 12 12 12 13 13 13 13 13 14 19 17 16 16 18 18 21 18 18 18 16 14 13 13 13 14 15 16 16 16 17 18 18
21 22 23 24 23 21 17 14 12 12 11 11 11 13 13 13 13 13 12 13 16 17 16 15 18 20 21 17 16 16 14 13 13 13 14 15 15 16 16 17 17 17 16 17
21 22 22 24 22 19 19 18 13 12 12 14 15 14 14 13 13 14 14 17 18 17 15 15 16 19 19 14 13 12 12 13 14 14 14 18 17 18 17 16 16 17 17 17
18 16 15 15 18 21 17 14 13 13 15 14 13 13 13 14 13 13 14 14 16 15 13 15 16 17 12 12 12 13 13 14 14 16 17 17 16 16 17 17 17 17 19 18
19 21 21 21 21 19 17 16 15 14 13 12 12 12 13 13 14 14 12 13 12 12 10 9 10 11 12 12 12 12 13 14 14 15 16 16 16 17 17 16 16 16 16 17
15 20 15 18 16 16 15 14 13 12 12 12 12 13 13 12 11 11 12 9 9 9 9 10 10 12 12 12 13 12 13 14 16 16 17 17 16 16 16 16 16 16 16 16

GFSNGP_sfc_dewp_015.txt.gz
Dewpoint
27 30 30 30 29 26 25 26 24 25 25 26 29 31 33 34 36 36 37 38 41 40 37 32 28 26 23 17 15 13 12 13 14 15 15 15 16 15 15 15 14 14 14 13
24 28 30 30 31 28 26 27 26 26 27 28 30 33 34 35 34 35 37 38 41 40 36 31 28 25 22 15 10 12 12 12 15 15 15 16 16 15 15 15 14 15 14 13
25 25 23 23 25 30 29 29 27 26 28 30 34 35 35 36 36 36 37 37 41 39 35 30 27 24 18 8 9 10 11 11 13 14 15 16 15 15 14 14 14 14 13 13
21 22 17 24 28 31 30 28 29 28 28 32 35 35 35 36 36 36 36 38 40 37 32 27 24 19 11 9 9 10 10 11 13 14 14 15 14 13 14 14 14 13 13 14
23 20 22 28 28 27 27 29 28 33 35 35 35 34 34 37 37 37 37 39 38 33 27 23 18 12 8 7 8 9 11 11 13 14 14 14 13 13 14 14 14 14 14 15
28 24 17 24 31 30 32 27 35 35 35 34 34 31 33 37 38 37 37 35 32 27 22 15 9 7 7 7 7 8 11 13 13 14 14 13 13 14 15 15 15 16 15 15
27 24 26 29 32 31 25 26 37 36 37 36 33 33 36 38 37 35 33 30 26 23 19 12 8 8 8 7 8 10 13 14 14 14 13 14 14 15 15 15 15 15 15 15
28 25 22 32 32 28 31 34 35 34 34 34 35 37 37 37 36 33 30 29 23 17 12 10 10 9 8 7 10 12 14 14 13 13 13 13 15 16 16 16 16 15 15 16
28 28 33 34 34 35 34 33 34 34 34 34 35 36 37 37 36 33 30 26 22 18 13 10 11 9 8 9 12 13 13 13 13 13 13 15 16 16 16 16 16 15 16 18
29 32 33 34 34 34 34 34 35 35 34 35 35 35 35 36 35 33 27 22 19 16 12 10 11 10 10 12 13 13 12 12 13 13 16 15 16 17 16 16 16 17 18 19
31 33 33 33 34 35 35 35 35 35 34 34 34 34 34 35 35 31 25 21 19 14 11 10 10 11 12 13 14 13 13 12 13 14 15 16 17 16 16 17 20 20 20 20
30 33 33 33 34 35 35 35 35 34 33 34 34 33 34 34 34 28 22 18 15 12 10 10 11 11 12 14 14 14 12 12 14 16 17 16 16 16 21 23 24 23 24 23
33 34 34 35 34 34 34 34 34 33 33 33 34 35 34 31 28 27 19 15 13 11 11 12 12 12 13 14 15 14 14 13 15 17 15 15 17 18 18 18 22 22 23 24
34 34 33 33 33 34 35 36 36 35 35 34 35 34 30 24 24 17 13 11 12 12 12 12 12 12 13 14 15 15 15 20 16 15 17 18 18 18 17 16 16 17 20 22
32 33 34 33 33 33 33 32 31 31 32 33 33 33 27 20 17 14 12 12 12 12 11 11 12 12 14 15 14 15 16 16 16 18 19 19 18 17 17 17 17 17 19 20
30 30 31 31 32 31 30 29 29 30 31 32 32 32 24 19 15 11 12 12 9 8 11 12 12 13 14 15 16 17 16 19 20 18 18 17 17 17 17 17 18 18 17 18
31 29 28 24 28 29 29 29 30 30 31 32 30 29 21 14 11 11 11 11 11 12 12 12 12 13 14 16 17 17 17 17 21 17 17 18 18 18 19 19 18 18 16 17
33 31 29 24 25 27 28 29 30 30 32 31 29 26 17 12 10 10 10 11 12 11 11 12 13 15 18 18 17 17 18 18 18 18 18 18 18 18 17 17 16 16 17 16
25 27 27 27 27 28 28 29 29 30 29 28 25 21 16 12 10 10 11 11 10 10 11 12 17 19 17 18 19 18 18 18 18 18 18 20 17 17 16 16 16 16 16 15
26 26 26 27 27 27 28 28 28 28 26 22 18 13 11 10 11 12 12 11 12 12 13 15 18 18 17 17 20 19 19 18 18 17 17 16 15 14 15 15 15 14 15 15
25 24 24 24 24 25 27 27 26 24 23 16 14 13 11 11 12 12 12 11 12 13 16 19 17 17 17 18 20 19 19 18 17 16 15 13 13 13 14 15 15 15 15 15
23 23 22 22 21 20 20 21 23 22 19 15 13 11 11 12 13 13 13 12 14 18 17 17 17 18 18 21 18 17 17 16 14 13 12 13 14 15 16 16 16 17 17 17
21 22 22 23 23 22 19 16 14 14 15 13 11 12 12 13 13 13 12 13 16 17 17 16 17 19 20 16 16 15 13 12 12 12 14 15 16 16 17 17 17 17 16 16
22 21 22 23 22 20 20 19 14 12 11 12 14 14 14 14 12 14 14 16 18 16 15 15 16 18 19 13 12 12 12 12 14 15 14 18 17 18 17 16 16 17 17 16
19 16 14 15 19 21 16 13 13 13 14 14 13 13 13 14 12 12 14 14 15 15 13 15 16 16 12 11 12 12 13 14 14 14 16 16 16 16 17 17 17 17 17 17
20 21 21 20 20 19 16 15 15 14 13 12 12 13 13 13 12 11 11 12 11 11 9 9 10 11 12 12 12 12 13 13 14 14 16 16 16 17 17 15 15 15 15 15
18 20 15 17 16 16 15 14 14 12 12 11 11 13 11 10 9 10 11 9 9 9 9 10 10 12 12 12 13 12 12 13 15 15 17 17 16 16 15 15 14 14 15 15

GFSNGP_sfc_dewp_018.txt.gz
Dewpoint
29 31 29 30 31 30 31 31 28 28 27 27 27 32 35 36 35 36 37 39 40 41 39 36 32 28 25 21 17 12 10 12 13 13 13 13 13 13 12 13 12 13 13 11
26 29 30 28 29 31 33 33 31 28 28 29 29 32 32 35 36 36 36 38 40 41 40 35 31 27 25 18 13 11 10 10 12 12 13 15 14 13 13 13 13 13 12 11
28 26 28 27 29 29 28 28 28 27 29 30 31 31 33 35 35 36 37 38 40 41 39 34 30 28 23 14 10 9 9 9 10 11 13 13 13 12 13 13 13 13 11 11
27 25 28 28 28 30 30 29 29 29 29 31 32 35 36 36 36 37 37 38 41 40 37 32 28 24 15 11 9 8 9 8 10 12 11 11 10 10 12 12 12 11 10 11
26 24 25 23 28 28 30 30 31 31 30 34 35 35 36 37 37 37 38 39 40 39 33 28 24 18 14 9 7 7 8 8 10 10 10 10 10 11 11 12 12 11 12 12
32 27 23 23 30 29 30 24 31 31 33 34 35 32 34 37 38 38 39 39 37 32 28 25 18 13 12 8 5 6 8 10 10 10 10 9 11 12 12 12 12 12 11 11
35 33 24 29 31 32 24 27 35 34 35 35 33 35 37 37 37 37 36 34 30 27 25 20 14 10 8 7 6 8 10 11 11 10 10 10 11 12 12 12 12 11 10 11
33 28 27 32 31 28 33 37 37 37 36 36 36 37 37 37 36 34 32 30 27 25 21 15 12 10 8 5 9 10 11 11 11 10 10 10 12 12 11 11 11 10 10 14
28 28 34 34 34 36 37 36 35 35 35 36 36 36 37 37 36 34 31 28 26 24 18 13 11 8 6 8 11 11 11 10 10 10 10 12 11 11 10 10 10 11 13 15
30 32 33 34 35 35 35 35 35 35 36 36 36 37 37 37 37 34 31 28 25 21 17 13 11 10 9 11 11 11 9 9 10 10 12 11 12 11 10 10 12 14 16 17
32 33 34 34 35 35 35 36 35 35 35 36 36 35 36 36 36 35 30 26 24 23 19 12 9 9 10 11 12 10 9 9 10 11 11 11 10 10 12 14 19 19 20 20
30 33 34 34 35 36 36 36 36 35 35 35 36 36 35 36 36 33 29 25 23 19 12 9 9 9 11 12 12 12 10 10 11 13 11 10 10 11 18 21 23 23 24 23
33 35 35 35 36 36 36 36 36 35 36 36 35 35 35 35 34 30 25 22 19 14 11 11 10 10 11 12 13 12 11 11 12 11 9 10 11 13 14 15 20 21 22 23
35 35 34 35 35 35 36 36 36 35 35 35 35 36 34 32 31 26 22 18 13 12 11 11 10 10 11 13 13 12 13 18 13 11 13 14 14 14 14 13 13 14 18 21
35 34 35 35 35 36 37 36 34 32 33 34 34 34 30 26 26 21 15 12 12 12 10 10 10 10 12 13 12 13 13 12 12 14 14 17 15 14 14 14 14 14 15 17
34 36 37 36 36 35 34 32 29 30 32 32 32 32 31 27 23 17 13 12 11 9 9 10 10 11 13 13 14 15 13 16 18 15 14 14 14 14 14 14 14 14 14 14
34 33 34 33 34 33 31 29 29 30 31 32 31 32 26 21 17 14 12 12 11 10 11 11 11 12 13 16 16 14 13 13 18 16 15 15 15 14 15 15 14 14 13 14
37 36 34 33 32 29 28 30 31 32 32 32 32 31 27 19 18 13 11 11 11 11 11 11 12 14 17 16 15 14 14 14 16 16 16 15 14 15 14 14 13 13 14 14
33 31 25 25 26 27 29 30 31 32 32 32 31 30 26 21 16 11 10 11 10 9 11 12 15 18 15 15 18 15 15 17 16 15 14 16 14 14 13 13 13 14 14 13
26 27 27 28 28 28 29 30 31 31 31 30 29 25 21 17 12 11 11 10 12 12 13 15 16 15 14 14 18 19 18 16 15 13 12 13 12 11 12 14 14 13 13 13
26 26 27 27 28 28 28 29 29 29 27 24 22 19 17 13 11 12 11 11 12 14 16 17 15 14 13 17 19 17 16 14 12 11 10 10 11 12 13 13 14 14 14 14
24 23 23 23 23 22 23 25 26 24 22 19 16 15 12 13 13 14 13 13 14 17 16 15 15 16 17 21 17 15 13 11 9 9 10 11 13 14 16 16 17 16 17 18
23 23 23 23 22 23 20 19 18 18 18 17 15 12 12 12 13 13 13 13 15 16 16 14 16 19 20 16 13 11 10 10 10 11 13 15 16 18 18 18 17 17 18 18
22 22 23 24 23 22 22 19 16 13 12 12 13 13 14 14 13 14 13 14 16 15 14 13 15 18 18 12 10 10 11 11 13 16 14 18 18 18 17 17 17 17 17 17
25 24 24 25 24 23 21 17 17 16 15 14 13 13 13 13 11 12 12 10 13 12 9 12 15 17 12 11 11 11 12 14 17 16 15 17 17 17 17 17 17 17 17 16
22 22 22 22 22 21 16 16 15 14 13 13 12 12 12 11 9 10 8 10 7 9 7 9 10 12 11 11 11 12 12 13 13 13 16 16 17 18 17 16 15 15 15 16
23 22 19 17 17 17 16 16 15 14 12 11 11 10 8 7 6 7 8 5 6 7 8 9 10 11 12 12 12 11 12 13 16 16 16 17 16 16 15 14 15 14 15 15

GFSNGP_sfc_dewp_021.txt.gz
Dewpoint
27 29 33 34 35 36 35 34 30 28 27 26 28 31 33 34 35 37 38 39 40 41 40 38 35 32 29 27 21 17 15 15 15 15 13 12 13 13 12 13 13 14 14 13
28 30 29 28 30 33 33 33 31 29 29 31 30 29 33 34 35 36 37 39 39 41 40 38 34 31 27 23 19 16 13 12 13 12 12 14 13 13 13 14 14 15 14 13
27 28 29 28 29 29 30 31 30 29 31 32 30 31 32 35 35 35 36 38 40 41 41 38 34 30 26 21 16 14 12 10 9 10 11 12 12 12 13 14 14 14 13 13
32 27 28 29 28 30 30 29 31 32 31 30 31 31 33 35 35 36 37 38 40 41 40 36 32 29 22 17 14 12 11 9 9 10 9 10 10 10 13 12 13 12 12 13
29 27 27 28 26 27 29 30 31 30 30 30 35 36 36 36 36 37 37 40 41 41 37 33 29 23 19 15 12 10 9 8 8 8 9 9 10 11 12 12 13 12 13 13
33 28 26 25 29 28 31 27 30 32 31 33 36 32 34 37 38 39 40 40 40 37 32 29 24 20 18 13 9 8 8 8 8 9 9 9 10 11 13 13 13 13 12 11
37 33 33 29 30 31 24 30 31 32 33 35 34 36 37 37 37 38 38 36 33 31 29 24 19 18 15 10 9 7 9 9 9 9 9 10 12 12 13 12 13 11 10 9
38 36 32 32 31 27 35 36 34 35 36 37 37 37 37 36 36 35 34 32 30 28 23 20 17 17 12 8 8 9 10 10 10 10 10 10 12 12 11 11 11 9 9 12
35 34 34 34 35 36 37 37 37 37 36 36 36 36 36 36 35 33 32 30 28 26 21 18 15 11 10 9 9 9 9 9 9 11 11 11 11 11 11 10 9 8 11 15
28 31 33 34 35 36 37 36 36 36 36 35 36 36 37 36 35 33 31 29 28 25 21 17 14 10 9 9 10 9 8 8 11 11 12 11 13 11 9 9 11 13 16 18
31 33 34 34 36 36 35 36 36 35 35 35 36 36 36 36 36 34 32 30 28 26 22 18 12 9 8 10 10 10 9 10 11 12 11 12 11 9 9 11 17 18 20 20
28 32 33 34 35 36 35 36 36 36 36 37 36 36 36 36 36 34 31 29 28 27 21 13 9 8 9 10 11 11 11 12 12 13 11 11 9 9 17 20 21 21 22 21
33 34 35 35 36 36 36 36 36 36 36 36 36 36 36 36 35 34 30 28 26 21 16 12 10 9 10 11 12 14 12 12 12 13 10 9 11 12 13 16 20 20 21 22
35 36 35 35 35 36 36 36 36 35 35 34 35 35 35 35 33 30 27 25 21 16 13 12 11 10 10 11 13 13 13 18 14 11 13 12 12 14 14 13 13 13 18 19
35 35 36 36 36 36 36 36 35 33 33 33 34 33 31 31 29 27 23 18 15 13 12 11 10 10 11 13 13 13 14 14 13 15 16 16 15 14 14 13 13 13 14 16
37 38 38 37 38 37 37 34 29 29 30 31 31 32 31 30 28 22 18 15 14 11 10 11 11 11 12 13 14 15 15 17 17 15 14 14 14 14 13 13 14 14 14 14
36 35 35 35 36 34 30 26 27 29 30 31 30 32 29 27 24 19 16 14 12 12 11 12 12 12 13 14 16 15 14 14 17 14 14 15 15 14 14 15 15 14 13 14
37 37 36 35 33 29 28 29 30 30 31 32 32 32 29 24 23 20 16 13 11 11 12 12 12 14 17 16 15 14 14 14 15 16 16 15 14 15 14 14 14 14 14 14
35 34 34 33 29 28 29 30 31 32 33 33 32 31 30 26 24 19 13 11 10 9 10 12 15 18 16 15 16 16 15 16 16 15 14 15 12 13 13 13 13 14 14 13
28 27 27 28 29 29 30 30 31 31 32 32 31 30 28 25 19 13 11 10 12 12 14 15 16 15 14 14 17 18 18 16 15 13 11 11 11 10 12 13 13 13 14 14
27 28 28 27 28 28 29 29 29 29 29 29 27 26 23 19 15 12 11 11 13 15 16 17 15 15 13 16 19 18 17 15 12 10 9 9 10 11 13 14 15 15 15 16
26 26 27 27 26 26 27 27 26 26 24 22 20 19 16 15 14 15 13 13 15 18 16 15 15 15 17 21 18 16 14 11 9 9 10 10 13 15 17 17 18 18 18 18
24 24 24 24 24 22 21 21 20 21 20 19 17 15 13 13 13 13 13 14 15 15 16 13 15 18 19 17 14 12 10 10 10 10 13 17 17 18 18 19 19 18 18 18
23 24 24 24 23 23 22 19 16 15 14 13 14 14 14 14 14 14 13 14 14 15 14 13 14 18 19 14 11 11 11 11 13 17 16 18 19 19 18 18 18 18 17 17
27 27 28 28 25 24 23 21 20 18 14 14 14 14 13 13 12 12 10 9 11 11 8 11 14 16 12 11 11 11 12 15 17 17 16 17 18 18 18 18 18 17 17 17
24 23 24 24 24 21 18 16 15 15 14 13 13 13 11 9 8 8 6 8 7 8 7 8 9 11 11 11 11 12 12 13 14 14 16 17 17 17 17 16 16 16 15 16
25 23 21 19 18 18 18 17 16 15 14 13 12 9 7 6 5 6 6 4 5 5 7 8 9 11 11 12 12 11 13 14 16 16 17 17 16 16 15 15 15 15 15 15

GFSNGP_sfc_dewp_024.txt.gz
Dewpoint
37 37 37 37 37 37 36 35 31 29 25 28 32 33 34 34 37 38 39 39 40 41 39 37 35 32 29 25 21 18 18 19 17 16 14 14 16 16 15 15 15 16 17 16
29 37 38 35 36 37 36 35 35 34 30 29 30 33 33 34 36 37 38 39 40 41 39 36 33 30 27 23 19 18 16 16 16 14 13 16 15 15 14 15 15 16 16 15
28 29 30 28 30 35 35 36 35 33 32 33 30 33 33 34 35 37 38 39 40 41 39 36 33 27 24 20 17 15 14 12 12 12 13 14 13 13 14 14 14 14 14 13
34 28 25 28 29 30 30 31 34 32 32 32 31 34 36 36 35 36 38 39 41 41 39 34 31 28 20 18 16 15 13 11 12 12 11 12 11 11 12 13 13 13 13 13
31 27 29 28 27 28 30 30 31 31 33 35 36 36 36 37 38 38 39 40 41 39 35 31 26 19 18 15 13 13 12 9 9 10 10 11 11 11 12 13 13 13 13 13
30 27 26 28 29 29 31 28 32 32 32 35 36 33 35 38 39 40 41 40 37 34 30 27 21 19 15 14 11 10 10 10 9 10 10 10 10 12 13 13 13 13 11 11
34 31 33 30 30 31 26 29 33 33 35 36 35 36 37 38 38 38 37 34 32 30 28 22 21 19 14 10 10 9 10 10 11 11 10 10 12 13 13 12 13 12 10 9
36 34 30 32 31 29 35 35 34 37 37 37 37 37 37 37 36 34 33 32 30 23 21 19 19 16 13 9 9 10 11 11 12 11 11 11 12 13 12 12 11 10 9 12
38 37 35 35 35 36 37 36 37 37 37 37 36 36 36 35 34 33 31 30 26 22 20 17 16 13 11 10 10 10 10 9 10 11 12 12 12 12 11 11 10 10 12 15
32 32 33 34 35 36 38 37 37 37 37 37 36 36 35 34 33 31 30 29 25 21 18 15 12 10 10 11 11 10 9 9 11 12 14 12 14 13 11 9 11 12 15 17
31 33 34 35 35 36 36 36 36 36 37 37 37 36 36 35 34 32 31 30 27 24 19 16 12 10 11 11 11 11 10 11 12 14 13 13 13 10 9 11 16 16 17 17
30 33 33 34 36 36 36 36 37 36 36 37 37 36 37 36 35 33 30 29 28 26 17 13 10 9 11 12 12 12 12 14 14 15 14 14 11 10 18 20 22 22 22 20
33 35 36 36 36 36 36 37 37 37 37 36 36 36 36 36 34 33 29 29 26 20 15 12 11 10 11 12 13 14 13 13 14 15 13 11 12 12 13 16 20 20 21 21
36 36 35 35 35 36 37 37 38 35 35 35 35 36 35 33 32 29 27 26 20 16 14 13 12 11 12 13 13 14 14 19 16 15 15 15 14 15 15 14 13 13 18 20
35 36 36 36 36 36 35 35 34 33 34 34 34 33 33 32 29 26 21 17 16 15 13 13 11 11 14 14 14 14 14 15 15 16 17 17 15 15 15 14 13 13 14 17
37 36 36 36 36 35 34 32 31 31 32 32 32 31 30 29 24 20 16 16 14 12 12 12 11 13 15 14 14 16 16 19 18 16 15 15 15 15 15 14 14 14 14 13
35 34 35 34 34 34 30 28 30 31 31 31 31 30 28 24 21 18 16 15 12 12 12 12 12 14 14 14 16 17 16 15 18 15 15 16 16 15 14 15 14 13 13 14
37 36 36 36 33 28 28 30 30 31 31 32 32 28 25 24 21 18 15 13 12 12 12 12 14 16 17 17 16 16 16 16 16 16 17 16 14 14 12 13 13 13 13 14
36 35 35 31 29 29 30 31 32 32 32 32 31 30 27 25 23 18 13 12 11 10 12 14 19 18 17 16 17 17 17 17 17 17 15 16 12 13 12 12 12 13 14 14
32 30 29 29 30 30 31 31 32 32 32 31 30 28 26 22 15 13 11 11 13 14 15 17 17 16 14 14 18 18 18 18 16 14 12 11 10 9 11 13 14 15 15 14
28 28 28 28 29 30 30 31 31 30 29 28 27 25 23 17 14 13 12 12 15 18 17 18 16 15 15 18 20 19 18 16 13 11 10 9 10 11 13 15 16 15 15 16
26 27 27 27 27 27 27 27 27 25 23 20 19 18 15 14 14 15 15 15 17 19 17 16 15 17 18 20 18 16 14 12 10 10 11 11 13 15 16 16 17 18 18 17
25 25 25 24 23 22 21 20 21 21 19 18 16 14 14 15 15 14 14 16 16 18 16 14 16 18 19 16 16 14 11 11 11 11 13 14 16 16 18 19 17 17 17 18
24 24 24 23 22 21 18 16 16 15 14 15 16 15 16 15 14 14 14 14 14 16 12 12 14 17 18 14 12 12 12 12 13 14 15 18 15 17 17 16 16 17 18 17
26 25 25 25 24 21 20 19 17 16 14 14 13 14 12 12 14 11 9 9 11 10 10 12 15 16 12 12 12 11 12 13 10 13 14 13 16 16 16 17 17 16 16 15
24 24 23 23 22 19 18 17 15 14 14 13 13 11 10 9 9 7 7 8 7 9 7 9 10 12 12 11 12 12 12 13 13 14 16 17 17 16 15 15 15 15 14 14
23 23 19 18 18 18 17 16 15 15 14 13 10 8 7 6 6 5 7 5 5 6 7 8 10 11 12 12 12 11 13 13 15 15 15 14 14 14 14 14 14 14 14 13

GFSNGP_sfc_dewp_027.txt.gz
Dewpoint
38 36 37 37 38 38 38 38 32 28 29 31 31 32 33 37 38 39 39 40 41 39 38 36 34 30 25 21 20 19 19 19 17 15 14 15 16 15 15 15 15 17 17 17
37 37 36 36 37 38 38 37 36 35 33 30 33 34 33 37 38 38 39 40 41 39 38 35 31 27 22 20 19 19 17 17 16 14 14 15 14 14 14 15 15 15 15 15
31 35 35 32 36 37 37 36 36 34 34 31 33 33 33 36 38 38 39 40 40 39 37 34 29 25 20 18 17 15 15 13 14 14 13 14 13 13 13 13 14 14 14 14
33 28 24 29 30 36 38 37 37 36 34 32 34 36 37 36 38 38 39 40 41 39 36 32 27 22 18 16 15 15 14 13 13 13 11 12 11 11 12 13 13 13 13 14
29 28 29 29 27 28 30 30 33 36 34 35 36 36 36 39 39 38 40 41 41 37 32 28 22 18 16 15 15 14 12 10 10 10 10 11 10 10 12 13 13 13 13 13
28 26 25 27 29 29 30 28 33 32 34 34 35 31 35 39 40 39 38 36 32 29 24 19 18 15 13 13 12 11 10 11 9 10 10 10 10 11 13 13 13 14 12 12
32 31 31 32 30 31 25 26 35 34 35 35 33 34 37 38 36 34 33 31 29 25 21 19 16 15 13 11 10 10 11 11 11 11 10 10 12 12 13 13 13 12 11 10
33 33 28 32 29 26 31 35 37 37 37 37 37 38 37 35 34 33 31 28 25 21 20 19 16 13 12 9 10 11 12 11 11 10 11 12 12 13 13 12 12 10 10 13
36 34 36 35 34 36 37 36 37 37 37 37 37 36 35 33 32 31 28 23 22 19 18 16 14 11 9 9 11 10 10 9 10 12 12 13 12 13 13 12 10 10 12 15
36 34 33 34 35 36 37 37 37 37 37 36 35 34 33 32 31 29 26 23 20 17 15 12 12 11 11 11 11 10 9 10 12 13 16 13 14 13 11 10 12 14 16 17
31 34 33 34 35 37 37 37 37 37 36 36 35 34 33 32 30 29 27 23 20 18 15 12 10 11 11 11 11 10 11 12 13 15 14 14 14 11 13 13 18 17 18 17
32 33 32 33 36 36 36 36 37 37 37 37 36 35 34 32 31 30 28 26 23 20 16 12 10 11 12 13 13 12 12 14 15 16 15 14 12 13 19 20 22 22 22 20
32 34 35 36 36 36 36 37 37 37 37 36 37 36 35 33 31 31 29 28 24 17 14 12 11 11 12 14 13 14 13 13 15 15 14 13 14 14 14 16 20 20 21 21
36 36 35 35 35 36 37 37 37 36 36 36 36 35 34 33 31 28 27 24 18 15 13 12 12 12 13 14 14 14 14 19 17 15 15 16 15 16 15 14 14 14 17 20
36 36 36 36 36 36 35 35 34 34 34 34 34 33 31 29 27 25 21 17 16 15 14 13 12 12 14 14 14 14 15 16 16 17 17 18 16 15 16 15 14 14 14 16
36 36 36 35 35 34 33 33 33 33 32 31 32 31 29 26 21 18 16 15 14 13 13 12 12 14 15 14 15 16 16 19 19 16 15 15 16 16 15 14 13 13 13 12
35 33 34 34 34 32 31 31 32 32 32 30 30 28 23 20 18 16 16 14 14 13 12 12 14 15 14 15 16 16 16 16 20 15 15 16 17 15 15 14 12 12 11 13
36 36 36 35 32 29 30 31 31 31 31 30 28 25 21 20 18 16 14 12 12 12 12 13 15 16 17 16 16 16 16 17 17 17 18 17 15 13 12 11 11 12 13 14
36 36 35 30 29 30 30 31 31 32 31 29 26 25 24 22 19 16 13 11 10 10 12 16 20 17 15 16 17 17 17 18 17 17 16 15 12 11 11 12 12 14 15 15
35 32 30 30 30 31 31 32 32 31 30 29 28 25 21 17 15 13 12 13 13 14 16 17 16 15 14 16 20 19 18 18 17 14 12 11 10 11 11 14 15 15 15 15
30 30 30 30 30 31 31 31 31 30 29 28 27 24 18 15 13 13 13 14 16 18 18 18 16 15 17 19 19 18 17 15 12 10 10 10 10 12 14 15 15 16 16 16
28 28 29 29 29 28 28 28 26 24 22 20 18 15 14 14 15 16 15 15 18 20 17 15 14 18 18 20 16 15 14 11 10 11 11 11 13 14 15 16 17 17 16 15
27 27 27 26 25 23 22 22 21 19 17 16 15 15 15 15 15 14 14 16 16 18 14 13 16 17 19 15 14 13 12 11 11 11 13 13 15 14 16 16 16 15 15 16
25 24 22 21 19 18 16 15 15 15 15 15 16 16 14 13 13 14 15 16 16 13 11 13 15 17 17 12 12 12 11 12 12 12 13 17 13 14 14 15 15 16 15 15
25 24 23 22 19 17 17 17 16 15 13 13 11 11 12 13 13 9 9 9 13 11 8 13 15 15 12 12 11 12 12 12 9 13 14 14 15 16 15 15 14 14 15 13
24 24 23 22 19 17 16 15 14 14 13 11 10 9 8 9 9 7 7 9 7 9 7 8 10 12 11 11 12 12 12 12 12 13 15 15 14 12 12 13 13 13 13 13
22 22 19 18 18 17 16 15 15 15 13 10 7 7 5 5 7 6 8 5 6 7 8 8 10 11 12 11 10 10 11 12 13 14 13 12 12 12 12 12 13 13 13 14

GFSNGP_sfc_dewp_030.txt.gz
Dewpoint
34 35 37 35 36 36 32 31 28 27 33 35 30 31 36 37 39 40 41 42 41 39 38 33 30 26 22 20 19 19 18 18 16 15 15 15 15 15 14 15 15 16 16 16
35 39 38 37 37 36 37 36 34 36 34 32 33 34 36 37 38 39 40 41 40 39 37 33 29 25 20 19 20 19 19 18 17 15 15 15 14 14 13 14 14 15 14 14
34 36 37 35 35 39 37 40 41 37 33 33 32 33 36 37 38 39 40 41 40 38 37 33 27 22 19 18 18 17 17 15 14 15 14 14 13 12 12 13 13 13 13 13
35 29 24 29 29 38 37 37 37 36 32 32 34 36 36 37 38 39 40 41 40 38 35 31 25 21 18 17 16 16 14 14 15 14 11 12 11 11 11 12 12 13 13 13
31 28 28 27 27 31 36 35 37 37 34 35 36 36 36 39 39 40 40 41 40 37 31 26 20 18 16 15 15 15 13 12 11 11 10 10 10 10 11 12 13 13 13 13
29 25 25 28 29 29 30 28 33 33 34 35 35 33 34 38 39 39 39 37 33 29 25 20 18 16 15 14 13 12 11 11 10 11 10 10 10 11 12 13 13 14 12 11
30 30 30 33 30 31 25 24 34 34 35 35 32 34 38 35 33 33 31 27 26 24 21 17 15 14 13 12 11 11 11 11 11 11 10 11 12 12 13 13 13 11 11 11
35 29 25 32 28 25 28 36 37 37 37 37 38 36 34 33 31 29 26 24 22 20 17 15 15 14 12 9 11 12 12 11 11 10 11 12 12 13 13 12 11 11 11 13
34 33 35 35 34 36 37 36 37 37 38 38 36 35 34 32 29 26 24 22 21 19 16 15 14 11 10 10 11 11 10 9 11 12 13 13 13 13 12 12 12 12 14 17
36 36 36 34 37 37 37 37 37 37 37 37 35 34 32 30 26 24 22 20 19 16 14 13 11 11 10 11 11 10 9 11 13 13 16 14 14 13 12 13 14 16 17 17
34 33 33 34 35 37 37 37 37 37 36 35 33 32 31 29 27 24 21 19 18 15 12 11 11 11 11 11 11 10 11 12 13 15 15 14 13 12 15 16 19 18 18 18
34 33 33 32 36 37 37 37 37 36 35 35 33 32 31 29 28 24 22 20 18 15 11 11 11 11 12 13 12 12 11 13 15 17 14 14 13 14 19 20 22 21 22 20
35 35 36 36 36 37 37 37 37 36 35 34 33 32 31 30 29 28 24 22 19 16 13 11 12 12 13 14 14 13 12 14 16 15 14 14 14 15 15 16 20 20 20 21
36 36 35 36 35 37 37 37 37 37 36 35 34 33 31 31 30 27 25 22 18 14 13 12 12 12 13 14 14 13 13 19 17 15 16 16 16 16 15 15 15 14 17 18
36 36 36 37 36 36 36 36 35 35 35 34 33 32 31 28 28 25 19 16 15 14 13 13 13 13 15 14 13 15 15 17 17 17 16 18 15 16 16 16 15 13 13 14
36 36 36 35 35 35 35 34 34 33 33 33 31 29 28 25 21 18 16 15 13 13 13 13 13 14 15 14 16 16 16 19 19 17 15 16 16 16 15 14 12 12 11 11
35 33 33 33 34 33 33 33 33 32 32 31 29 25 21 19 17 16 15 15 14 13 12 13 14 15 15 16 16 15 15 16 20 17 17 17 17 15 14 12 12 11 12 13
37 36 35 34 33 31 31 31 31 31 30 29 24 21 19 17 16 14 13 13 12 12 12 14 15 16 17 16 16 16 16 17 18 18 18 16 14 12 11 11 11 12 14 15
36 35 33 31 31 31 31 30 31 30 28 25 22 21 20 18 16 13 12 11 11 11 14 17 21 17 14 17 18 18 18 17 17 16 14 14 11 11 11 12 13 14 14 14
34 31 30 30 30 30 30 31 30 28 27 26 24 22 20 17 15 13 12 12 13 13 16 17 15 14 14 17 21 17 17 16 14 11 11 11 10 11 12 15 15 14 15 15
30 30 30 30 31 31 31 31 29 28 27 25 22 18 16 13 14 15 15 15 17 19 18 19 16 16 17 20 16 15 15 12 11 10 11 11 11 12 14 15 15 15 15 14
29 30 30 30 30 30 30 29 28 27 25 21 17 14 14 15 15 16 16 16 19 19 15 14 15 17 19 17 14 13 12 11 11 11 11 12 13 13 14 15 15 15 15 15
29 29 29 29 28 25 23 21 21 20 18 16 14 14 14 15 15 14 14 17 17 16 12 13 16 18 19 12 12 12 11 11 11 12 12 12 13 12 13 13 15 15 14 14
26 25 24 22 22 20 17 16 16 16 16 16 15 15 15 14 12 15 17 18 16 13 12 15 15 17 15 11 11 11 12 12 12 10 12 16 11 13 14 14 13 13 13 14
24 23 22 21 19 17 17 16 15 14 12 11 11 12 13 13 11 9 8 11 14 9 8 13 15 15 11 11 11 12 12 10 8 11 13 12 14 13 12 12 11 12 14 12
22 21 20 19 17 16 15 14 13 12 10 8 8 9 8 9 10 8 8 8 9 10 8 8 11 12 11 11 12 10 10 11 11 12 14 13 12 10 11 11 11 11 12 12
22 22 18 17 17 16 15 15 14 13 10 7 5 6 7 8 9 8 8 6 7 8 8 9 9 10 10 11 9 9 10 11 13 13 12 10 10 10 11 11 12 13 13 13

GFSNGP_sfc_dewp_033.txt.gz
Dewpoint
34 34 35 35 32 31 29 26 24 24 27 28 28 33 38 41 41 42 42 41 40 37 34 30 27 23 20 19 19 18 17 18 17 15 15 15 15 15 14 15 14 15 15 15
32 34 35 35 35 31 31 27 29 33 30 32 33 36 37 39 40 41 42 41 40 37 33 29 26 22 20 19 19 19 18 18 17 16 16 16 15 13 13 13 14 14 14 14
31 36 36 33 36 32 33 32 29 33 33 33 33 34 37 38 40 41 42 41 40 37 33 30 25 21 19 19 19 18 17 16 16 16 16 15 13 12 12 12 13 13 13 13
33 33 28 33 39 38 36 37 38 38 38 38 37 35 37 38 39 40 41 41 40 37 34 28 23 20 19 18 18 17 16 15 16 15 13 12 11 10 11 12 12 13 13 13
33 28 29 28 38 38 36 35 39 39 40 35 37 36 36 39 39 40 41 40 39 36 31 25 21 18 17 17 16 15 14 13 13 12 11 10 10 11 11 12 13 12 13 12
32 26 24 28 29 30 33 33 37 39 37 35 35 33 35 39 40 41 41 39 34 30 25 21 18 17 16 15 14 13 12 12 11 11 10 10 11 12 12 13 13 13 11 11
31 29 30 33 32 31 25 24 34 34 36 35 34 37 36 35 34 36 35 31 28 26 23 18 16 16 14 13 12 12 12 12 12 11 11 12 12 13 13 12 12 12 12 12
33 29 23 33 28 25 28 36 37 36 36 37 35 34 32 31 29 29 28 26 23 19 17 16 16 15 13 12 12 12 13 12 11 12 12 12 13 13 12 12 12 12 13 15
34 32 35 35 34 36 36 36 36 37 38 35 34 32 30 27 26 25 23 22 20 17 15 15 15 13 11 11 12 11 10 11 12 13 13 13 13 12 12 13 14 14 15 17
35 35 35 35 37 37 37 37 37 38 37 35 33 30 26 25 24 23 22 19 18 16 15 12 12 11 11 12 11 10 10 12 13 14 15 14 14 13 13 15 16 17 17 17
34 34 34 34 35 37 37 37 36 36 36 34 32 30 27 25 23 21 20 19 18 16 13 11 11 11 11 11 10 10 11 12 14 16 14 14 13 13 17 17 19 18 19 18
35 35 34 33 36 37 37 37 36 35 34 34 32 30 27 25 22 21 19 17 15 13 11 11 11 11 12 12 12 11 12 13 16 16 14 14 14 14 19 20 22 22 22 20
36 35 36 36 37 37 37 36 36 35 34 32 31 29 27 24 23 25 19 17 14 13 12 12 12 12 13 14 13 13 12 15 15 15 14 14 15 15 15 16 20 20 20 21
36 36 35 36 36 37 37 37 36 35 33 32 31 30 28 27 25 21 20 19 15 13 13 13 12 13 14 14 13 13 14 20 16 16 16 16 16 15 16 15 14 14 17 18
36 36 36 37 37 36 36 35 34 33 33 32 31 30 28 26 24 23 19 15 13 13 13 13 13 13 14 14 14 15 15 16 17 17 16 18 16 16 16 16 14 12 12 14
36 36 36 36 36 35 35 34 33 33 32 31 30 29 27 24 20 17 15 14 12 12 13 13 13 14 14 15 16 16 15 19 19 17 16 17 17 16 15 13 11 11 11 11
35 33 34 34 34 34 34 34 33 33 31 30 28 25 21 18 16 15 15 15 14 13 13 13 14 15 15 16 15 15 15 16 19 17 17 17 16 14 12 11 11 11 12 14
36 35 35 35 34 33 32 32 32 32 30 26 23 20 18 17 15 15 13 12 12 13 13 14 15 17 16 16 16 16 17 17 17 17 16 13 13 12 11 11 12 13 14 14
35 35 34 33 33 32 31 31 30 29 26 23 21 19 18 16 14 13 12 11 11 11 14 18 22 16 14 20 19 18 16 16 15 13 12 14 11 11 12 12 14 14 14 14
32 32 31 31 31 31 30 29 28 25 24 22 20 18 16 14 13 12 11 11 12 13 17 17 15 14 16 20 20 15 15 13 11 10 11 12 11 12 12 15 14 14 14 13
31 31 31 30 30 30 29 28 26 25 24 22 20 18 15 14 14 15 14 15 18 19 19 19 16 17 18 18 14 13 12 11 11 11 11 11 12 13 14 14 14 13 13 14
30 30 30 30 30 29 29 28 26 24 21 18 16 14 14 15 16 16 17 17 19 19 15 15 16 18 20 15 12 12 11 11 11 11 11 12 12 13 13 13 13 13 14 14
30 30 29 29 27 26 25 24 23 20 17 15 14 14 14 15 16 16 16 18 16 16 13 15 18 20 17 11 11 11 11 11 11 11 12 10 12 10 11 12 13 13 12 12
28 26 26 25 24 23 19 17 17 16 16 15 15 15 15 14 14 16 18 19 17 14 15 15 16 17 14 11 11 12 12 11 10 8 11 15 9 11 12 12 11 11 11 12
26 26 25 22 20 17 17 16 15 14 13 13 13 13 13 13 12 11 12 14 14 9 8 14 15 15 11 11 11 11 10 9 5 9 11 9 11 10 10 10 10 11 14 13
23 21 20 19 17 16 15 14 12 11 11 9 9 9 9 10 10 7 8 10 9 11 8 8 11 12 10 10 11 9 9 10 11 11 13 11 10 9 9 10 10 11 11 12
21 21 17 16 15 15 14 13 12 11 9 7 6 6 7 8 9 8 9 7 8 8 8 8 7 9 10 11 9 9 10 10 12 12 10 8 8 8 10 11 11 12 13 13

GFSNGP_sfc_dewp_036.txt.gz
Dewpoint
33 33 33 34 34 33 31 30 25 22 22 23 27 29 34 40 44 44 41 39 36 33 29 26 22 19 18 18 17 16 16 17 16 16 16 15 15 15 15 15 14 15 14 14
32 34 35 33 35 35 33 33 29 26 24 27 32 34 35 39 42 44 41 39 36 32 28 25 21 19 18 18 18 18 18 17 17 17 16 16 15 14 14 14 13 14 13 13
29 35 35 33 34 35 34 32 30 27 27 27 32 34 37 39 42 43 42 39 36 32 28 26 21 19 18 18 19 18 17 16 17 17 16 15 14 13 13 12 13 13 12 13
31 35 27 33 39 38 35 33 32 30 31 36 37 38 38 40 41 42 42 40 37 33 29 25 21 20 19 19 19 18 16 15 16 16 14 13 12 12 12 12 12 12 12 13
33 31 32 29 37 36 34 34 37 35 34 35 38 37 37 39 40 42 42 40 37 33 28 23 20 19 18 18 17 16 15 14 13 13 12 12 11 11 12 12 12 12 13 12
34 30 26 29 30 39 38 34 40 39 38 38 36 33 35 39 41 41 41 39 35 29 25 21 19 18 17 16 15 14 13 13 12 12 12 11 12 12 13 12 12 12 12 13
34 31 31 32 33 37 28 25 36 40 40 42 38 38 37 38 39 39 37 33 29 27 24 19 18 17 16 15 14 13 12 12 12 12 12 12 12 12 12 12 12 12 13 15
32 31 24 34 31 28 29 34 36 36 36 39 36 34 34 33 33 32 31 29 25 21 18 17 17 16 15 13 13 12 13 12 13 13 12 12 12 12 11 12 13 14 15 16
33 32 34 35 34 36 36 36 36 36 36 35 33 31 30 29 28 26 25 23 21 19 16 16 17 15 13 12 12 12 11 12 13 14 13 13 12 12 12 14 15 15 16 18
35 34 35 35 36 37 37 37 38 37 35 34 30 28 26 25 24 23 22 20 19 17 15 13 13 12 12 12 11 11 12 12 14 17 14 13 14 13 15 15 16 17 18 18
35 36 35 35 35 37 37 37 36 35 33 30 28 27 25 24 22 21 20 20 18 16 13 11 11 11 11 11 11 11 12 13 15 15 14 13 14 14 16 18 19 19 19 19
33 36 34 33 37 37 36 36 35 34 32 31 29 26 24 22 21 19 18 17 15 13 11 11 11 11 11 12 12 12 12 14 18 15 14 14 14 15 19 20 22 22 21 19
37 35 36 37 37 37 36 36 35 33 32 29 28 25 23 22 20 23 17 16 14 13 12 12 12 12 13 13 13 13 13 15 15 15 14 14 15 16 15 16 19 19 19 20
36 36 35 36 36 37 36 35 34 32 31 29 27 25 25 23 21 18 16 14 13 13 12 12 13 13 14 14 13 15 18 21 16 16 15 15 17 16 16 15 14 13 16 18
36 37 36 37 37 36 35 34 32 31 30 29 28 26 23 22 20 17 14 13 13 13 13 13 13 14 14 14 15 15 16 17 18 17 16 18 17 16 15 15 13 11 11 14
36 37 37 36 36 35 34 33 31 31 30 29 27 25 23 21 18 15 14 13 13 12 13 13 14 14 15 16 16 15 15 20 20 17 16 16 16 14 14 12 10 11 11 12
35 34 35 35 35 34 33 32 32 31 29 28 25 23 20 17 16 15 14 14 13 13 13 14 14 15 16 16 15 15 16 16 19 16 16 15 13 13 11 11 11 11 12 14
36 36 36 36 34 33 33 32 31 30 28 26 23 20 18 17 14 14 12 12 13 13 14 14 16 17 16 16 16 17 17 16 16 15 13 11 13 11 11 12 12 13 14 14
35 35 35 34 34 33 32 31 29 26 25 23 21 18 16 15 14 12 12 11 12 12 14 19 21 17 18 22 18 15 14 13 12 10 11 14 11 11 12 13 14 14 13 13
33 33 33 32 32 32 30 28 26 24 23 21 18 15 14 13 12 11 12 12 12 15 19 16 14 16 19 21 17 14 12 11 10 10 11 12 11 13 13 14 13 13 13 12
31 32 31 31 29 28 27 26 24 22 21 19 17 14 13 13 13 14 14 15 18 19 19 19 17 17 20 15 13 12 11 11 11 11 11 11 12 12 13 12 12 12 12 12
31 30 30 29 28 26 26 24 23 21 19 17 15 14 14 15 16 17 18 17 20 20 16 15 16 22 18 14 11 11 11 11 11 11 11 12 12 11 11 12 11 12 13 12
30 30 29 28 27 25 24 22 20 19 17 15 15 14 15 16 16 16 16 18 16 18 15 16 20 21 16 11 11 11 11 11 10 10 11 10 11 9 10 10 12 12 11 11
29 28 26 25 24 22 19 17 17 16 16 15 16 15 15 15 16 18 18 18 19 17 16 16 18 17 14 10 11 11 10 10 9 8 10 15 8 9 10 11 10 10 11 11
27 27 26 25 22 19 18 17 16 15 14 13 13 13 13 13 15 14 13 14 15 10 10 15 16 16 10 10 11 10 9 8 5 9 9 8 9 8 9 9 9 10 13 13
25 23 22 21 19 17 16 15 13 13 11 10 9 10 10 11 12 9 10 11 10 11 7 8 10 11 9 10 11 9 9 9 10 10 12 10 9 8 8 9 10 10 11 11
21 21 18 16 15 15 14 14 13 12 10 8 6 6 7 8 9 9 10 8 8 8 7 6 5 9 10 11 9 9 9 9 11 11 8 6 6 6 8 9 10 11 11 11

GFSNGP_sfc_dewp_039.txt.gz
Dewpoint
30 31 32 33 33 33 31 30 27 23 25 25 25 31 31 34 42 42 39 37 35 32 29 25 22 20 18 17 16 16 16 18 16 16 16 15 16 15 15 15 15 15 14 13
32 33 33 33 35 35 35 32 32 30 28 30 28 34 35 37 42 42 39 36 33 30 26 23 21 19 18 17 17 18 17 17 18 16 16 16 15 15 15 15 14 14 13 13
28 32 33 33 36 35 35 34 32 30 31 31 30 31 34 39 41 43 39 35 31 28 25 22 20 19 18 17 18 17 17 17 16 15 15 15 15 14 14 14 13 13 12 12
30 33 26 32 39 39 37 36 35 33 31 31 34 37 39 40 41 43 39 35 31 29 24 21 20 19 18 18 18 17 16 16 15 15 14 14 14 13 13 13 12 12 12 12
32 31 31 30 31 37 36 34 37 34 33 33 36 38 37 39 42 43 40 36 32 29 24 21 19 19 19 18 17 16 15 15 13 12 13 13 13 12 13 12 12 12 12 13
33 30 27 30 33 38 38 34 38 36 36 38 39 35 36 39 42 41 39 35 31 26 23 20 19 19 18 17 16 15 14 13 12 13 13 13 13 13 13 12 12 12 12 15
32 32 30 34 33 39 28 31 35 39 39 40 39 37 37 39 39 40 37 32 28 25 22 20 19 18 17 16 14 13 13 12 13 13 13 13 13 12 12 12 13 13 14 16
33 31 26 34 31 29 30 35 36 37 40 42 36 36 35 34 34 33 31 29 26 22 20 19 19 18 16 13 13 13 13 14 14 13 12 12 12 12 12 13 14 14 16 17
31 31 34 36 35 35 37 36 36 37 37 39 34 34 33 31 30 28 27 25 22 20 18 18 18 16 13 12 12 12 13 14 13 13 13 12 12 12 13 14 15 15 17 17
35 35 36 36 35 37 37 37 37 37 35 33 30 29 27 26 25 24 23 21 20 18 16 14 15 14 12 12 12 12 13 15 15 14 14 13 14 13 15 15 16 17 18 17
35 36 36 36 36 36 36 36 34 32 31 30 28 27 26 24 23 22 21 20 19 16 14 12 12 11 11 11 12 12 13 14 15 14 13 13 14 14 17 18 19 18 18 18
34 36 35 34 37 37 36 35 33 31 29 29 28 25 23 22 21 20 18 17 15 13 12 11 10 10 11 13 13 13 14 16 15 14 14 14 14 14 19 20 21 21 20 19
37 35 36 37 37 37 36 34 32 30 28 26 25 23 21 20 19 22 16 15 14 13 12 11 11 12 13 14 13 14 14 16 17 14 14 14 15 15 14 14 18 18 19 20
36 36 36 37 36 36 35 34 32 29 27 25 24 23 22 20 19 16 15 14 13 12 12 12 12 13 14 15 18 20 19 20 16 15 15 16 17 15 14 13 11 11 15 19
36 37 37 37 36 35 33 32 31 29 27 26 24 22 20 18 16 14 13 13 12 12 13 13 13 13 15 16 15 16 17 18 17 16 17 18 15 13 13 12 10 10 11 14
36 37 37 36 35 35 34 33 30 29 27 25 23 21 19 16 14 14 13 13 12 11 13 13 13 14 16 16 15 15 17 21 19 15 15 14 12 12 12 10 10 11 11 12
35 35 36 35 35 34 33 33 30 28 26 24 21 19 16 15 14 14 14 13 13 13 14 14 14 16 16 16 15 16 16 16 18 14 12 11 11 13 10 11 11 12 12 14
36 36 37 36 34 32 31 31 29 27 24 22 20 18 17 15 14 13 12 13 13 13 14 15 17 17 17 17 17 16 15 14 13 11 10 11 14 11 11 12 12 13 13 13
35 36 35 34 33 32 31 29 27 25 23 21 20 17 16 14 13 12 12 12 12 13 16 20 23 21 20 21 16 14 12 11 9 9 10 14 11 12 13 13 13 13 12 12
34 34 33 33 32 30 28 26 25 23 22 19 17 15 13 12 12 12 12 12 14 18 19 17 16 19 20 19 16 12 10 10 10 10 11 12 11 13 12 14 13 11 11 11
32 32 32 31 29 27 26 25 23 21 19 18 17 14 13 12 13 14 15 16 19 19 18 20 18 20 18 14 12 11 11 11 10 10 10 10 11 12 12 11 11 11 11 12
31 30 29 28 27 25 25 24 22 20 17 15 14 13 13 15 17 18 18 17 20 21 17 17 20 20 16 14 11 11 11 11 10 10 10 11 11 11 11 11 11 12 13 13
30 29 28 27 25 23 22 21 19 18 16 15 14 14 14 16 17 16 16 18 17 19 17 18 23 19 15 10 11 11 11 10 9 9 10 11 12 11 11 11 12 13 12 12
29 28 26 24 22 20 18 17 17 16 16 15 16 16 16 16 17 18 18 20 21 18 17 18 19 17 13 10 11 11 10 9 9 9 10 15 11 10 10 10 11 11 11 12
27 26 25 24 21 19 19 18 17 16 15 14 14 14 14 15 16 14 15 18 20 14 13 17 17 14 9 9 10 10 9 9 9 12 11 10 10 10 10 10 10 10 14 13
26 24 23 21 19 18 17 16 14 14 12 11 11 12 13 14 14 11 11 12 10 11 7 8 9 10 9 10 11 9 9 10 10 9 12 11 10 9 8 9 9 10 11 11
22 22 20 18 17 16 16 15 14 13 12 10 9 8 9 9 11 10 11 8 7 6 5 4 4 9 10 11 9 9 9 9 11 11 12 9 8 7 8 8 9 10 11 11

GFSNGP_sfc_dewp_042.txt.gz
Dewpoint
31 30 30 32 32 34 32 31 29 26 25 25 26 26 27 27 32 39 41 39 39 39 39 35 29 24 21 19 18 18 18 20 20 18 17 16 16 15 15 16 15 15 14 13
32 30 31 34 35 37 37 37 34 33 31 31 31 29 29 33 35 40 42 38 37 36 32 27 24 21 19 18 18 19 20 19 19 17 16 17 16 16 17 16 15 15 13 13
29 30 31 33 36 37 37 35 34 32 31 31 31 33 32 35 37 38 40 37 35 31 28 24 23 21 19 18 19 19 19 18 17 16 16 16 16 16 16 16 15 14 13 12
31 31 26 31 38 39 38 38 36 34 33 33 32 32 36 41 40 42 40 36 33 28 26 24 23 22 20 19 20 20 18 16 15 15 14 15 15 16 16 14 13 12 12 12
30 29 28 30 32 34 37 35 38 37 36 35 35 37 42 43 44 41 38 35 31 28 26 23 21 20 20 20 20 19 17 15 13 13 13 14 14 14 14 13 13 12 13 12
32 27 25 31 34 37 38 36 35 38 37 36 38 36 37 42 42 39 36 34 30 27 25 22 21 20 20 19 18 16 15 13 11 12 13 14 14 14 14 13 13 13 11 13
30 30 30 32 33 39 31 35 37 39 40 40 39 38 39 41 40 38 34 31 28 26 23 21 20 20 19 18 16 14 12 12 13 13 14 14 14 14 13 13 13 12 11 12
32 32 29 35 34 32 32 37 38 39 40 41 38 37 37 37 36 34 30 28 25 22 20 20 20 19 18 14 13 13 13 14 14 14 13 13 14 13 13 13 12 10 12 12
31 31 34 36 37 37 37 37 37 37 39 42 38 36 36 34 33 30 28 27 26 23 21 20 20 16 14 12 13 13 14 14 14 14 13 13 13 14 13 12 11 11 12 12
36 35 37 37 37 37 37 37 36 37 38 39 37 33 31 30 29 28 26 24 23 21 20 18 16 14 13 12 13 13 13 14 14 14 13 13 14 13 12 12 12 13 12 13
36 36 37 36 37 37 36 36 33 32 33 33 33 32 31 29 26 25 24 23 22 19 17 14 13 12 12 13 13 13 14 16 16 15 13 13 13 12 13 15 18 15 15 14
32 36 36 35 37 37 36 34 32 31 30 30 31 29 27 26 24 23 21 20 19 17 15 13 11 11 12 13 14 13 13 14 14 14 13 13 12 10 18 19 19 19 19 18
37 36 36 37 37 36 34 32 30 29 29 27 26 25 24 23 21 24 19 18 17 15 14 13 12 12 13 14 14 15 15 15 15 13 11 11 11 10 8 9 13 14 16 19
37 37 36 37 36 35 34 32 31 27 26 25 24 23 23 21 20 18 17 16 15 14 13 13 12 12 13 14 15 16 17 19 14 13 13 13 11 9 8 8 6 6 12 16
36 37 37 36 35 34 31 30 28 26 25 23 23 22 20 19 17 16 15 14 14 13 13 12 12 14 16 17 16 16 16 16 15 13 15 13 9 8 9 7 7 8 10 13
38 38 37 36 35 35 33 31 30 27 25 23 21 20 18 17 16 15 14 14 14 12 12 12 13 15 16 16 17 19 20 20 14 11 9 7 7 9 8 8 9 10 10 11
37 37 37 37 36 35 34 32 28 26 24 22 19 18 17 16 15 14 14 13 13 12 12 13 15 16 16 15 15 14 12 14 14 8 7 7 10 10 9 10 11 11 11 12
37 39 38 37 36 35 34 31 28 25 23 20 18 17 16 16 14 13 13 13 12 12 13 15 16 16 16 16 14 11 10 9 8 7 8 10 11 10 11 11 12 12 11 11
36 37 37 36 34 33 31 28 26 23 21 19 18 17 16 15 14 13 12 12 12 13 15 17 22 19 18 17 12 10 8 7 6 7 8 13 9 10 12 11 12 12 11 10
35 36 35 34 32 31 29 26 23 21 21 20 18 16 15 14 13 13 12 12 14 16 19 21 21 21 18 15 12 8 7 8 8 8 9 10 10 11 11 12 12 11 11 11
34 34 33 32 30 28 27 24 22 21 20 19 18 16 14 13 13 14 15 15 18 18 17 20 19 17 14 11 9 8 9 8 8 8 9 9 10 11 11 11 12 12 12 12
33 32 30 29 27 26 25 24 22 21 19 17 15 14 14 14 16 17 17 16 18 22 18 19 18 17 14 11 9 10 10 8 8 9 9 10 12 13 14 14 14 14 15 15
31 30 28 27 26 24 23 21 20 19 17 16 15 14 15 15 16 17 17 19 18 20 20 21 21 18 15 8 9 10 9 8 9 10 11 14 15 15 15 14 15 15 15 15
29 28 26 24 23 22 20 19 18 17 16 15 16 16 17 17 17 18 19 20 22 21 20 21 19 16 11 8 9 10 9 9 11 14 13 15 15 15 14 14 14 14 14 15
28 27 26 26 23 20 21 21 20 18 16 16 16 17 17 17 16 17 18 19 22 18 17 19 17 13 7 8 10 9 10 12 15 15 12 14 15 15 14 14 13 14 15 16
26 25 24 23 21 20 18 18 16 15 14 14 14 15 15 16 17 15 14 14 11 11 7 7 8 8 8 9 10 8 10 11 11 11 14 14 14 13 13 12 12 13 13 14
24 23 21 20 19 19 18 17 15 15 14 13 13 13 12 11 12 11 11 7 5 4 3 2 2 7 8 8 7 9 10 11 12 13 13 13 13 13 12 12 12 13 13 13

GFSNGP_sfc_dewp_045.txt.gz
Dewpoint
30 29 29 30 31 32 33 33 29 28 28 30 32 32 31 30 28 28 35 41 40 41 41 42 41 38 33 31 28 24 25 23 21 21 19 20 19 18 17 17 16 16 15 14
31 30 30 32 31 31 34 37 36 36 34 36 34 31 33 31 29 35 37 41 40 40 40 35 30 27 25 22 22 22 23 23 21 21 20 20 19 18 18 17 17 16 15 13
28 29 28 32 34 36 38 38 37 33 32 32 32 35 39 39 40 39 40 39 37 37 32 28 23 21 20 20 22 23 24 21 21 20 20 19 18 18 18 17 16 15 14 13
28 28 25 27 35 36 36 38 38 37 36 36 35 37 41 42 43 41 39 36 34 31 29 23 22 22 23 25 22 23 22 21 19 19 17 17 18 17 17 16 15 13 13 13
28 25 25 26 32 32 36 37 37 38 38 37 37 42 41 44 42 40 36 33 30 26 25 25 25 26 26 26 23 21 20 18 17 16 16 16 16 15 15 14 14 13 14 13
30 26 22 29 33 36 39 36 37 39 40 40 39 38 40 42 38 36 31 30 29 29 31 34 34 33 32 29 27 26 20 16 14 15 15 16 16 15 15 15 15 15 14 12
28 28 26 29 34 40 30 35 38 40 40 41 37 39 42 41 36 34 31 32 31 29 32 30 29 25 23 21 18 16 14 14 15 15 15 16 16 15 15 15 16 13 13 12
34 31 26 34 35 34 35 39 38 42 40 39 39 39 38 37 33 31 30 29 27 25 24 23 23 22 20 16 14 14 15 16 15 15 14 14 15 14 14 13 14 11 11 13
31 29 32 36 36 37 38 37 37 38 43 40 38 39 38 35 35 34 29 28 26 23 23 23 22 19 15 13 14 15 15 15 15 15 14 15 14 15 14 13 11 10 13 13
33 34 35 36 37 37 37 37 37 37 38 44 38 37 35 33 30 30 32 32 28 26 21 17 15 14 13 14 14 14 14 15 15 14 13 14 17 15 12 11 11 13 12 13
34 35 36 36 37 37 36 35 34 34 36 40 37 35 34 34 29 28 26 25 24 21 16 14 13 13 13 14 14 14 14 15 16 16 14 14 14 12 11 14 17 15 15 14
31 36 36 36 37 37 35 34 33 33 34 35 36 34 32 29 28 26 25 23 19 16 14 13 12 13 14 16 17 16 15 16 16 15 13 14 13 10 19 18 18 20 19 18
36 37 37 37 37 36 33 32 31 31 31 31 30 29 28 27 25 26 22 19 17 15 14 14 14 14 15 16 16 18 15 15 15 12 11 10 9 9 8 13 20 19 15 16
38 37 37 37 36 34 33 31 31 29 28 28 27 26 25 25 23 21 19 16 15 15 15 15 15 15 15 16 18 18 18 20 16 13 13 11 9 8 7 7 5 6 11 15
37 37 37 37 35 33 30 29 28 26 26 25 25 24 23 21 19 17 16 15 15 15 15 15 16 17 17 18 18 17 17 16 14 14 15 12 8 7 8 7 6 7 10 13
38 38 37 36 35 33 32 31 28 27 26 25 23 22 20 18 17 16 16 16 15 14 15 15 16 16 16 17 19 20 19 18 14 10 8 6 6 8 7 7 8 10 10 11
38 38 38 37 35 34 33 31 29 27 26 23 20 19 18 17 17 16 16 15 15 15 15 16 16 17 17 17 16 15 15 14 12 7 6 7 9 9 8 10 10 11 11 12
38 39 38 37 36 34 34 32 27 25 22 20 19 18 17 17 15 15 14 14 14 14 15 16 17 17 17 16 14 11 10 9 7 7 7 8 10 10 10 11 11 11 11 11
36 38 40 38 37 36 32 28 26 23 21 20 19 19 17 16 15 14 14 13 13 14 15 18 22 19 15 15 11 9 8 6 5 6 7 11 9 9 11 11 11 12 11 10
36 37 37 37 36 34 30 27 23 21 20 20 18 17 16 15 15 14 14 14 15 16 19 21 20 18 15 14 11 8 7 7 6 6 7 10 9 10 11 12 11 11 11 11
35 35 35 34 33 31 28 24 22 20 20 20 19 17 16 15 15 16 17 17 18 20 20 21 18 16 13 11 9 8 8 7 6 7 8 9 9 10 11 12 13 13 13 13
34 34 33 31 29 26 25 23 22 21 21 19 18 16 15 16 17 18 17 16 19 22 19 19 17 15 13 10 8 9 8 7 7 8 9 10 12 15 16 16 16 16 16 17
33 32 31 29 27 25 24 22 21 20 18 17 16 16 16 17 18 17 16 19 20 20 19 19 20 18 13 8 8 8 8 8 8 9 12 15 16 18 17 16 16 16 17 17
31 30 29 27 24 23 21 21 20 19 18 17 17 17 17 17 18 19 20 21 23 22 21 20 18 15 8 7 8 8 8 9 13 16 15 17 17 17 16 16 15 15 15 16
30 29 28 27 25 22 23 22 21 19 17 17 17 18 18 19 18 18 19 21 23 20 19 20 17 11 7 7 8 8 9 14 17 16 14 16 16 17 16 15 15 15 16 16
27 27 26 25 22 22 20 20 18 17 17 16 17 17 17 18 19 19 19 19 16 15 10 9 8 7 7 7 9 7 8 11 12 12 15 15 16 16 15 14 14 14 14 15
27 25 23 21 20 20 20 19 17 17 16 15 15 16 17 16 15 13 13 9 6 4 3 2 2 6 6 7 6 7 11 12 14 15 15 15 15 15 14 14 14 14 15 14

GFSNGP_sfc_dewp_048.txt.gz
Dewpoint
31 30 28 29 30 31 32 30 28 26 28 31 36 35 35 36 38 38 32 41 41 41 42 45 45 40 35 31 28 24 23 24 23 21 20 20 19 18 20 20 18 17 16 16
27 29 29 29 30 30 31 32 36 36 36 38 36 33 35 38 40 41 38 41 40 41 41 36 33 32 30 27 25 23 25 27 23 20 19 20 19 20 19 18 18 18 16 15
27 29 28 28 31 32 37 38 38 35 36 37 37 36 39 40 41 41 40 40 41 39 31 27 27 26 27 24 26 27 24 23 22 20 20 21 19 18 18 18 17 16 15 14
27 27 24 27 36 37 35 38 39 39 38 38 38 40 42 43 43 39 39 40 38 30 26 24 23 23 23 24 25 26 25 22 21 20 19 19 19 18 18 17 15 14 14 14
27 24 25 29 33 33 34 37 39 38 40 41 41 43 40 41 36 36 34 32 29 25 23 22 23 25 26 26 26 24 25 24 20 19 19 18 16 16 15 15 15 14 15 14
30 25 22 27 33 36 39 35 39 41 40 40 39 39 39 39 31 29 27 26 26 27 27 29 30 28 28 26 26 26 24 22 22 24 19 18 16 16 17 17 16 16 13 12
30 28 27 27 37 40 34 34 39 41 41 38 38 41 41 36 35 36 36 34 33 34 35 36 37 36 34 34 33 33 33 31 26 18 17 16 16 16 16 16 15 13 11 12
30 29 24 34 35 34 36 40 41 42 41 39 39 38 35 32 35 35 36 36 36 36 37 39 39 36 33 30 28 23 18 16 16 17 18 16 15 14 14 14 13 11 12 13
31 29 31 36 36 38 38 37 38 38 42 40 40 38 35 32 31 29 28 26 26 25 23 21 19 15 14 15 16 16 15 15 16 15 15 16 15 15 14 13 11 11 13 13
34 34 34 37 37 38 37 36 36 37 41 42 40 39 35 36 35 34 32 32 31 27 25 24 22 20 18 16 15 15 15 15 15 15 15 15 16 15 13 13 14 14 13 15
34 34 36 37 37 37 36 35 34 34 38 42 39 35 33 34 31 33 31 31 23 19 16 14 14 14 14 15 15 15 15 16 17 16 15 14 14 13 12 18 18 17 18 17
33 36 36 36 37 36 35 33 34 34 37 38 37 36 34 32 28 26 24 19 17 15 14 13 13 14 16 18 17 16 16 17 17 16 15 14 11 13 19 17 16 18 18 17
37 37 37 37 36 34 32 32 32 33 34 34 33 32 30 28 25 25 20 17 16 15 14 14 16 16 17 18 18 18 16 15 15 13 11 10 10 10 8 12 17 17 18 16
38 38 37 37 35 32 31 31 31 30 30 29 28 27 26 25 21 19 17 16 16 16 16 16 16 17 18 19 19 19 19 23 15 14 13 11 10 8 9 8 7 7 13 15
38 38 37 36 33 32 31 29 28 26 26 26 26 25 23 20 17 16 16 16 16 16 16 17 17 18 20 20 18 17 17 15 15 15 14 11 8 9 9 8 8 9 11 14
38 37 36 35 33 32 31 31 27 26 25 24 23 21 19 17 17 16 16 16 16 16 17 17 17 18 19 20 20 19 18 18 15 10 8 7 8 10 9 9 10 11 11 12
37 34 34 33 33 32 30 29 27 26 25 22 19 18 17 17 17 16 16 15 16 16 17 17 17 18 18 17 17 18 16 14 12 8 8 8 10 10 10 11 12 12 12 13
39 38 38 37 34 33 31 29 28 25 21 19 18 17 17 16 15 14 14 15 15 16 16 17 18 18 16 14 13 12 11 10 9 8 8 9 12 12 10 12 12 12 12 12
37 38 40 38 37 35 33 30 25 22 20 19 18 17 16 15 14 14 15 15 15 15 18 20 23 17 14 14 12 10 8 7 6 7 8 11 10 10 12 12 12 12 12 11
36 38 41 39 36 33 30 29 22 20 20 20 18 16 15 14 14 14 15 15 16 18 20 21 17 15 14 13 14 9 8 7 7 7 8 10 9 11 11 13 12 13 13 13
36 36 37 36 34 30 26 22 21 20 19 19 17 16 15 15 16 17 17 18 21 22 23 22 17 15 13 11 11 9 9 7 7 8 9 9 10 12 13 14 15 14 14 14
34 34 33 31 29 26 24 22 21 20 20 18 17 16 16 17 18 18 18 18 21 24 20 18 15 16 13 13 10 9 9 8 8 8 10 11 13 13 14 14 13 16 15 15
33 32 31 29 26 24 23 21 21 20 19 18 16 16 16 17 17 16 16 20 20 22 19 18 20 18 14 9 9 9 8 8 9 11 13 11 12 10 10 11 13 13 12 14
31 30 29 26 24 22 22 21 20 19 18 17 18 18 18 18 19 20 21 23 24 23 21 20 18 14 11 8 9 9 9 9 12 10 13 16 9 10 10 11 11 12 13 14
27 26 26 25 24 22 22 22 20 19 17 18 18 19 19 19 19 20 20 22 25 22 20 21 17 12 7 7 9 9 9 9 6 9 11 9 9 9 9 11 11 12 13 12
27 26 26 25 23 22 21 19 17 17 17 17 18 18 18 19 20 21 21 20 19 21 16 13 9 7 7 7 9 7 8 11 12 12 13 10 10 9 10 11 11 12 13 12
25 25 23 22 22 21 21 19 18 18 18 18 17 18 19 18 19 18 17 11 7 6 5 5 5 7 7 7 6 6 10 11 13 13 9 7 7 7 10 11 11 12 13 13

GFSNGP_sfc_dewp_051.txt.gz
Dewpoint
30 30 31 29 29 29 25 27 27 24 25 27 30 36 38 39 38 38 39 41 43 41 41 44 39 38 34 33 30 28 28 29 27 29 26 23 24 23 21 22 20 19 19 20
26 29 30 29 29 30 30 29 29 28 30 35 38 38 38 40 41 41 41 42 42 40 40 35 34 30 30 34 33 30 26 26 27 23 23 24 21 22 20 18 18 19 19 19
23 28 28 25 29 30 30 33 32 33 36 40 40 39 40 41 41 40 40 42 40 30 28 26 26 27 28 30 29 27 25 22 21 21 23 25 24 22 18 17 16 17 17 15
24 27 22 27 32 34 33 36 39 39 39 40 40 41 40 35 36 35 34 36 29 26 25 24 25 25 26 27 25 24 22 24 26 28 28 25 20 20 21 21 21 17 15 15
26 26 25 29 34 33 33 35 40 39 38 41 40 42 39 32 28 27 26 25 25 24 24 25 26 26 27 28 26 26 25 25 29 28 23 22 21 19 16 15 16 15 16 14
29 22 21 30 34 37 39 35 40 40 41 40 39 39 38 36 29 27 26 26 26 26 27 28 28 29 30 29 31 32 32 31 26 26 27 28 27 27 25 19 16 16 13 13
26 26 27 29 35 40 31 31 38 41 43 39 39 39 36 36 34 33 32 33 34 34 33 33 33 33 32 33 33 34 33 33 33 33 32 29 25 20 17 16 15 12 11 13
30 28 21 31 38 34 35 38 40 41 41 39 38 33 35 35 36 36 34 35 35 35 34 36 36 35 34 33 33 34 33 33 31 26 21 18 17 15 14 14 12 12 13 14
29 27 29 33 35 38 37 37 37 39 41 39 37 32 30 30 33 35 36 35 35 34 35 36 36 35 33 32 32 28 22 20 20 19 16 15 14 14 13 13 13 12 14 14
33 34 33 34 37 37 37 36 35 37 41 42 38 35 33 31 29 29 28 26 27 25 23 19 18 17 17 17 17 19 20 20 16 15 15 15 17 14 14 14 14 14 15 15
33 35 36 36 37 37 35 34 34 34 39 41 39 36 35 35 32 31 30 28 27 26 24 20 20 19 20 19 17 15 15 16 17 17 14 13 13 13 17 18 15 14 18 17
34 36 36 36 37 36 34 33 34 36 38 39 35 36 35 36 34 31 25 21 19 17 15 15 15 15 17 17 17 16 16 16 17 16 14 12 11 11 20 19 19 18 18 17
36 37 37 37 34 34 32 32 33 35 37 36 36 34 33 26 21 24 19 18 17 16 15 15 17 18 18 18 18 18 16 16 17 13 10 10 9 8 8 12 18 18 17 18
38 38 37 36 34 31 31 32 32 30 31 31 31 31 31 28 25 25 21 17 16 16 17 18 18 18 19 19 18 18 19 21 15 14 12 10 9 9 9 8 7 8 15 18
38 38 37 34 32 31 30 29 28 27 26 26 26 25 23 25 22 18 17 16 17 17 18 18 18 19 20 19 18 16 15 15 14 13 12 11 9 10 9 8 9 10 11 14
37 36 35 33 32 31 29 28 26 26 26 24 22 20 19 18 17 17 17 17 17 17 18 19 18 19 20 19 18 17 17 19 14 9 8 8 10 10 9 10 11 11 12 12
38 36 33 31 31 31 30 28 26 25 24 21 19 18 18 17 17 17 17 18 18 18 18 18 19 20 20 19 17 16 14 13 15 9 8 10 11 11 10 11 12 12 12 13
39 39 38 36 33 31 30 28 26 24 21 19 19 18 17 16 15 16 16 17 16 17 17 17 18 16 15 14 13 12 11 9 9 8 8 10 12 10 11 12 12 12 12 12
37 38 38 36 33 32 30 28 25 21 21 20 18 17 16 15 16 16 15 15 15 15 17 20 21 15 13 16 12 10 9 8 7 7 9 12 10 11 12 12 12 12 13 13
36 40 39 37 36 34 33 29 22 19 19 19 17 16 15 15 16 15 15 15 16 18 20 18 14 13 13 15 15 9 8 7 7 8 10 9 10 11 12 15 15 14 14 14
35 38 40 36 33 32 31 27 22 19 20 19 17 16 15 15 16 16 16 16 20 22 20 18 13 13 13 14 11 9 8 7 7 8 9 10 11 13 14 15 15 14 14 15
35 34 34 32 28 25 23 22 21 20 19 18 17 16 16 17 18 18 19 18 22 25 19 16 13 15 14 15 10 9 8 8 8 9 10 12 12 12 11 11 11 14 15 13
32 32 30 28 26 23 22 22 21 20 19 18 16 16 16 17 17 17 18 21 22 22 16 16 19 18 17 9 9 9 8 8 9 12 12 9 10 7 8 9 11 12 11 12
30 30 29 26 23 22 23 24 24 21 19 17 17 18 18 17 19 19 22 24 24 22 19 19 18 18 13 9 9 8 8 10 10 8 11 14 7 7 7 9 10 11 11 13
27 26 24 24 23 22 23 22 22 20 18 18 18 19 20 20 19 21 21 22 25 22 20 20 18 16 8 8 9 8 9 8 4 6 9 6 6 5 7 9 9 10 11 10
27 26 25 24 23 22 21 19 18 18 18 18 18 19 20 20 21 21 22 24 22 22 18 14 10 8 7 7 8 7 7 10 11 11 11 8 7 6 8 9 9 10 11 10
25 25 23 22 22 21 20 19 18 18 19 18 18 19 20 21 21 21 22 20 17 13 9 10 10 8 7 7 5 5 9 9 12 11 8 5 5 5 8 9 9 10 11 11

GFSNGP_sfc_dewp_054.txt.gz
Dewpoint
29 30 30 29 27 28 26 27 22 23 24 25 26 28 34 40 41 41 41 42 42 43 45 43 36 32 32 33 35 36 35 33 31 30 30 27 26 25 25 23 21 22 23 26
25 28 30 29 30 29 29 27 27 27 27 28 30 40 40 40 40 40 38 39 42 41 39 33 29 31 34 35 35 37 35 32 30 28 28 28 26 26 24 26 27 28 30 30
22 27 28 25 29 29 29 30 29 28 29 33 39 40 39 35 35 34 32 40 34 26 25 27 28 30 31 32 34 32 30 29 29 27 25 26 26 27 28 28 28 28 24 22
24 26 21 25 32 32 30 30 32 34 38 39 40 39 33 32 29 29 28 27 27 25 25 28 30 32 33 33 33 32 31 31 30 30 31 31 30 29 30 31 29 29 28 27
26 25 24 29 35 33 33 33 38 39 39 39 41 40 36 36 27 25 24 27 25 26 26 27 27 28 29 30 31 32 31 31 32 32 31 30 30 29 25 22 24 24 20 17
29 21 20 28 33 38 38 32 38 40 39 41 39 39 39 36 30 27 26 27 27 27 28 29 30 29 29 30 30 31 32 33 33 33 32 31 30 31 32 32 29 25 20 15
28 26 26 28 30 39 28 29 38 40 40 39 38 39 37 35 32 32 34 34 33 32 32 32 32 32 34 33 32 33 34 33 33 34 33 33 33 32 30 27 21 14 13 13
29 27 22 30 38 34 34 38 39 40 41 38 35 35 36 35 34 34 34 35 35 34 34 36 35 35 33 32 33 33 34 34 34 33 34 33 31 27 20 15 12 13 14 15
28 27 29 31 34 37 37 37 37 37 39 38 34 34 35 35 36 35 34 34 36 35 35 35 36 34 32 33 34 33 33 31 30 26 20 16 14 13 12 13 13 12 14 14
32 34 33 33 34 37 37 36 35 36 39 38 33 32 31 32 34 35 35 35 36 34 32 30 31 33 33 32 28 24 23 21 17 15 15 15 16 14 14 13 12 13 14 14
33 34 35 37 37 37 36 34 34 34 40 39 33 32 31 31 30 29 28 26 24 21 20 19 20 21 20 20 24 24 17 17 18 17 13 13 14 15 16 15 13 13 16 16
33 36 36 36 37 36 35 33 33 37 39 39 37 34 32 32 30 29 28 27 24 20 19 19 19 19 18 18 19 16 16 16 17 15 12 13 13 13 22 20 19 18 20 18
35 37 37 37 36 34 33 32 34 38 38 36 37 36 35 33 31 27 23 21 19 18 17 17 17 18 19 19 18 18 16 16 17 11 10 9 7 7 7 11 16 19 19 19
38 38 37 36 35 32 32 33 33 33 36 36 35 34 30 32 28 24 23 19 18 18 19 19 19 19 19 18 18 17 18 20 13 11 10 8 8 9 9 7 7 9 15 18
37 38 36 34 31 31 30 30 30 29 29 30 31 31 29 27 30 24 18 17 18 19 19 19 19 19 19 19 18 17 16 14 13 12 11 11 10 10 9 9 10 11 12 14
38 36 34 33 32 30 29 29 27 26 26 25 24 26 28 29 26 19 18 18 18 18 19 19 19 19 19 17 15 14 15 17 13 9 9 10 11 10 10 11 11 12 12 12
37 37 36 34 32 31 29 28 27 26 23 21 20 21 22 22 20 18 18 19 19 19 19 19 19 20 18 17 16 16 15 14 14 8 9 11 12 10 10 12 12 12 12 13
36 37 38 37 34 31 30 28 27 24 22 20 20 22 23 22 18 18 18 18 18 18 18 19 19 18 17 15 13 11 10 9 9 8 10 12 10 10 11 12 12 12 12 13
36 37 38 38 35 32 30 27 25 22 21 21 23 23 21 19 18 18 17 16 16 16 17 18 22 15 12 14 12 9 9 8 7 8 11 12 10 11 11 13 14 14 14 14
35 39 37 35 33 31 29 25 23 23 24 25 19 17 16 17 17 16 16 15 16 17 19 19 14 14 15 16 15 9 7 7 7 8 11 9 11 12 14 15 15 15 14 14
36 37 40 37 34 33 31 28 27 24 22 19 18 16 16 16 16 16 16 15 19 22 18 18 13 13 14 15 11 9 7 7 7 8 9 10 12 13 14 14 14 14 14 14
34 34 35 33 33 31 29 28 21 20 19 19 18 17 16 16 17 18 18 17 21 24 18 14 13 16 15 16 9 8 8 8 8 9 11 12 13 11 9 10 9 14 14 12
32 32 32 31 27 25 26 24 22 20 19 18 17 16 16 16 17 17 17 21 23 22 15 13 17 20 19 9 9 8 8 8 9 12 11 8 9 6 6 7 9 10 9 11
29 29 29 26 23 23 23 26 27 25 22 18 18 18 18 17 18 20 22 25 25 22 15 17 20 21 15 9 9 8 8 9 10 7 9 14 5 5 6 7 8 9 10 12
28 27 25 24 23 23 24 25 24 21 18 18 19 19 19 19 18 21 23 23 25 20 20 23 22 18 8 8 8 7 8 7 3 5 8 5 5 4 5 7 7 8 10 9
26 27 26 24 24 23 22 21 20 19 18 18 19 20 20 21 21 21 22 24 22 22 18 17 14 9 7 8 8 7 7 9 11 10 10 7 5 4 5 7 8 8 10 9
26 28 25 23 23 22 21 20 19 19 20 18 18 19 21 21 22 23 24 22 21 17 12 10 11 9 7 8 6 5 8 9 12 10 7 4 4 3 6 7 7 8 9 10

GFSNGP_sfc_dewp_057.txt.gz
Dewpoint
27 29 29 27 27 29 25 26 19 22 24 24 26 27 28 40 40 38 39 37 37 42 44 37 34 34 35 35 36 35 34 35 37 37 35 33 31 29 26 24 22 23 25 28
24 28 29 28 29 28 29 29 28 28 27 29 29 29 39 39 35 36 34 30 38 32 31 29 31 32 33 33 33 32 31 30 31 29 28 27 27 26 27 28 30 31 32 33
20 26 27 24 28 29 29 29 28 27 28 29 33 39 40 35 33 31 31 28 26 26 27 29 31 31 32 31 30 30 29 29 27 28 29 29 29 30 31 32 33 33 32 32
25 25 22 24 29 31 29 29 30 30 30 32 39 40 34 33 29 27 26 28 27 27 29 32 33 32 32 33 33 33 32 32 33 33 32 32 32 32 32 33 32 32 32 32
27 24 24 28 34 30 30 32 32 31 33 40 41 39 38 35 27 25 24 26 27 27 28 30 31 32 33 33 34 34 33 33 34 33 33 33 32 32 32 32 32 32 32 30
29 22 19 24 34 37 36 31 36 38 39 39 39 38 39 33 29 27 28 27 28 30 30 30 30 30 30 31 32 33 33 34 33 33 33 32 32 32 32 33 32 31 28 26
26 25 24 27 29 39 28 28 37 38 39 41 39 38 36 32 32 34 33 32 33 33 33 34 34 33 33 33 31 33 34 34 34 34 33 33 32 32 32 32 30 25 16 16
31 27 21 29 37 33 33 37 38 39 40 40 37 36 35 33 33 34 34 34 35 35 35 35 35 33 33 31 33 33 33 33 33 33 35 34 32 31 29 21 16 15 15 15
27 26 28 31 34 35 38 37 37 38 39 37 35 35 35 35 35 33 33 33 35 35 35 36 35 34 32 33 35 34 33 33 33 32 28 20 16 14 13 13 13 13 14 13
31 32 32 32 34 35 37 36 35 35 40 36 34 35 34 36 35 34 34 33 35 34 33 33 34 34 34 34 32 30 29 23 16 15 15 14 15 14 13 12 12 12 12 13
32 33 34 35 37 37 36 35 34 34 39 36 34 33 33 33 32 34 33 33 28 27 24 28 32 31 28 26 25 19 16 17 17 15 13 14 15 13 13 13 12 13 15 15
31 35 36 36 37 37 36 34 33 35 39 37 34 33 33 33 30 29 26 25 23 23 22 22 22 20 21 23 20 17 16 16 15 14 15 16 17 17 23 22 20 21 22 19
35 36 37 37 37 35 34 33 34 37 40 38 36 34 33 33 30 31 28 24 21 21 20 19 19 18 19 19 18 17 16 16 16 11 8 7 6 7 6 11 19 21 21 20
38 39 37 36 36 33 32 33 35 36 37 37 38 35 34 32 31 25 24 21 19 19 19 20 19 19 18 18 18 17 17 19 11 9 8 8 8 9 8 7 8 10 15 18
38 37 36 35 32 31 31 30 32 33 34 33 35 33 34 33 29 27 25 19 19 20 20 20 19 18 19 18 18 17 15 13 11 10 10 11 10 9 9 10 10 11 12 14
36 38 36 34 33 31 29 30 29 29 30 29 31 31 30 31 29 23 19 20 20 20 20 19 18 19 19 17 16 14 15 17 14 10 10 10 10 9 10 11 11 11 11 12
35 34 37 36 35 32 30 29 29 27 26 25 26 29 29 29 27 23 21 23 21 20 20 19 19 18 17 16 15 16 15 14 14 8 10 11 10 9 11 11 11 11 12 13
35 35 36 37 37 35 31 29 28 26 24 23 23 25 26 26 24 22 23 20 19 19 19 19 19 18 16 16 15 14 13 10 8 8 11 12 10 11 11 12 12 13 13 14
36 35 36 37 38 36 32 29 27 24 22 22 24 26 26 26 25 23 19 18 17 17 17 19 23 18 14 15 12 10 9 8 7 9 12 12 11 11 12 14 14 14 14 14
35 35 38 35 34 31 29 27 24 23 23 25 26 26 25 25 24 19 18 17 17 17 18 21 15 13 13 17 15 9 7 7 6 9 9 9 11 12 13 15 15 14 14 14
34 34 39 37 33 30 26 25 26 26 27 27 26 25 23 20 18 17 16 15 17 21 19 20 14 14 15 16 12 8 7 6 7 8 9 9 11 13 13 14 14 14 14 14
33 33 34 33 33 31 30 30 28 27 26 24 20 18 17 17 17 18 17 16 21 24 19 14 14 17 16 18 8 7 7 7 7 8 10 12 12 12 10 9 9 13 13 11
31 30 32 34 30 30 28 26 21 20 20 19 18 17 17 17 17 16 16 20 21 22 14 13 17 21 21 9 8 8 7 7 8 10 10 8 9 6 6 6 8 10 8 9
29 28 27 27 29 27 26 28 28 27 21 19 18 18 18 17 18 19 21 24 25 22 14 14 19 22 21 9 8 8 7 8 10 7 9 14 5 4 5 7 7 8 8 11
28 28 26 25 24 24 25 26 26 25 24 23 20 19 19 19 18 21 22 24 26 20 16 21 24 24 10 8 7 7 8 8 3 5 8 6 5 4 6 7 7 7 8 8
27 27 26 25 24 24 23 24 23 21 19 19 20 20 20 21 22 23 23 24 23 20 19 21 20 15 8 7 7 7 8 9 11 10 10 7 6 5 6 7 7 7 9 8
28 29 26 26 24 23 22 22 21 19 21 19 19 20 20 21 22 22 24 23 21 19 17 16 17 12 7 8 8 5 8 9 12 11 9 4 3 3 7 7 7 8 8 9

GFSNGP_sfc_dewp_060.txt.gz
Dewpoint
26 28 28 27 28 28 23 24 20 21 22 24 25 27 28 31 38 36 34 30 29 32 32 32 33 33 34 34 34 34 35 36 36 36 36 35 33 32 32 32 30 27 27 29
24 27 29 28 29 29 29 28 27 27 27 29 29 29 30 39 35 34 32 29 27 27 30 31 32 32 31 31 31 30 30 30 30 30 31 33 32 32 34 32 30 32 33 35
19 26 27 24 28 29 29 29 29 26 28 28 30 33 40 36 32 30 28 29 27 28 30 31 31 31 32 31 31 31 29 29 30 31 32 33 33 33 33 33 33 34 35 35
25 25 20 23 28 30 29 29 30 29 29 30 31 40 35 33 29 27 25 27 27 28 31 33 33 33 34 35 34 33 32 32 32 33 33 33 33 33 34 34 33 33 34 34
25 24 24 28 32 30 29 31 31 30 30 31 39 40 37 31 27 25 26 27 28 29 29 31 32 33 33 33 34 34 34 34 34 33 33 33 33 33 34 33 33 32 32 33
28 22 19 22 33 34 36 34 35 34 33 38 40 37 38 33 28 29 28 28 30 30 30 30 31 32 32 33 34 33 34 34 34 34 33 33 33 32 32 32 32 31 31 32
26 26 22 26 30 36 31 29 36 38 38 40 39 38 36 31 33 33 32 32 34 34 34 34 34 33 33 33 32 34 34 35 34 34 33 33 32 32 32 32 30 26 22 20
30 26 21 27 36 33 34 36 38 37 38 41 37 36 35 33 33 34 34 34 35 35 35 35 34 34 33 32 33 34 34 33 33 33 34 33 32 31 28 22 18 16 15 14
28 26 27 30 34 35 36 36 36 36 37 39 36 36 35 34 34 33 32 33 35 36 35 35 34 34 32 33 35 34 34 33 34 33 28 21 18 14 13 14 14 13 13 12
30 31 31 31 32 33 36 37 36 35 37 37 36 36 36 35 33 33 32 33 34 35 34 33 34 35 35 35 34 33 30 22 16 15 14 14 15 13 12 12 12 12 11 13
31 33 34 36 36 37 37 36 34 34 38 37 36 35 35 35 34 33 34 34 33 31 32 33 33 32 32 30 24 18 17 17 16 15 14 14 12 10 11 10 12 12 14 14
30 33 35 35 37 37 36 35 34 34 37 37 35 34 35 34 34 32 31 26 26 26 28 30 27 24 25 23 19 17 15 14 15 16 17 18 18 19 24 23 24 23 23 19
33 35 36 37 38 36 35 35 34 34 37 38 35 34 34 32 31 30 27 25 26 27 25 24 22 21 22 20 18 17 15 15 15 11 8 8 8 8 7 13 21 21 21 20
38 38 38 37 36 35 34 33 35 35 37 37 35 37 36 32 34 30 27 25 23 22 22 21 20 19 20 18 17 17 17 18 10 8 8 8 8 8 7 7 8 9 15 18
34 36 37 36 33 32 32 31 32 34 34 34 36 35 34 33 32 31 24 21 20 21 21 20 19 18 19 18 17 18 15 12 10 9 10 11 9 9 9 10 10 10 11 13
35 36 37 36 35 33 31 30 30 31 32 32 32 34 34 34 32 29 26 22 20 20 21 20 19 18 19 18 16 14 13 16 14 12 10 10 9 9 10 10 11 11 11 11
34 35 35 35 36 35 32 31 30 30 30 30 31 30 31 30 29 27 25 24 23 22 21 20 19 19 18 16 15 16 16 15 14 9 9 10 9 9 10 11 11 11 12 13
35 35 35 35 35 35 36 33 30 29 28 28 29 30 29 29 29 28 27 25 23 20 20 19 18 18 16 16 15 15 13 11 8 9 12 11 9 10 11 11 12 13 13 14
35 35 35 36 36 36 37 34 30 28 25 25 27 28 29 29 28 27 28 26 26 22 18 19 23 18 15 17 15 12 10 8 7 10 11 14 11 11 12 14 14 14 14 14
35 34 35 38 33 33 33 29 26 23 23 25 26 27 27 27 27 27 28 27 26 22 19 22 18 14 14 20 17 9 7 6 6 9 9 8 10 11 13 14 15 14 13 13
34 34 34 35 32 28 26 25 25 25 26 27 27 27 27 27 27 28 27 26 21 22 21 24 15 13 16 18 12 7 7 6 6 9 11 9 10 12 13 13 13 13 13 14
33 32 32 34 34 31 29 28 28 28 28 27 27 26 26 24 26 25 19 19 20 25 22 16 15 17 17 20 8 7 6 6 6 7 8 10 11 11 10 9 9 12 12 11
30 30 31 31 33 31 29 27 27 28 27 26 25 24 22 20 18 17 17 19 22 24 16 15 18 22 22 10 8 7 6 6 7 8 10 8 9 6 6 7 8 10 8 9
29 28 27 26 28 31 28 29 26 23 22 20 19 19 18 18 18 18 20 24 25 24 15 16 21 24 23 8 7 7 7 7 8 7 9 14 6 5 5 7 7 9 8 10
28 28 27 27 25 24 25 28 28 28 26 23 19 19 19 19 18 20 22 23 26 21 15 22 24 24 12 8 7 7 7 8 6 8 8 6 5 5 7 7 7 8 7 8
27 28 27 27 24 24 23 24 24 23 24 24 25 25 24 23 21 22 23 24 24 20 15 19 21 19 10 7 7 6 7 9 12 12 11 9 7 8 8 7 7 7 8 8
25 26 26 25 27 26 24 23 22 22 22 21 21 22 22 21 23 24 25 23 23 19 17 21 22 17 9 8 8 6 8 9 12 11 9 8 8 7 7 7 7 8 8 8

GFSNGP_sfc_dewp_063.txt.gz
Dewpoint
26 29 28 27 29 26 23 24 23 22 22 23 24 26 28 30 37 36 33 31 29 29 32 32 33 31 31 31 31 32 31 32 34 34 33 32 32 32 32 31 30 31 31 32
25 28 29 28 28 29 27 27 25 25 26 28 29 29 30 37 36 34 31 30 29 28 30 31 31 31 31 32 31 30 31 31 32 32 33 34 34 34 34 35 36 35 36 36
21 27 28 25 28 28 29 29 29 27 28 29 29 31 39 37 34 30 27 29 28 29 32 32 32 33 33 33 32 32 32 31 32 33 33 34 34 35 35 35 36 36 36 36
24 25 21 22 28 30 29 29 30 30 30 30 30 38 35 33 30 27 27 27 27 29 32 32 33 34 34 34 34 34 34 33 33 33 33 34 34 33 33 34 34 33 32 33
24 24 22 30 31 29 29 32 30 30 30 31 34 40 38 30 27 25 27 28 29 30 30 31 32 33 34 34 34 34 34 34 34 34 34 34 33 33 34 33 32 32 33 34
25 20 18 22 33 34 34 34 36 32 34 35 40 38 39 31 28 28 29 29 30 30 31 32 33 33 34 34 34 33 34 34 35 35 34 33 33 32 32 32 32 33 32 33
26 22 23 25 29 32 31 33 36 38 38 39 39 39 35 31 32 32 32 33 34 34 34 33 33 34 33 33 33 34 35 35 34 34 34 34 33 33 32 31 30 27 26 23
29 24 19 27 33 34 35 35 36 37 39 41 38 35 32 33 33 34 34 34 35 34 35 34 34 34 33 32 34 34 34 34 33 34 35 34 32 28 24 21 18 15 14 14
26 25 28 30 33 35 34 33 35 37 37 40 37 36 34 33 34 32 32 34 35 34 34 34 34 34 34 34 36 35 34 34 32 28 23 19 14 14 14 14 14 12 10 12
30 31 30 31 32 33 35 37 36 35 36 38 37 36 35 34 33 32 32 32 34 34 34 33 35 35 35 35 34 32 28 18 15 14 14 14 14 12 12 12 11 9 10 13
30 32 34 36 36 38 38 37 36 34 36 38 36 36 35 34 33 33 33 33 34 34 34 32 34 34 34 32 26 18 16 16 16 14 11 11 11 10 10 10 12 11 14 14
30 33 34 34 36 38 38 37 36 34 36 38 36 36 36 35 34 34 34 32 30 33 33 33 32 31 29 22 19 17 14 14 16 17 18 20 20 20 25 25 24 24 23 19
34 37 35 36 37 37 36 36 35 34 35 38 35 35 36 35 34 35 30 28 29 30 31 29 27 27 24 20 18 16 15 15 17 14 14 16 14 12 15 17 22 22 21 20
36 36 36 37 36 36 34 33 35 36 37 38 35 35 34 34 35 32 30 28 29 28 27 25 24 23 22 19 17 17 16 19 10 8 7 8 7 6 6 6 7 9 15 18
34 34 35 36 36 34 32 32 32 34 35 36 36 36 35 33 33 31 29 26 27 27 25 24 21 20 21 19 17 17 16 12 9 9 10 10 8 8 9 9 9 10 11 13
33 34 36 36 37 36 33 32 31 32 33 34 35 35 35 34 34 33 29 25 24 25 24 21 20 19 20 18 17 15 13 15 13 13 12 9 8 9 9 10 10 10 11 11
33 33 35 34 36 36 36 34 32 32 32 33 33 33 34 33 32 30 26 24 25 24 23 21 20 19 19 18 15 15 16 17 16 9 9 8 8 9 10 10 11 11 12 13
33 34 35 35 35 34 34 36 36 32 31 32 33 33 32 31 31 30 29 28 26 22 21 21 19 19 17 16 16 16 15 13 9 9 11 10 9 10 10 11 12 13 13 13
35 35 34 34 36 37 37 36 36 33 30 30 30 31 31 31 31 30 30 29 27 25 22 20 24 20 16 17 17 14 12 8 7 10 11 14 12 10 11 13 13 14 13 13
34 35 34 35 35 30 31 34 33 28 26 28 29 29 29 29 29 29 29 29 28 30 26 23 22 16 16 20 19 11 8 6 7 10 10 9 9 10 11 14 15 14 13 12
33 33 33 34 35 31 27 25 24 24 26 27 27 28 28 28 29 29 29 28 29 31 29 29 17 15 18 21 15 8 7 6 6 8 10 10 9 13 12 13 13 13 12 12
31 31 31 33 34 33 32 28 28 28 28 28 29 28 28 27 28 29 30 30 28 32 29 23 16 18 19 22 8 7 7 5 5 7 8 8 10 11 13 13 13 13 13 13
31 30 29 29 30 32 32 30 29 30 28 28 28 27 27 27 28 26 25 26 29 31 22 17 19 23 25 10 7 7 6 6 6 6 9 11 12 13 13 12 12 12 13 12
28 29 29 28 26 26 28 29 28 25 25 26 26 26 24 23 23 20 21 24 26 26 18 18 23 25 25 8 7 7 6 6 8 10 10 14 12 12 11 11 11 11 11 12
27 28 28 27 26 25 24 26 28 29 28 25 23 20 20 20 20 19 22 24 27 24 18 24 26 26 14 8 7 6 7 10 10 10 11 13 13 12 11 11 11 11 11 11
25 26 26 26 26 26 25 23 24 24 24 26 26 26 25 26 22 22 22 24 25 22 16 21 23 22 13 8 7 7 7 9 12 14 13 12 12 11 11 11 11 10 10 10
22 20 21 20 24 25 27 28 25 23 22 22 22 24 25 26 26 24 23 24 24 20 15 20 23 20 13 10 8 6 9 10 13 14 15 14 13 12 12 11 10 10 10 10

GFSNGP_sfc_dewp_066.txt.gz
Dewpoint
26 28 28 29 30 28 30 29 31 21 21 21 23 27 31 33 37 38 35 34 33 33 34 34 33 32 32 32 33 34 34 36 36 35 34 33 33 33 33 32 32 32 32 32
28 28 28 29 29 29 28 27 26 25 25 26 28 29 30 38 38 36 33 32 31 31 32 32 33 32 33 33 32 33 34 34 34 34 35 35 35 36 36 37 36 36 37 37
27 27 27 27 28 29 29 29 28 27 27 28 28 29 34 38 37 34 30 31 30 31 32 33 33 33 33 32 33 33 32 33 33 34 34 35 35 35 35 35 35 35 36 37
26 25 20 24 28 30 29 28 30 29 29 29 30 31 37 36 35 31 29 30 30 31 32 33 34 34 34 34 34 34 33 33 34 34 34 34 35 34 33 34 33 33 32 32
25 23 23 31 30 29 30 34 31 29 30 31 32 39 39 33 30 28 28 29 30 31 32 33 33 34 34 34 34 34 34 34 34 34 35 35 34 34 34 34 33 33 33 33
29 22 18 27 34 35 33 35 36 32 33 36 39 38 40 33 28 28 29 30 30 30 31 32 33 34 34 34 34 34 35 35 36 35 35 34 34 34 33 34 33 34 33 34
25 25 22 25 27 31 31 35 37 36 36 38 38 38 37 30 30 31 31 32 33 33 32 33 34 34 34 34 34 36 36 36 36 36 35 34 33 33 33 33 32 30 28 26
27 24 22 28 34 32 36 36 34 36 37 39 40 35 33 33 33 32 33 33 33 34 34 34 35 35 35 34 35 35 35 34 35 35 35 34 31 29 25 23 20 18 17 16
25 25 28 30 33 34 34 33 35 37 37 39 39 35 34 33 34 33 33 33 33 32 33 33 34 36 34 35 36 36 35 34 33 31 22 15 14 14 14 13 12 10 9 11
30 30 30 30 33 35 35 37 37 37 36 39 38 37 35 34 34 33 33 33 33 33 33 33 35 36 36 36 35 33 29 25 18 14 13 13 14 13 12 10 7 7 8 12
31 32 33 35 36 37 38 38 37 36 35 37 38 37 35 35 34 33 32 33 33 34 33 34 36 36 35 34 32 26 18 15 15 14 9 9 10 8 7 11 12 10 15 14
26 30 33 33 36 38 38 39 40 37 35 39 38 38 36 35 34 34 33 34 34 34 33 33 34 34 33 29 26 17 14 14 14 14 15 18 19 20 26 25 25 24 22 19
33 37 37 37 38 37 37 36 36 35 35 38 38 38 37 35 34 35 34 33 34 34 34 34 33 33 30 27 20 16 14 15 16 15 16 17 15 15 19 21 22 22 21 20
36 36 36 37 37 36 36 35 35 36 36 37 38 37 37 36 35 35 33 32 34 34 34 33 32 32 27 23 18 17 16 20 14 13 13 11 6 5 4 4 4 7 14 17
35 34 35 35 35 36 36 33 33 34 36 38 37 36 36 36 36 35 33 31 32 33 32 32 31 30 24 20 17 16 17 14 11 10 9 9 7 6 7 7 7 7 9 11
33 33 35 36 36 36 37 35 32 33 33 36 37 36 36 36 36 33 31 29 31 31 31 30 30 27 23 20 18 17 15 15 12 8 11 7 7 7 7 7 7 8 9 10
32 33 34 34 35 35 35 36 36 35 33 34 36 37 37 36 34 33 31 29 30 32 30 30 28 22 22 19 18 16 14 15 15 10 7 7 6 6 7 8 9 9 10 11
32 33 34 34 35 35 35 36 36 37 35 33 34 35 35 34 34 33 31 29 30 29 28 26 23 21 21 19 17 15 16 15 13 8 8 8 6 7 8 8 10 10 11 11
35 35 35 34 34 35 37 37 37 37 38 35 33 34 34 34 34 33 30 29 29 28 26 26 27 23 19 19 18 16 15 13 7 7 9 10 11 8 9 10 11 12 12 11
33 34 34 34 35 34 29 28 30 34 36 32 32 32 32 32 32 31 31 30 30 30 30 30 28 20 18 20 21 15 12 8 6 7 9 11 9 7 8 12 13 12 12 11
33 34 33 33 34 35 33 28 26 26 27 29 30 30 31 31 31 31 30 30 31 32 31 31 29 20 17 22 20 13 10 6 5 7 8 10 6 8 9 10 11 11 11 11
32 32 31 32 32 33 34 33 30 28 27 27 28 29 28 29 29 30 31 31 31 35 32 31 29 26 19 25 15 11 8 6 5 6 7 9 8 9 12 14 16 15 14 15
31 31 32 31 31 32 33 33 31 32 31 29 29 29 28 28 29 28 27 29 31 33 31 30 30 30 25 21 11 9 7 6 5 5 8 13 14 16 16 16 17 16 17 17
27 29 29 29 30 30 28 28 31 30 25 28 30 31 30 28 28 30 27 32 32 33 29 29 31 28 27 14 9 8 7 6 8 12 9 14 17 17 16 16 16 16 15 15
26 27 26 27 27 27 27 27 26 28 30 30 29 26 27 28 28 28 27 29 33 32 28 31 30 27 23 12 8 7 7 12 18 15 11 16 17 17 16 16 16 15 16 16
20 20 19 20 25 25 27 28 26 24 24 24 27 27 24 24 22 21 21 24 26 29 20 22 24 25 19 11 8 7 7 9 11 12 13 15 16 16 16 15 15 15 15 15
18 17 17 15 18 22 25 28 27 27 26 23 22 23 27 28 28 27 23 24 25 24 18 21 24 25 19 13 9 7 8 10 14 15 17 17 16 17 15 15 16 15 15 14

GFSNGP_sfc_dewp_069.txt.gz
Dewpoint
26 27 27 29 30 29 31 29 32 20 19 20 23 24 27 33 36 39 37 36 35 36 36 35 34 34 34 34 35 35 36 37 37 37 36 35 35 35 34 34 33 33 33 34
30 27 27 29 28 29 28 27 25 24 23 24 24 29 31 34 39 38 36 34 33 34 34 34 34 34 34 34 34 34 35 35 36 36 36 36 36 36 36 37 37 37 38 38
27 27 27 27 28 28 29 28 27 26 26 28 28 29 31 36 38 37 34 34 33 33 34 34 34 34 34 34 34 34 33 34 35 35 35 35 35 35 35 35 36 35 35 34
25 25 22 25 28 29 28 28 29 28 28 28 30 31 34 36 38 35 32 32 32 33 34 34 35 35 34 34 34 34 33 34 35 35 35 36 35 34 34 34 34 34 33 33
25 22 23 29 29 28 29 32 30 29 29 31 34 38 38 37 35 32 31 31 32 33 33 34 34 35 35 34 35 35 34 34 35 35 35 35 34 34 35 34 33 33 34 33
28 24 18 30 35 34 33 34 34 32 33 35 38 36 40 35 30 29 30 32 32 32 32 33 34 34 34 34 34 35 35 35 35 35 33 34 34 33 33 34 34 33 35 33
25 24 23 27 29 31 31 35 36 34 35 35 36 38 37 32 30 31 32 32 32 32 32 33 34 35 35 35 34 36 36 36 35 36 34 34 34 34 35 34 33 31 28 28
25 23 22 34 34 28 36 36 36 37 37 38 39 36 34 33 32 32 32 33 33 33 34 34 34 35 35 34 36 36 36 35 35 35 34 34 34 31 27 25 21 18 17 18
25 25 30 30 33 32 33 35 36 37 38 38 39 36 35 34 34 34 33 33 34 33 33 33 33 35 34 35 36 36 35 35 34 32 25 18 16 16 14 13 11 9 11 13
29 28 29 29 32 37 35 37 38 38 36 37 38 38 36 35 34 34 33 33 33 32 32 32 33 35 36 36 35 34 32 30 21 14 14 14 16 13 11 9 8 10 11 14
29 30 32 33 34 38 37 38 38 37 37 36 38 38 36 35 35 33 33 33 33 32 32 32 33 35 35 35 33 30 22 16 15 15 12 10 11 11 8 16 19 13 17 15
26 30 30 34 37 37 37 38 39 39 38 37 38 39 37 36 35 34 33 33 33 34 33 33 36 35 34 34 31 21 15 16 15 14 14 19 20 21 27 26 25 24 23 21
29 36 35 37 38 38 37 38 37 36 37 36 38 39 38 36 35 35 34 34 35 34 34 35 34 34 34 31 25 18 15 16 16 15 16 16 16 19 21 22 23 22 20 21
36 36 35 36 36 36 36 36 36 35 36 36 38 38 38 37 36 35 35 34 35 34 34 35 34 34 32 29 20 19 19 22 17 16 17 15 10 9 8 8 6 9 16 18
35 36 35 35 35 36 37 36 35 35 35 36 39 38 38 38 36 36 35 33 35 35 35 34 34 33 31 25 20 18 18 18 16 16 14 12 9 8 7 7 6 6 9 14
35 35 34 34 35 36 36 36 35 35 35 34 37 38 37 38 38 37 34 32 33 34 34 34 34 32 27 22 20 19 18 19 16 12 12 9 8 8 7 7 6 7 8 9
32 34 35 35 34 34 34 35 36 36 36 35 35 38 38 37 37 36 34 31 32 33 33 33 33 30 25 22 20 19 17 17 17 12 11 8 8 7 7 8 8 9 9 10
32 33 33 34 34 34 35 35 36 37 37 37 36 36 37 37 36 35 34 32 31 33 32 32 32 27 25 22 20 18 17 17 16 12 10 9 8 8 8 8 9 9 10 11
34 34 35 35 35 34 35 35 34 34 35 37 38 35 35 36 36 35 34 31 31 31 32 31 32 27 24 24 21 18 18 17 14 9 10 11 11 8 9 9 9 10 11 11
32 34 34 34 34 35 35 31 27 27 29 36 38 35 34 35 36 34 33 32 32 32 32 31 31 26 23 24 24 18 17 15 10 8 9 10 11 9 8 10 10 11 12 11
31 32 33 33 34 35 35 35 31 27 27 29 32 33 33 34 34 33 32 31 32 33 31 33 31 30 27 24 23 17 15 12 8 8 9 12 10 8 8 9 10 10 10 11
32 33 33 33 33 33 34 34 33 32 29 27 28 30 31 31 31 32 33 32 32 34 33 32 32 31 30 31 23 16 13 10 7 7 9 10 9 10 14 16 17 18 17 17
31 30 31 32 32 32 33 31 32 31 30 31 30 30 29 29 30 29 29 31 32 34 32 32 32 34 33 31 21 14 12 10 7 6 10 16 18 19 20 20 20 20 20 19
25 27 27 28 29 29 29 30 31 31 30 30 30 31 31 29 30 31 31 32 33 34 32 32 33 35 34 30 23 13 11 9 11 15 12 15 21 21 20 19 19 19 19 18
24 26 23 23 25 25 28 29 29 28 28 31 31 30 29 31 30 29 30 30 34 33 31 34 35 35 32 25 19 12 11 15 19 18 14 20 20 20 19 19 19 18 18 18
18 17 16 17 21 22 26 28 28 28 27 24 25 28 29 28 25 26 25 29 30 33 29 31 32 32 30 27 22 11 10 12 14 16 17 19 20 20 19 19 18 18 18 18
17 17 17 14 16 19 22 23 25 25 27 26 26 24 25 27 28 29 27 23 25 30 27 27 31 32 29 23 15 10 11 13 16 17 18 20 20 20 18 18 18 18 18 17

GFSNGP_sfc_dewp_072.txt.gz
Dewpoint
27 27 29 31 30 30 25 28 22 23 21 21 25 26 25 33 35 38 37 36 37 36 36 35 34 34 34 35 35 36 37 37 36 36 36 36 36 36 36 35 35 36 36 36
27 27 28 28 29 29 29 28 26 25 24 23 24 25 31 33 38 39 38 36 34 35 34 34 34 34 34 34 34 35 35 36 36 36 36 36 36 35 35 36 37 36 37 38
23 27 27 24 28 29 29 28 27 25 26 29 29 30 31 35 39 39 36 35 33 34 34 34 34 34 34 34 34 34 34 35 35 35 35 35 35 34 35 33 34 34 34 35
24 25 20 26 28 30 29 29 29 29 28 29 30 32 33 36 38 37 34 34 33 34 34 34 35 35 34 35 34 35 34 35 35 35 35 35 35 34 34 34 33 32 32 33
24 22 23 29 29 29 28 29 30 29 30 30 35 38 36 37 36 34 32 32 33 34 34 35 35 35 34 35 35 34 34 35 35 35 35 34 34 34 34 33 32 33 32 32
29 23 20 32 32 32 32 33 32 30 31 35 38 36 39 33 30 30 31 32 33 33 34 34 35 35 35 35 35 35 35 35 34 34 35 34 34 32 33 34 33 32 32 30
25 24 24 34 34 32 32 34 35 35 36 36 37 38 36 32 31 31 33 32 32 32 33 34 35 36 35 35 34 36 36 34 34 34 34 34 33 33 31 29 27 25 28 27
26 24 20 34 32 30 37 37 37 38 38 38 38 35 33 32 32 33 33 33 33 34 35 35 36 36 35 33 35 36 36 35 35 35 34 33 31 28 28 26 22 19 19 20
24 25 30 34 32 33 33 36 37 37 38 38 39 37 35 34 34 33 33 33 34 34 34 34 34 36 34 35 36 36 35 35 34 33 33 32 23 20 17 14 12 10 12 14
29 29 30 31 35 36 36 37 38 38 37 38 38 37 36 35 34 35 34 33 33 33 33 32 33 34 36 36 36 35 34 33 30 17 15 15 16 13 12 10 9 10 12 14
28 30 31 32 33 37 37 39 38 38 38 37 38 39 36 36 35 34 33 33 33 32 33 32 34 35 36 36 35 33 29 19 16 17 14 14 23 16 17 22 21 15 16 16
27 31 31 36 37 38 37 38 37 38 38 37 38 39 37 36 36 34 34 33 33 32 32 32 34 35 35 35 33 23 16 17 16 13 12 20 22 24 27 26 25 25 24 21
31 35 36 37 38 38 37 37 37 36 36 36 39 39 38 36 36 36 34 33 33 33 33 33 35 35 35 34 29 19 16 16 16 16 17 18 20 23 22 23 23 22 20 21
36 36 35 36 36 36 36 36 36 35 36 36 36 39 39 37 36 35 34 34 35 34 34 33 34 34 34 32 24 18 18 23 17 16 17 16 14 15 17 19 16 16 17 18
35 36 35 35 35 35 37 37 36 35 35 35 38 39 38 37 36 35 35 35 35 34 34 35 34 34 33 29 20 18 19 19 17 18 16 13 9 8 7 7 6 6 10 15
35 35 34 35 35 36 36 36 35 35 35 35 35 38 38 38 37 37 35 34 35 34 35 34 34 34 31 23 20 19 19 22 19 14 13 10 9 8 8 7 7 7 8 9
32 32 33 35 35 33 34 35 35 36 36 36 36 35 38 38 38 37 35 34 34 35 35 35 34 31 28 22 20 20 19 19 21 13 13 10 9 8 8 8 8 8 9 10
33 33 33 34 34 34 34 35 35 35 36 37 38 36 36 37 37 37 35 33 33 34 34 35 34 29 26 22 20 20 18 18 17 13 13 10 9 8 8 8 9 9 10 11
33 33 34 34 34 34 35 35 35 31 29 30 32 36 35 36 37 36 35 33 32 32 33 33 34 30 26 24 22 19 19 18 16 12 11 13 12 9 9 9 9 10 11 11
32 33 33 34 34 34 34 35 34 31 28 29 32 36 37 34 36 35 34 32 32 33 34 33 33 29 28 27 26 19 18 17 15 10 11 11 11 10 9 12 10 10 11 12
32 32 33 33 33 35 35 35 34 33 32 28 29 31 33 34 33 32 30 31 33 34 33 33 33 30 28 29 27 19 18 16 12 10 11 12 11 12 9 9 9 11 12 11
33 32 32 34 34 33 33 32 32 32 33 32 29 29 30 31 30 28 29 30 30 35 33 33 33 32 28 32 30 24 17 14 11 9 11 11 12 11 13 13 15 16 15 15
31 30 30 30 31 31 33 32 31 31 30 30 30 31 30 30 30 30 30 31 32 34 33 32 34 35 35 32 30 28 26 16 10 9 12 15 17 17 16 16 17 18 18 17
25 26 26 26 28 29 28 29 30 31 31 31 30 30 30 30 30 31 31 33 34 34 33 32 34 36 36 30 28 27 26 16 13 15 13 18 19 19 18 17 18 18 17 18
23 24 22 21 21 21 25 28 29 29 28 29 30 31 30 30 29 30 29 30 33 33 31 34 35 35 33 29 28 26 25 18 20 18 14 19 20 19 19 18 18 17 16 15
18 18 17 17 19 20 22 24 25 27 27 27 27 27 27 29 28 29 28 29 30 32 30 31 32 33 31 28 27 27 25 23 22 17 18 19 20 19 18 18 18 17 16 15
18 16 17 15 15 16 20 23 22 22 21 24 25 27 25 25 27 29 29 28 28 29 29 29 31 33 30 27 26 25 24 24 23 19 21 20 20 20 19 18 18 17 16 15

GFSNGP_sfc_dewp_075.txt.gz
Dewpoint
27 28 30 30 29 29 22 26 22 23 22 25 25 25 25 28 33 39 38 37 37 37 36 35 34 34 34 35 36 37 37 36 36 36 36 36 36 36 37 37 37 37 36 36
24 27 27 27 29 30 28 27 27 26 24 23 26 26 27 32 36 38 37 37 36 36 35 34 34 34 34 34 35 36 36 36 36 36 36 36 35 36 35 35 36 36 37 36
20 27 27 23 27 29 30 29 27 24 25 28 25 27 32 35 39 39 38 35 35 34 34 34 34 34 33 34 34 35 35 35 35 35 35 35 35 34 34 34 34 34 35 35
22 24 19 23 29 30 30 30 30 29 28 28 30 32 34 37 39 39 36 35 34 34 34 35 35 34 34 35 35 35 35 35 35 36 35 35 34 34 34 33 33 33 33 34
22 21 23 28 29 29 28 28 30 29 29 30 36 37 37 36 36 37 34 33 34 34 34 35 35 35 35 34 34 35 35 35 36 36 35 35 34 33 33 33 32 32 31 29
27 20 20 31 30 32 32 31 33 30 30 32 38 34 37 32 31 32 32 34 34 34 34 34 35 35 35 34 34 35 35 35 35 36 35 34 33 33 33 33 32 29 26 27
23 22 24 34 34 32 31 30 35 34 35 37 37 37 37 31 31 32 33 33 33 33 34 35 36 36 35 35 35 36 35 34 35 35 34 34 33 33 31 25 25 24 27 26
25 24 20 31 31 29 35 37 37 38 38 38 37 34 32 32 32 33 33 33 33 34 35 36 37 36 35 34 36 35 35 34 34 35 35 33 31 28 28 26 22 20 21 22
24 24 29 35 33 34 37 36 37 37 38 39 38 36 34 33 33 33 33 33 34 34 34 35 36 37 34 35 36 35 35 34 34 34 32 31 28 26 23 19 15 13 15 16
27 29 29 32 35 36 36 37 38 37 37 38 39 37 35 34 34 34 34 33 34 34 32 32 33 35 36 36 36 35 34 34 32 31 30 28 20 17 13 11 10 11 14 15
28 29 30 31 37 38 38 38 38 39 37 36 38 38 36 35 35 34 33 33 33 33 32 32 32 35 36 36 35 34 33 32 26 19 16 20 20 11 17 21 14 13 15 16
29 31 33 36 37 37 37 37 36 37 37 38 37 39 37 36 35 35 34 33 32 32 32 32 33 34 36 36 35 33 28 18 17 16 13 22 24 24 26 26 26 25 24 20
31 35 36 37 38 38 37 37 37 37 36 35 37 39 37 36 36 36 34 33 33 32 33 32 34 33 35 35 34 25 18 17 18 13 15 19 22 23 22 23 24 22 22 23
36 36 34 36 36 36 36 37 36 36 35 36 36 38 38 37 36 35 34 34 33 34 33 33 35 35 35 35 30 20 18 23 16 15 18 19 21 22 21 19 16 15 20 20
36 36 35 35 35 36 36 36 35 35 35 35 37 38 38 37 36 35 34 34 34 34 33 33 35 34 35 34 26 19 17 21 18 18 19 18 15 13 12 13 8 6 11 16
35 35 34 34 35 36 35 34 34 34 35 35 35 35 38 38 37 36 35 35 35 34 34 34 34 34 34 32 25 19 19 23 21 17 17 14 10 9 8 7 6 6 7 9
32 31 32 32 33 33 34 34 35 35 35 35 35 36 35 38 38 37 36 35 35 35 35 35 35 35 34 31 23 20 19 22 24 16 14 12 10 9 8 8 8 8 8 10
33 33 34 34 35 35 35 35 35 35 35 35 35 35 35 36 36 37 36 35 34 35 35 35 36 35 32 28 23 20 20 20 21 15 13 12 10 9 9 8 8 8 9 10
33 33 33 33 33 34 34 35 35 34 32 30 29 29 31 34 35 37 37 35 34 33 34 35 36 34 31 27 25 21 20 19 19 15 13 15 14 9 9 9 9 9 10 10
32 32 33 33 34 34 34 35 35 34 33 31 28 29 31 36 36 34 34 34 34 34 34 34 35 33 30 27 30 22 19 18 17 15 12 12 12 11 9 12 10 9 10 11
32 32 33 33 33 34 34 34 32 32 32 34 31 28 30 32 34 34 32 30 32 32 32 34 34 33 31 30 32 23 20 18 16 15 13 13 11 12 10 10 10 11 11 12
33 31 31 31 31 31 32 33 31 31 31 31 31 31 30 29 31 31 32 31 29 34 31 32 34 34 32 33 32 25 23 24 20 14 13 13 12 13 15 15 15 15 14 15
31 30 29 28 28 29 31 30 30 30 29 30 30 30 29 30 31 29 29 30 29 31 30 31 34 35 34 34 32 30 30 29 28 25 17 17 18 21 20 19 18 17 17 17
24 25 25 23 23 24 24 26 27 28 28 30 30 30 29 28 29 31 31 33 34 34 33 32 34 36 37 33 32 30 29 29 28 27 25 20 23 22 21 19 19 18 18 19
21 22 20 19 19 20 22 24 25 26 26 27 28 29 30 30 29 30 30 30 31 32 31 34 35 36 34 32 30 29 29 28 27 26 24 23 24 22 21 20 19 19 19 18
17 16 17 17 17 18 20 23 23 23 21 21 25 27 27 27 28 28 29 30 30 31 31 31 32 32 32 30 29 28 27 27 27 26 25 25 25 22 20 20 20 20 19 18
17 17 16 13 15 15 16 22 22 22 20 19 22 24 25 24 23 26 28 29 29 29 30 30 31 32 31 29 28 27 27 27 28 27 26 25 23 21 21 19 19 18 18 17

GFSNGP_sfc_dewp_078.txt.gz
Dewpoint
27 30 29 28 28 28 24 24 22 22 23 25 27 29 30 33 38 39 38 40 38 37 36 34 35 34 35 36 37 37 36 36 36 36 36 36 36 36 36 36 36 36 36 36
23 27 28 27 29 29 27 26 26 26 25 26 28 26 26 28 34 38 38 38 38 37 36 34 34 34 34 35 36 37 36 36 36 36 36 36 36 35 35 36 36 36 35 35
20 26 26 22 27 29 29 29 27 24 25 26 27 26 27 30 33 37 38 37 37 36 35 34 34 34 33 34 35 36 35 35 35 35 35 35 34 34 34 34 35 35 36 37
21 23 19 20 29 30 30 30 29 28 28 28 27 29 32 36 36 38 38 36 36 35 34 34 35 34 34 34 35 35 35 35 36 35 35 34 34 34 33 33 34 34 34 34
22 21 21 26 29 29 29 28 31 29 29 32 34 35 36 37 38 39 38 36 35 35 35 35 34 34 34 34 35 35 35 36 36 36 35 34 33 33 33 33 33 33 32 30
23 19 19 26 30 31 33 29 32 30 30 34 36 31 33 34 34 34 34 34 35 35 35 35 35 35 34 34 34 34 35 36 36 36 35 34 33 33 33 30 27 27 26 26
23 20 24 27 34 34 29 26 34 31 31 36 35 34 37 32 31 33 34 34 35 35 35 35 36 36 35 35 35 36 35 35 36 35 35 34 33 33 31 24 25 23 26 25
24 22 17 32 30 31 33 37 37 37 37 37 37 34 33 32 32 33 33 34 34 34 35 36 37 36 35 35 36 35 35 35 35 34 34 33 33 27 27 26 24 23 23 24
24 23 27 32 32 34 38 37 37 38 38 39 36 35 33 33 33 33 33 33 34 34 34 36 37 36 35 35 35 35 34 34 34 34 32 31 28 26 25 21 19 18 19 20
27 27 29 33 34 35 35 37 38 37 37 40 38 38 35 34 33 33 33 33 34 34 33 33 35 36 36 36 35 35 33 33 33 32 31 28 27 24 19 16 13 12 14 15
28 29 30 31 35 37 38 38 38 39 38 37 38 38 36 35 34 34 33 34 34 33 32 32 33 34 36 36 36 35 34 33 32 30 29 25 19 15 12 12 13 12 14 15
28 30 30 34 37 38 37 37 36 36 36 38 38 38 38 36 35 34 34 34 34 33 32 32 33 34 36 36 35 34 33 31 29 22 17 20 17 22 25 27 25 23 23 20
30 34 35 37 37 37 37 37 37 36 36 36 36 38 38 37 36 36 34 34 33 33 32 33 33 34 35 36 35 34 32 24 20 16 18 21 22 23 23 24 25 24 25 25
34 36 36 37 36 36 36 36 36 35 35 35 36 37 38 37 37 35 34 34 33 33 33 33 33 33 35 36 35 30 26 26 18 14 15 19 21 22 21 20 18 15 22 21
35 35 35 36 35 36 35 36 34 34 35 35 35 36 38 37 36 37 35 34 34 33 33 33 34 34 35 35 35 27 23 22 18 17 17 20 20 21 21 19 17 10 12 18
35 34 35 34 35 35 33 33 32 33 34 34 34 35 36 37 37 36 36 34 34 33 33 33 33 35 35 35 32 25 20 23 22 17 17 20 16 17 15 13 10 6 7 8
32 31 32 32 33 32 32 34 35 35 34 34 34 35 35 36 35 36 36 35 35 35 34 34 34 35 35 34 31 27 20 22 26 18 17 18 14 11 9 8 8 8 7 8
33 34 35 34 34 34 34 35 35 35 35 34 32 31 31 31 33 35 36 36 35 35 35 35 35 35 35 34 32 27 23 21 24 20 16 15 13 11 9 8 8 8 8 9
33 33 33 33 33 33 34 34 35 35 34 33 30 29 28 29 31 33 35 34 35 34 35 35 36 36 35 35 32 28 25 21 20 21 16 17 16 11 9 9 9 8 9 9
32 32 32 33 34 34 34 34 33 33 33 33 33 30 28 30 32 35 35 33 34 35 36 36 36 36 35 34 34 28 25 22 20 19 16 14 14 13 10 12 9 9 9 9
32 32 33 33 33 33 32 31 30 30 30 31 31 32 31 30 31 33 33 33 34 33 32 34 35 35 34 33 33 29 26 23 20 18 16 16 13 13 12 10 10 10 8 9
33 31 30 30 29 29 31 30 28 29 30 29 30 30 30 30 30 30 31 32 32 34 33 27 30 33 33 34 32 32 27 24 25 25 19 17 15 14 16 16 16 15 14 16
31 29 29 27 25 27 28 28 28 29 29 29 29 29 29 29 30 29 29 32 32 33 32 29 32 35 36 34 32 32 28 27 29 29 28 27 24 21 22 22 22 21 20 19
24 23 24 20 22 21 22 24 24 27 27 27 28 28 29 27 28 30 31 31 32 33 32 33 34 36 36 34 33 33 31 30 30 30 29 30 27 27 26 24 24 22 21 20
20 21 20 19 16 18 20 22 23 24 23 22 24 26 27 28 29 28 30 30 31 31 31 34 35 36 34 33 32 31 30 30 30 29 28 28 27 26 26 26 25 22 20 19
17 15 15 17 16 17 17 20 22 22 22 18 20 24 25 25 24 25 27 29 30 31 30 30 31 32 31 31 31 30 30 29 30 30 28 27 27 27 27 26 24 21 20 20
19 18 16 13 14 14 15 18 21 21 20 17 19 22 22 23 23 24 25 25 27 28 29 30 30 30 31 30 30 29 28 28 29 28 27 26 27 27 26 25 23 20 19 19

GFSNGP_sfc_dewp_081.txt.gz
Dewpoint
27 29 29 29 29 33 31 29 23 24 22 22 26 30 32 36 39 39 40 41 39 38 36 35 35 34 35 37 37 37 36 36 36 36 36 36 35 36 36 36 35 35 35 35
24 27 28 27 29 32 33 31 28 26 25 26 27 29 31 34 39 39 39 41 39 38 36 34 34 34 35 37 37 37 36 36 36 36 36 36 36 36 36 36 36 35 35 35
17 26 26 21 26 29 29 28 28 25 26 26 27 27 30 31 37 39 39 38 39 38 36 35 34 34 34 36 36 36 36 35 36 36 35 35 35 35 34 35 36 36 36 35
22 22 16 18 29 29 29 29 29 28 27 27 27 28 28 30 32 35 38 38 38 37 36 35 34 34 34 35 36 35 35 35 35 35 35 35 34 34 34 34 34 35 34 34
22 20 20 23 28 29 28 27 31 29 29 31 33 34 34 37 37 34 38 38 37 36 35 35 34 34 34 35 35 35 35 35 36 36 35 34 33 33 33 33 33 33 32 29
22 18 17 24 31 30 31 26 33 31 30 33 34 29 32 36 35 37 37 36 35 35 35 34 34 34 34 34 35 35 35 36 36 36 35 34 33 33 33 32 31 28 27 26
23 19 23 25 33 33 25 24 34 32 31 34 34 32 34 33 32 34 34 35 35 35 35 35 35 34 34 34 35 36 36 36 36 36 35 34 33 33 30 27 25 22 25 24
25 24 16 31 32 28 31 37 37 35 34 36 37 36 34 33 32 33 34 35 35 35 36 36 36 35 35 35 36 36 36 36 35 35 34 34 32 30 27 26 24 23 23 24
23 22 25 30 32 32 38 37 38 38 38 38 36 35 34 33 32 33 34 34 34 35 35 35 36 36 35 36 35 35 35 34 34 34 33 33 30 27 25 24 23 21 22 22
27 27 28 31 35 35 35 37 37 37 38 40 38 37 36 34 33 33 33 33 34 34 33 33 34 36 36 36 35 34 34 34 34 32 32 31 29 27 23 20 18 17 16 16
28 29 29 31 35 37 37 38 38 38 37 37 38 39 37 36 34 34 33 33 33 33 32 32 33 35 36 36 35 34 33 33 33 32 32 29 26 23 19 17 16 13 14 15
28 30 29 30 35 38 38 37 37 37 36 37 37 38 38 37 36 34 33 34 34 33 33 33 33 34 35 36 35 35 34 33 32 31 29 26 20 16 23 21 25 23 21 18
30 32 35 37 37 37 37 37 37 36 36 36 36 36 38 38 37 36 34 34 34 34 33 32 33 34 36 36 36 35 34 32 32 28 22 20 17 19 22 25 26 26 26 25
32 37 36 37 36 36 36 36 36 35 35 35 36 37 38 37 36 36 35 34 34 34 33 33 33 34 35 36 35 34 33 33 28 21 18 20 20 21 21 22 21 19 24 24
35 35 34 36 36 35 35 35 33 34 34 34 35 35 35 36 36 36 36 35 34 33 33 33 33 33 35 36 35 33 31 30 23 19 17 20 20 21 21 20 17 13 13 18
34 35 35 35 35 34 34 33 31 32 33 33 33 34 35 35 35 35 36 35 34 33 33 33 33 34 34 35 35 33 30 29 24 18 16 19 19 19 20 19 18 16 11 9
32 30 32 32 33 32 32 33 33 34 35 35 34 33 33 33 33 34 35 35 35 35 34 34 33 35 35 35 35 34 29 27 30 19 17 18 18 17 18 18 16 13 10 8
34 35 34 34 34 34 34 34 35 35 35 34 33 31 30 29 29 30 32 34 34 34 35 35 35 35 35 35 35 34 28 26 26 22 18 17 17 16 14 13 11 9 8 8
33 32 33 33 33 33 34 34 35 34 34 34 33 32 30 29 30 30 32 32 32 32 34 36 36 35 35 35 35 34 29 26 24 24 19 20 19 16 14 12 10 9 8 7
32 32 32 33 33 33 33 32 31 31 31 31 31 32 31 30 30 30 33 34 34 34 33 34 35 36 35 35 37 33 30 28 27 24 22 18 17 17 14 15 11 9 9 8
32 32 31 30 30 31 30 31 29 29 29 30 30 30 30 31 31 31 30 32 32 33 34 34 33 35 36 36 36 35 31 30 28 27 24 23 17 16 15 13 12 10 8 9
32 31 29 28 26 27 28 28 27 28 28 27 28 29 29 28 29 30 31 31 32 34 33 32 32 34 35 37 35 35 32 29 28 27 27 25 25 20 18 17 17 16 14 14
31 29 28 26 24 26 26 26 25 25 26 26 27 27 27 28 28 28 27 31 32 33 33 32 34 35 35 35 33 33 33 30 29 28 30 28 28 28 26 24 22 20 20 20
26 23 23 19 19 19 19 21 22 24 25 24 25 26 25 26 26 28 29 30 31 32 32 32 34 36 36 34 33 32 33 32 31 31 30 32 30 30 29 28 27 26 24 23
22 21 20 18 15 16 18 21 21 22 22 20 21 24 25 25 24 25 26 27 30 31 30 32 34 35 33 32 32 32 32 32 31 31 30 30 29 29 29 28 28 28 26 24
17 15 14 15 16 16 15 16 20 21 22 18 18 21 22 23 23 24 24 25 26 27 28 29 30 31 31 31 31 32 31 31 31 32 30 29 29 28 28 28 28 29 29 26
20 21 18 13 12 14 14 16 18 18 20 17 17 20 19 20 21 21 23 23 24 24 25 27 28 29 30 30 30 30 30 30 31 30 30 29 28 28 28 28 28 27 27 26

GFSNGP_sfc_dewp_084.txt.gz
Dewpoint
26 28 31 30 30 31 27 27 23 23 24 26 25 25 31 37 40 39 40 40 39 38 37 35 35 35 37 37 36 36 36 35 35 35 35 35 35 35 35 35 35 35 35 35
24 29 28 28 29 32 31 30 29 28 26 27 27 30 32 36 39 39 40 41 40 39 37 35 34 34 36 37 37 37 36 35 36 36 36 35 36 36 36 36 35 35 35 36
18 26 25 20 25 30 31 31 31 28 29 29 26 28 30 33 39 39 39 40 40 39 37 35 34 34 35 37 37 36 36 36 36 36 36 35 35 35 35 36 36 36 36 36
23 22 15 18 29 29 30 30 31 30 28 27 27 28 29 32 35 38 39 39 40 39 37 36 35 34 35 36 36 36 35 35 36 36 35 35 35 34 35 35 35 35 34 35
21 20 20 24 28 28 28 26 30 30 30 29 32 32 31 31 32 35 37 39 39 39 37 35 35 34 34 35 35 35 35 35 35 36 35 35 34 34 34 34 33 33 33 31
22 18 15 22 31 31 30 25 32 31 31 29 33 28 30 36 37 38 38 38 37 36 35 35 34 34 34 35 35 34 35 36 36 36 35 34 34 33 33 33 32 30 28 28
25 21 23 24 29 32 25 23 34 32 31 32 33 31 33 34 33 35 35 35 36 35 35 35 35 35 35 35 34 35 36 36 36 36 35 34 34 33 32 31 28 25 26 26
26 25 17 26 31 28 29 36 37 34 32 34 35 35 34 33 33 34 34 35 35 35 35 35 35 34 34 33 36 36 36 36 36 35 35 34 33 31 30 27 25 24 25 25
24 24 25 27 32 34 37 37 37 38 36 37 36 35 34 33 33 33 34 34 35 35 35 35 35 34 33 34 36 36 36 35 35 34 34 32 30 29 27 26 24 23 23 23
26 27 27 28 33 35 36 37 37 38 39 39 37 36 36 34 33 33 33 33 34 34 35 35 34 35 35 36 35 35 35 34 34 33 33 31 30 28 26 24 23 22 21 20
27 28 29 30 34 36 36 37 37 38 38 37 38 39 38 37 36 34 33 33 33 34 34 34 33 34 35 36 35 34 34 34 33 32 32 30 28 27 24 22 21 18 17 16
27 30 29 29 34 37 38 37 37 36 36 36 37 37 38 38 37 35 34 33 33 34 33 33 33 35 36 35 35 34 33 33 33 32 31 31 27 23 29 25 26 25 22 18
30 31 34 35 36 37 37 36 36 35 35 35 36 36 38 37 37 37 35 34 33 34 34 33 33 34 35 35 35 35 33 33 33 32 30 29 25 19 18 24 28 29 27 25
31 36 36 36 35 36 36 36 36 35 35 35 35 36 37 36 36 36 35 35 34 34 34 33 33 33 35 36 36 35 34 35 33 31 29 26 21 18 20 22 22 22 26 27
34 35 34 36 36 35 35 35 34 33 33 34 35 35 35 34 34 35 36 36 34 34 34 34 33 33 35 36 35 35 33 33 31 28 27 26 21 19 20 20 20 17 14 19
33 34 34 34 35 34 33 33 32 32 32 32 33 33 33 33 33 33 34 35 33 34 34 34 33 34 35 35 35 35 33 33 30 26 23 21 20 19 19 19 19 17 14 12
31 30 32 32 33 32 32 33 33 33 34 34 34 33 32 31 31 31 31 32 34 34 35 35 34 35 34 35 35 35 33 33 33 25 21 19 18 18 18 18 18 18 17 15
33 34 34 34 34 34 34 34 35 35 34 34 34 33 30 29 29 29 29 31 32 33 35 35 35 35 35 34 35 35 33 31 32 28 23 19 18 17 17 17 18 17 16 13
33 33 33 33 33 34 34 34 32 32 32 31 31 32 33 32 31 31 31 30 30 30 32 35 36 35 35 35 36 35 33 31 29 29 25 24 22 18 17 16 15 15 14 10
33 33 32 33 33 32 32 31 30 29 30 30 30 30 30 30 31 31 31 29 32 34 34 34 34 34 34 35 37 35 34 32 30 28 26 24 22 20 18 18 15 14 12 10
32 30 29 29 29 30 29 29 28 27 28 27 27 28 29 29 30 30 30 30 31 32 34 34 33 34 34 35 36 36 34 32 31 30 28 28 26 27 21 17 15 14 12 11
33 32 31 26 23 26 28 26 24 25 26 26 26 26 26 25 26 27 29 30 31 33 33 32 33 34 34 36 36 36 35 33 32 31 31 31 31 29 28 26 25 22 16 16
32 30 27 25 22 23 24 23 23 24 24 24 24 26 26 25 25 26 25 27 29 30 31 31 33 35 36 35 34 34 34 33 33 32 32 31 31 31 30 29 28 27 26 20
27 22 22 20 18 19 19 20 21 23 23 22 22 22 22 23 23 24 24 26 28 29 30 31 32 34 35 33 33 33 33 33 32 32 32 33 31 31 30 30 29 28 28 28
22 22 20 19 15 14 17 19 19 21 21 21 19 20 23 22 22 23 24 24 27 26 26 28 30 32 31 31 32 32 32 32 32 32 32 31 31 30 30 30 30 30 29 28
18 15 14 14 15 15 16 15 14 19 20 19 17 18 21 20 21 21 22 22 23 25 24 25 27 28 29 29 30 31 31 32 32 32 32 31 30 30 30 30 29 29 30 29
20 24 21 17 13 12 14 14 17 15 18 19 16 19 17 17 19 19 19 19 20 22 23 24 24 25 25 26 27 28 29 30 31 30 31 31 30 30 29 29 29 29 29 29

GFSNGP_sfc_dewp_087.txt.gz
Dewpoint
28 28 31 31 31 31 25 26 24 23 24 25 27 27 26 32 39 39 40 40 40 39 37 36 36 37 38 38 37 36 36 36 36 36 36 36 36 36 36 36 35 35 35 36
26 29 29 28 30 31 31 30 29 28 28 27 27 28 30 34 39 39 40 41 40 39 38 36 35 35 38 37 37 37 36 36 36 36 36 36 36 36 35 36 36 36 36 37
20 26 25 19 25 29 31 31 30 28 28 28 28 28 29 32 39 39 40 41 41 40 39 37 35 35 37 37 37 36 36 36 36 36 36 36 36 36 36 36 37 36 36 36
24 22 15 17 28 29 30 31 33 32 31 30 30 29 28 31 36 39 40 40 41 41 39 38 36 35 36 37 37 37 36 36 36 36 36 35 35 35 36 37 36 37 35 36
23 21 20 24 28 28 27 26 30 32 33 31 31 32 31 31 34 38 40 40 41 42 40 37 36 35 36 36 36 36 36 36 36 36 36 35 35 35 35 35 34 34 35 35
24 19 15 20 31 30 30 26 30 31 31 31 32 29 31 35 35 35 36 38 39 40 38 37 35 35 35 35 35 35 36 36 36 36 36 35 35 34 34 34 33 31 31 30
23 21 22 24 26 32 25 24 34 33 32 31 31 31 33 34 34 35 36 36 37 37 37 36 35 35 35 35 36 37 36 37 37 36 36 35 34 34 33 32 30 29 28 28
26 23 17 25 32 29 29 36 38 37 32 33 36 36 34 34 34 35 35 36 36 36 36 36 36 35 35 35 36 37 37 37 36 36 36 35 34 33 31 29 27 26 26 26
24 24 26 26 32 33 34 37 38 38 37 36 36 36 35 34 34 34 35 35 35 36 35 35 36 35 35 35 36 36 36 36 35 35 35 34 32 30 29 26 25 24 25 24
26 26 27 28 29 33 36 38 37 38 38 38 37 36 35 35 34 34 34 34 35 35 35 35 35 35 34 35 36 35 35 35 35 34 33 32 31 30 28 26 24 23 23 22
27 28 29 29 31 35 38 38 37 38 38 38 39 38 38 37 36 35 34 33 34 34 34 35 35 35 35 36 35 35 35 35 34 33 33 31 30 29 28 26 25 23 23 21
26 29 29 30 34 37 37 38 37 36 36 36 37 37 38 38 38 36 35 34 33 34 34 34 34 34 35 36 35 34 34 34 33 33 32 31 29 29 32 30 30 28 25 21
30 31 32 35 37 38 37 36 36 35 36 36 36 37 38 38 37 38 36 34 34 34 34 34 34 34 36 36 35 35 34 34 34 33 31 31 29 28 26 28 30 28 29 27
33 32 35 36 35 36 36 36 36 35 35 35 35 36 36 36 36 36 36 36 35 34 34 34 34 34 35 36 35 35 34 35 33 33 32 31 30 28 23 21 23 25 28 29
34 35 34 36 35 35 35 35 34 34 34 34 34 35 35 34 34 34 35 36 36 35 35 34 34 34 35 36 35 35 35 34 34 32 31 31 29 26 22 20 21 20 19 24
33 33 34 34 35 34 34 33 32 33 33 33 33 33 33 33 33 32 32 33 35 35 35 35 35 35 35 35 36 35 35 35 34 31 30 30 27 25 22 19 19 19 17 15
30 30 31 32 33 33 33 33 33 34 34 34 34 34 33 32 31 30 30 30 31 32 34 36 35 35 35 35 35 35 34 34 35 30 28 29 27 25 22 19 18 18 18 17
33 33 33 34 34 34 34 34 34 33 33 32 32 32 32 31 30 30 31 31 30 31 32 34 36 35 35 35 35 35 34 34 34 31 30 26 24 24 20 19 18 18 18 18
33 33 33 33 34 34 33 31 30 31 30 30 30 30 31 31 31 31 32 31 31 32 33 34 35 35 35 35 35 35 35 33 32 34 31 31 30 24 20 19 18 17 17 17
35 35 33 32 32 32 30 29 28 28 28 28 28 28 28 28 29 30 30 30 32 32 34 34 34 34 34 35 36 35 35 34 32 31 31 30 30 29 24 24 20 18 16 15
32 31 27 26 27 29 29 28 26 26 27 27 27 27 26 26 26 26 28 29 31 31 32 33 33 33 34 35 36 36 35 34 33 32 31 32 31 31 29 27 27 23 17 15
33 32 31 28 22 26 27 24 23 26 25 24 24 25 24 24 24 25 26 28 27 29 30 31 31 33 34 36 35 35 35 34 34 33 33 32 32 31 31 30 29 29 28 27
32 31 29 26 22 24 24 23 22 24 23 22 21 22 24 24 23 23 23 24 26 27 27 28 30 32 33 34 33 33 34 34 34 33 33 33 32 32 32 32 31 30 29 28
30 26 21 22 18 19 20 22 22 23 22 23 22 22 23 21 21 24 23 25 25 27 26 27 28 30 31 31 31 31 32 32 33 33 33 35 33 33 32 32 32 31 30 30
30 24 22 20 15 13 18 20 18 19 21 21 20 19 22 22 22 21 22 21 24 23 24 26 27 27 26 27 28 30 31 32 32 32 32 32 32 32 32 32 31 31 31 30
21 18 16 15 14 14 14 15 12 15 18 18 18 17 20 18 18 20 20 20 20 21 21 23 23 24 24 25 26 26 27 29 30 31 32 32 32 32 31 31 31 31 32 31
20 21 20 22 18 14 13 13 13 15 14 17 17 18 19 15 16 19 18 16 17 18 19 21 21 21 22 23 24 24 24 26 27 28 30 30 31 31 31 30 30 30 30 30

GFSNGP_sfc_dewp_090.txt.gz
Dewpoint
29 29 30 31 32 31 33 31 31 24 25 24 25 26 27 30 35 38 40 41 41 40 40 40 40 40 40 40 39 39 38 38 38 37 37 37 37 37 37 37 37 38 38 38
28 29 30 29 31 32 31 30 28 27 26 27 28 28 28 29 35 37 39 41 41 41 40 39 39 39 40 39 39 39 38 38 38 37 37 38 38 37 37 37 37 37 38 38
26 26 25 22 24 30 31 31 30 29 28 29 28 28 29 31 34 38 38 40 41 41 41 40 39 39 38 38 38 38 38 37 37 37 37 38 37 37 37 37 38 38 38 38
24 23 13 19 27 29 29 30 32 31 31 31 31 32 31 30 30 35 39 40 41 42 42 41 39 38 37 38 38 38 37 37 37 38 37 37 37 37 38 38 38 38 38 39
23 20 20 27 29 28 27 27 30 31 31 32 33 33 33 32 31 32 38 40 41 42 42 42 40 38 37 37 38 38 37 38 38 38 37 37 37 37 37 37 36 36 38 38
26 20 13 25 30 31 30 29 33 33 32 32 32 30 29 35 36 33 36 41 42 43 42 41 40 38 37 37 37 37 38 38 37 38 37 37 37 36 35 36 35 35 35 35
23 22 20 25 30 32 26 29 34 36 33 32 31 32 35 35 36 36 38 38 39 40 40 41 40 38 38 37 38 39 38 38 38 38 38 37 37 35 35 34 33 32 31 31
25 22 18 26 32 29 31 35 37 37 33 33 35 36 35 35 36 36 37 37 38 39 39 39 39 38 38 39 39 39 38 38 38 38 37 36 35 34 33 31 30 28 27 27
24 22 26 27 33 33 34 36 38 38 36 35 37 37 36 36 35 35 36 36 36 37 37 37 38 37 37 38 37 37 37 37 37 37 36 35 34 32 31 29 27 26 26 25
26 27 28 29 30 31 35 38 38 39 38 38 37 37 36 36 36 35 35 35 36 36 36 36 36 36 36 36 36 36 35 36 36 35 35 34 33 31 30 28 27 26 24 23
27 29 30 31 32 33 37 39 38 38 38 39 39 39 38 38 38 36 35 34 35 35 35 35 35 35 35 35 36 35 35 35 35 35 35 33 32 31 30 30 29 26 23 22
26 30 30 30 36 36 37 38 38 37 37 37 37 38 38 38 38 38 37 35 35 35 36 35 35 35 36 36 36 35 35 35 35 34 34 32 31 31 34 33 33 29 27 24
31 32 32 33 37 38 37 37 36 36 36 36 37 37 38 38 38 38 37 36 35 35 35 35 34 35 35 36 36 36 35 35 34 34 33 32 31 30 30 32 32 32 31 29
34 35 33 36 36 37 37 37 36 35 36 36 36 36 36 36 36 36 36 36 37 36 35 35 35 34 35 36 36 36 35 36 35 34 33 32 32 31 31 29 28 28 30 30
34 35 35 36 36 36 36 35 35 34 34 34 35 35 34 34 34 34 34 34 36 36 36 35 35 35 35 36 36 36 35 35 35 34 33 33 32 31 30 27 24 22 24 27
33 35 35 36 36 35 34 34 34 34 34 34 34 34 34 33 33 32 32 31 31 32 33 36 36 36 35 35 36 36 35 35 36 34 33 32 31 30 29 28 24 21 20 20
33 34 35 35 35 34 34 34 34 34 34 33 33 33 32 32 32 32 31 32 31 31 33 34 35 36 36 36 36 35 35 35 37 34 32 32 30 29 29 28 26 22 19 19
34 33 34 34 34 34 34 34 33 32 31 31 31 31 31 31 31 31 31 32 32 32 34 34 35 36 36 35 36 35 35 35 35 34 32 32 32 32 30 28 27 24 20 19
34 35 34 34 34 34 32 30 30 30 29 29 29 29 29 29 30 30 30 31 32 32 32 33 34 35 35 36 36 35 35 34 34 34 33 33 32 31 31 30 28 25 22 19
34 35 35 33 32 31 29 27 26 26 27 27 27 26 26 27 27 27 29 31 29 30 32 33 33 34 34 35 36 36 35 35 34 33 34 32 32 31 30 31 30 30 27 21
33 32 29 24 25 28 28 24 22 24 26 25 24 24 24 25 24 25 27 29 28 29 30 31 32 32 33 35 36 35 35 35 34 34 33 33 32 32 32 30 30 30 30 30
33 33 31 30 25 27 26 22 21 24 23 21 20 23 23 22 21 24 26 27 25 27 27 28 28 29 31 33 34 34 34 34 34 34 33 33 33 32 32 32 31 31 31 30
33 33 30 28 24 25 25 23 21 22 23 22 21 20 22 21 20 22 19 22 23 25 26 26 27 29 30 30 30 31 32 32 33 34 34 34 33 33 33 33 32 32 31 31
33 32 30 24 20 20 19 22 22 22 23 23 24 21 22 21 19 24 22 23 23 23 23 24 26 27 27 26 27 27 28 29 31 32 33 35 33 33 33 33 33 33 33 33
33 32 30 23 18 15 18 19 18 18 20 21 23 20 21 22 20 19 21 20 21 21 21 22 24 25 23 24 24 25 26 27 28 29 31 32 33 33 33 33 33 33 34 33
30 27 22 18 17 16 15 14 12 11 13 14 15 17 18 20 17 17 18 19 18 19 18 19 21 21 21 22 23 24 24 24 25 26 27 29 31 32 32 33 33 33 33 33
25 25 20 19 24 22 17 14 12 11 14 13 14 16 19 19 16 17 18 16 15 16 17 17 19 20 20 20 21 22 22 23 24 25 25 26 27 29 30 31 32 33 33 32

GFSNGP_sfc_dewp_093.txt.gz
Dewpoint
28 29 29 32 32 31 34 31 33 24 24 22 23 26 26 28 32 35 38 39 39 39 40 40 41 41 41 41 40 40 40 40 39 39 38 38 38 38 38 38 38 38 38 39
30 29 29 29 30 31 30 29 28 27 27 28 28 28 27 27 31 34 37 39 40 40 40 40 40 41 41 40 40 40 39 39 39 38 38 39 38 38 38 38 38 38 38 39
27 26 25 25 28 30 30 30 30 29 29 29 29 28 29 29 31 33 36 39 40 40 40 40 40 40 40 40 39 39 39 38 38 38 38 38 38 38 38 38 39 38 39 38
22 22 17 22 26 28 29 28 30 30 30 30 30 31 32 32 30 31 35 38 40 41 41 41 41 40 40 39 38 39 38 38 38 38 38 39 39 39 39 39 39 39 39 40
23 17 20 27 29 27 27 28 31 31 31 31 32 33 33 33 33 32 32 38 39 41 42 42 41 40 39 39 39 39 38 38 38 38 38 38 38 39 38 38 37 37 38 38
25 20 13 25 28 31 30 28 34 34 33 32 32 31 32 35 36 34 34 40 41 42 43 43 42 40 39 38 38 39 39 39 38 39 39 39 38 38 37 38 36 36 36 37
23 22 20 25 30 31 27 33 36 36 33 32 31 33 35 35 36 37 38 38 39 42 43 43 42 41 40 40 40 41 40 39 39 39 39 39 39 38 36 36 35 34 33 34
24 22 18 27 32 29 32 35 37 38 33 33 35 37 36 36 37 38 38 38 40 40 41 41 41 40 41 41 42 41 40 39 39 39 38 38 37 36 35 34 33 31 30 30
24 23 27 27 29 31 34 34 38 38 36 35 36 37 37 37 37 36 37 37 38 39 39 39 40 40 40 41 40 39 38 38 38 38 37 36 35 34 33 32 30 28 28 27
26 27 28 29 31 32 32 37 38 39 38 39 38 38 38 38 37 37 36 36 37 37 37 37 37 38 38 38 37 37 36 37 37 36 35 35 34 33 32 30 29 29 28 27
26 28 30 32 34 33 36 39 38 39 39 40 40 39 39 39 38 37 37 36 36 36 36 36 36 36 36 36 36 36 36 36 36 36 35 35 34 32 32 31 31 30 29 26
31 30 30 30 32 37 37 38 38 38 37 38 38 38 38 38 38 38 37 37 36 36 36 37 36 36 36 36 36 36 35 36 36 35 35 34 33 33 37 35 36 36 34 28
30 31 32 32 35 38 37 37 37 37 37 37 37 37 37 37 37 38 38 38 38 37 37 36 35 35 36 36 36 36 35 35 35 35 34 33 33 32 30 34 37 38 36 30
33 34 32 36 36 37 37 37 36 36 36 36 36 36 36 36 36 35 34 35 36 37 37 37 36 35 35 36 36 36 36 38 35 35 35 33 33 32 32 32 31 32 34 33
33 34 35 35 36 36 36 36 35 35 35 34 35 35 34 34 34 34 33 32 32 34 36 36 36 36 36 36 36 36 36 36 36 35 35 35 33 32 32 32 32 30 28 30
33 34 35 36 36 36 35 35 35 34 35 34 34 34 34 33 33 33 33 32 32 32 33 33 34 36 37 36 36 36 36 36 36 35 34 33 33 32 32 32 32 28 24 24
33 33 35 35 36 35 34 34 35 35 34 33 32 32 32 32 32 32 32 32 32 32 33 35 35 35 36 36 36 36 36 35 37 35 33 33 32 32 31 31 31 31 31 24
35 34 34 34 34 34 35 34 33 32 31 31 31 31 30 30 30 31 31 31 32 33 33 33 34 34 36 36 36 36 36 35 35 35 34 32 32 32 32 31 31 32 32 30
36 35 36 35 36 34 32 31 31 30 28 27 27 27 28 28 28 28 29 31 30 30 30 32 33 33 34 35 36 36 35 35 34 34 34 34 33 33 32 32 32 32 32 32
34 35 34 33 34 35 33 27 24 23 25 26 25 23 23 24 25 24 27 30 29 27 29 31 31 32 32 33 35 35 36 35 34 34 34 33 33 32 32 32 32 32 32 32
34 33 31 25 26 27 25 20 20 21 24 23 21 20 21 22 23 22 25 26 29 28 28 28 29 29 29 31 33 34 34 34 34 34 34 33 34 33 32 32 31 31 31 32
33 33 33 32 30 30 31 25 20 21 22 21 19 20 21 21 20 22 26 27 24 25 26 27 28 27 27 29 29 30 32 32 33 34 34 33 33 33 33 33 32 31 31 32
33 33 33 31 30 27 28 27 26 23 23 23 22 21 20 20 20 18 19 22 22 23 24 24 26 27 28 27 26 27 27 28 30 31 32 33 33 33 33 33 33 33 33 32
34 34 33 32 31 26 22 27 26 25 22 24 25 25 22 20 21 22 24 22 23 22 22 23 24 25 26 25 25 25 25 26 26 27 29 31 31 32 33 33 33 33 33 33
33 33 33 31 29 25 21 23 21 21 22 23 24 24 23 22 22 21 20 21 22 21 21 22 22 23 23 23 23 24 25 26 26 25 26 26 28 30 31 32 32 32 33 33
30 32 32 30 25 20 19 16 14 14 11 12 15 17 19 20 20 19 17 19 20 19 19 20 20 21 22 21 22 22 23 23 24 24 24 24 25 25 26 28 30 32 32 33
26 27 26 23 19 20 23 21 16 13 13 14 12 14 17 19 19 18 17 16 16 16 16 17 18 20 21 21 21 20 21 22 22 22 22 24 23 24 23 24 26 26 29 30

GFSNGP_sfc_dewp_096.txt.gz
Dewpoint
29 29 31 31 32 32 30 31 28 26 25 25 26 26 26 29 32 36 38 39 39 39 40 41 42 42 41 41 40 40 40 40 39 39 39 38 38 38 38 38 38 38 39 39
28 29 30 30 32 31 31 30 28 28 28 28 28 28 29 30 32 34 38 39 39 40 40 40 41 41 41 40 40 40 40 39 39 38 38 38 38 38 38 38 38 38 39 39
29 27 27 26 29 31 31 31 31 29 30 31 30 30 30 31 31 33 36 39 40 40 40 40 41 41 40 40 40 39 39 39 39 38 39 39 38 38 38 38 38 38 38 38
23 23 18 23 26 29 30 30 30 30 30 31 31 31 32 32 32 30 35 38 40 41 41 41 41 41 40 40 39 40 39 38 39 39 39 39 38 38 37 37 38 38 36 37
24 19 22 26 28 27 28 29 32 31 32 32 32 34 34 35 35 33 32 36 40 41 41 42 40 40 40 39 39 40 39 38 39 39 39 38 37 37 38 38 36 35 37 37
25 21 17 26 29 31 30 28 34 35 34 32 32 31 33 36 36 37 37 39 41 42 43 42 41 40 39 39 38 39 39 39 39 39 39 38 37 38 36 37 35 36 36 37
25 23 22 28 30 32 25 32 37 37 33 32 33 34 35 36 37 37 38 39 40 42 43 43 42 40 39 39 39 40 40 39 39 39 38 37 36 37 36 35 35 35 35 35
25 22 19 31 32 30 33 37 38 38 33 34 37 37 37 37 37 38 37 39 41 41 40 41 41 40 40 39 40 40 39 39 39 38 38 38 37 36 35 35 34 33 32 31
25 25 27 28 28 29 31 31 38 38 36 37 37 37 37 37 37 37 36 37 38 39 39 39 40 40 39 39 40 39 38 38 37 38 37 36 36 35 34 33 32 31 30 30
26 28 28 31 32 32 32 38 39 39 39 39 38 38 39 39 38 37 37 36 37 37 37 37 38 38 39 39 39 38 37 37 37 36 36 35 35 34 33 32 31 30 29 29
27 30 32 32 33 36 37 39 39 39 39 41 40 38 39 39 38 37 37 36 36 36 36 36 36 36 36 37 37 36 36 36 37 36 36 35 35 33 33 32 32 31 31 30
33 31 29 30 32 37 37 38 39 38 38 38 38 38 38 38 38 38 37 37 37 36 36 37 36 36 35 36 36 36 35 36 36 35 35 35 34 33 36 35 35 35 34 32
30 33 33 34 35 38 38 37 37 37 38 36 37 37 37 37 37 37 35 36 36 37 37 37 36 35 36 36 36 36 36 36 36 36 35 34 33 32 31 34 37 37 37 37
33 34 33 35 35 37 37 37 37 37 36 37 37 36 36 35 35 34 34 33 33 34 37 37 36 36 36 36 36 36 36 38 36 35 35 34 33 32 32 31 31 32 37 38
33 34 33 35 35 36 36 36 35 36 35 35 35 35 34 34 34 34 33 32 32 33 33 34 34 36 36 36 36 36 36 36 36 35 34 34 33 32 32 32 32 32 31 34
33 34 35 35 36 36 34 35 35 34 35 34 34 33 33 33 33 33 32 32 32 32 32 34 35 35 36 36 36 36 36 37 36 34 34 34 33 32 31 31 32 32 31 30
33 31 33 34 34 35 34 35 35 35 34 32 31 31 32 32 32 31 31 31 32 32 34 33 33 34 34 36 36 36 36 35 37 35 33 33 33 32 32 31 31 32 31 32
35 35 35 35 36 37 35 34 33 32 30 30 30 30 30 29 29 29 30 31 32 33 31 31 33 33 34 34 35 36 36 35 34 34 33 33 32 32 32 32 31 31 32 32
34 34 35 35 35 36 35 35 34 30 27 26 26 26 27 26 27 26 28 29 29 27 28 29 31 32 32 33 35 36 35 34 34 34 34 35 34 33 32 32 32 32 32 32
32 32 31 32 33 34 32 32 31 28 25 25 24 22 22 23 24 23 25 27 29 27 27 28 28 28 28 30 31 32 34 33 34 34 34 33 33 33 32 33 32 32 32 32
32 30 30 29 30 29 26 24 21 24 26 24 20 21 22 22 23 22 23 23 25 25 25 27 27 26 26 27 28 28 30 32 32 33 33 33 33 33 32 32 32 32 32 32
31 30 30 31 30 30 31 28 24 24 26 27 25 21 21 21 21 21 21 25 24 24 24 24 24 26 26 28 25 26 26 26 27 29 31 32 32 32 32 33 32 32 32 32
32 31 30 28 27 27 29 30 29 29 26 25 24 23 21 21 22 20 18 22 23 23 22 22 24 25 26 23 23 23 23 23 24 24 26 27 29 31 31 32 33 33 33 32
32 31 30 31 31 28 26 28 28 27 24 24 24 24 23 21 22 23 23 22 22 23 22 22 23 24 25 22 22 22 22 22 24 24 23 25 24 26 26 29 31 32 32 32
32 32 32 30 26 28 27 26 23 23 23 23 23 24 24 23 22 21 21 21 22 22 21 22 22 22 22 22 21 20 20 19 16 24 24 23 23 23 24 25 26 28 30 31
27 28 30 31 31 28 23 18 16 16 13 12 14 18 19 20 20 21 19 19 20 20 19 19 19 20 20 19 19 19 20 20 20 20 21 19 19 21 22 22 22 24 24 27
22 25 22 25 23 20 19 20 19 18 15 13 13 13 15 17 19 20 19 17 17 17 17 17 18 19 19 19 19 19 18 18 20 19 15 15 18 21 21 21 21 22 23 23

GFSNGP_sfc_dewp_099.txt.gz
Dewpoint
32 31 32 31 31 33 30 30 29 30 25 27 26 26 27 30 36 37 38 38 38 39 40 42 42 42 41 41 41 41 40 40 39 39 38 38 38 38 38 38 38 39 39 39
26 29 31 31 32 33 32 31 30 29 28 30 28 29 29 30 33 37 38 39 39 39 40 41 42 41 41 40 40 40 40 39 39 38 38 38 38 38 38 38 38 38 39 39
24 26 26 26 29 32 31 31 30 28 30 31 30 30 31 31 31 34 38 39 39 40 40 41 41 41 40 40 40 40 39 39 38 38 38 38 38 38 38 37 37 36 36 37
23 22 18 23 26 30 31 30 30 29 30 31 31 32 34 34 32 31 33 39 40 40 40 41 41 41 40 40 40 40 39 39 38 39 38 38 38 37 36 36 36 36 36 35
22 20 22 26 28 28 27 30 32 32 33 33 33 33 34 36 36 34 33 39 40 41 41 41 41 41 40 39 39 39 38 38 39 39 38 38 37 36 36 38 37 37 37 34
24 20 17 26 29 31 30 28 36 35 32 31 32 31 33 36 36 37 38 39 40 42 42 41 40 40 39 39 39 39 39 38 39 39 38 37 36 36 36 37 36 36 35 35
24 22 22 28 30 31 23 28 38 35 32 34 33 34 35 37 38 38 38 40 41 42 42 41 40 40 39 39 38 39 40 39 39 39 38 37 35 35 37 36 35 35 35 36
23 22 18 31 32 30 32 35 38 36 33 36 36 37 37 37 37 37 37 39 40 40 40 40 41 40 39 39 39 40 39 39 38 37 38 37 35 36 36 35 35 34 34 33
25 26 27 27 27 30 30 31 38 36 37 37 37 37 37 36 36 36 36 37 38 38 38 39 39 40 38 38 39 39 38 37 37 37 37 36 36 35 35 35 34 33 32 32
26 31 31 33 35 35 37 38 39 39 39 38 38 39 39 38 37 37 36 36 37 37 37 36 37 38 39 39 39 38 37 36 36 36 36 36 36 35 34 33 33 32 31 31
31 31 31 31 34 37 37 38 38 39 40 40 41 40 39 39 38 37 37 37 36 36 36 36 36 36 38 38 38 37 37 37 37 37 37 35 35 34 34 33 33 32 31 31
30 33 33 32 33 38 38 38 39 39 38 39 38 38 38 38 38 38 37 38 38 37 36 36 36 35 35 36 36 36 36 36 37 36 36 35 34 34 36 36 36 36 36 34
30 33 34 34 37 37 37 37 37 38 39 37 37 38 37 36 36 36 34 34 34 35 37 37 36 35 35 36 35 35 35 36 36 36 34 35 34 33 32 34 37 37 37 38
33 33 33 34 34 35 37 36 37 37 38 37 37 37 37 35 34 33 33 32 32 33 35 35 35 35 35 35 35 34 34 37 36 36 35 35 34 33 33 32 32 33 37 38
33 33 34 34 35 36 36 36 35 35 35 35 35 35 34 34 33 33 32 32 32 33 33 34 35 35 35 36 35 34 35 36 36 35 35 35 33 33 32 32 32 32 32 34
33 33 33 34 35 36 35 34 34 34 35 34 34 34 33 33 33 32 32 32 31 32 34 34 34 33 33 35 36 36 36 37 37 34 34 34 33 32 32 32 32 32 32 32
33 30 31 32 34 36 35 35 35 35 33 32 32 31 31 31 31 30 30 31 32 33 31 30 32 32 34 34 35 35 36 36 37 35 34 33 33 32 32 32 32 32 32 33
35 33 35 36 35 36 34 35 34 34 34 32 29 29 28 28 28 27 28 30 30 31 28 28 30 31 33 32 34 35 35 34 34 34 34 33 33 33 32 32 32 32 32 32
33 33 33 34 35 36 35 34 33 33 32 29 26 25 25 26 25 24 26 28 28 26 26 27 29 29 29 29 30 30 33 33 33 33 33 34 34 33 32 32 32 32 32 32
33 33 31 31 31 33 31 31 31 29 25 24 22 21 21 22 23 22 23 26 28 26 26 26 28 26 26 27 29 27 30 30 32 32 33 33 32 32 32 33 32 32 32 32
32 31 30 30 29 27 25 22 21 22 24 23 21 20 21 22 23 22 22 23 25 24 24 25 25 26 26 27 27 26 26 26 25 26 29 31 31 32 32 32 32 32 32 32
32 31 31 30 28 29 29 26 25 26 28 29 29 28 26 24 24 23 21 23 24 24 23 23 23 25 25 26 24 24 24 24 24 24 24 24 24 27 28 31 32 32 32 32
32 32 31 31 28 27 26 25 27 28 29 26 25 24 23 21 21 20 17 21 23 23 23 22 23 25 26 23 21 22 22 22 22 22 23 23 23 24 25 26 27 27 31 32
32 32 31 31 31 29 27 27 28 28 27 27 26 25 24 23 21 23 23 23 22 22 23 22 23 24 24 21 20 20 20 20 18 22 22 24 23 22 22 22 24 24 25 25
25 27 31 30 29 29 27 28 27 24 24 23 23 23 24 24 22 21 22 22 22 21 21 22 21 21 21 20 19 20 19 20 20 20 20 19 22 23 22 22 22 23 24 24
25 26 27 29 30 30 29 27 20 18 16 14 13 16 20 21 21 22 21 21 20 20 19 19 19 20 20 19 19 19 19 18 18 18 19 17 16 16 19 20 21 22 21 22
19 24 20 24 25 25 23 21 19 19 21 18 15 14 14 16 17 20 21 19 16 17 17 17 17 18 19 19 18 18 18 17 19 18 16 13 14 14 17 18 18 18 20 22

GFSNGP_sfc_dewp_102.txt.gz
Dewpoint
31 31 31 29 29 32 25 31 30 30 29 27 26 27 27 31 36 37 38 38 40 41 42 43 43 43 42 42 42 41 41 41 40 39 39 38 38 38 38 38 38 39 39 39
26 28 31 30 31 32 32 30 33 33 30 31 30 30 30 32 36 37 38 38 38 40 41 42 42 42 41 41 41 41 40 39 39 38 38 38 38 38 38 38 38 38 38 38
23 26 26 23 31 31 31 31 30 28 29 31 30 30 31 31 31 34 38 39 39 39 40 42 42 41 41 40 40 40 39 39 38 38 38 38 38 38 37 36 36 36 36 36
21 21 17 23 26 31 30 29 30 29 30 31 32 34 35 35 34 32 33 39 40 40 41 42 42 41 40 40 40 40 39 38 38 38 38 38 37 36 35 35 35 35 37 36
21 20 21 27 29 28 27 30 32 32 33 32 32 34 34 36 36 37 37 39 40 41 41 41 41 41 40 40 40 39 39 38 38 38 38 37 36 35 35 35 34 37 37 36
24 19 17 26 29 30 29 29 36 34 31 31 32 30 33 36 37 37 38 39 41 42 41 41 41 40 40 39 39 39 38 38 38 39 38 37 36 35 33 35 37 36 35 34
23 23 22 28 30 31 21 26 37 33 32 34 33 33 35 37 38 37 38 40 41 42 41 41 41 40 40 39 39 39 39 39 39 38 38 37 35 36 34 35 36 35 35 35
23 21 18 31 31 29 31 34 38 34 34 36 36 36 37 36 36 37 37 38 40 40 40 40 40 40 40 39 39 40 40 39 38 38 38 36 35 35 34 36 35 35 35 34
24 24 27 31 29 33 31 31 38 36 36 37 37 37 36 36 36 36 36 37 38 38 38 39 39 40 39 39 39 39 38 38 37 36 36 36 36 34 35 35 35 34 34 33
26 31 32 33 35 36 37 38 39 40 39 38 37 38 38 37 37 36 36 36 36 36 36 36 37 38 39 39 39 38 37 36 35 35 35 36 36 36 35 34 34 33 33 32
29 30 31 31 33 37 37 38 38 39 41 40 41 40 39 38 37 37 37 37 36 36 36 36 36 36 38 38 38 37 36 36 37 37 38 36 36 35 35 34 34 33 33 33
29 32 32 34 37 37 37 37 38 38 38 39 40 38 38 37 37 37 36 36 36 36 36 36 35 35 35 36 36 36 36 36 37 37 37 36 35 35 37 37 37 37 37 35
30 33 33 34 35 35 36 37 37 38 38 37 37 38 37 36 35 35 33 32 32 34 36 36 36 35 35 35 35 35 35 35 35 37 36 35 34 34 33 34 37 38 38 38
32 33 32 33 32 34 35 36 37 37 38 39 38 38 37 37 36 33 32 32 32 33 33 34 34 33 34 34 34 33 33 36 35 34 34 35 35 34 33 33 32 33 35 38
31 32 32 34 35 36 36 36 35 35 35 35 35 34 34 33 33 32 32 32 32 32 33 34 33 32 33 34 35 33 33 34 35 35 35 35 34 33 33 33 32 33 32 34
32 32 32 32 33 35 36 34 34 34 35 35 34 34 34 34 32 31 31 32 31 32 32 32 32 32 33 35 35 35 36 37 37 35 34 34 34 33 33 32 32 32 32 32
32 30 31 31 31 34 36 35 34 34 32 32 32 32 31 31 30 29 29 31 33 31 28 28 30 30 33 33 34 35 35 35 37 35 34 34 33 33 33 32 32 32 32 33
35 34 33 34 34 35 35 35 35 34 34 33 33 32 29 27 26 26 26 29 30 29 26 27 28 29 30 29 30 31 34 33 33 33 33 33 33 33 33 32 32 32 32 33
32 32 32 33 34 35 35 34 34 33 32 32 31 30 29 28 25 23 24 27 27 26 24 26 29 28 26 27 29 27 29 30 32 32 32 34 33 33 32 32 32 32 32 32
33 33 32 31 31 32 32 32 31 29 26 25 23 22 21 23 23 22 22 25 28 25 25 25 26 26 26 26 29 26 26 26 27 28 29 31 32 32 32 33 32 32 32 32
32 32 31 30 30 28 24 22 22 24 23 22 20 21 23 26 28 26 24 24 27 25 25 24 24 24 25 27 26 25 25 24 24 24 24 24 24 25 28 30 31 32 32 32
31 31 31 31 30 29 29 27 24 23 25 26 28 29 29 27 26 24 23 22 25 23 24 23 23 25 25 26 23 23 23 23 23 23 22 22 23 23 22 23 25 25 26 29
32 32 32 31 30 28 29 28 28 28 28 28 27 24 24 22 21 19 17 22 24 23 23 23 23 24 25 22 22 22 22 21 22 22 23 23 24 23 22 22 22 23 23 25
29 30 31 31 31 29 24 23 26 29 28 28 28 27 26 24 24 25 24 24 23 22 22 22 23 22 22 22 20 19 20 20 18 15 16 24 22 23 22 22 22 21 22 23
25 24 23 28 30 30 30 29 27 27 27 24 24 23 23 25 22 21 22 22 23 22 22 22 20 20 21 20 18 16 17 14 11 13 13 13 14 16 17 18 18 20 22 24
24 25 26 27 28 30 29 29 28 26 20 17 17 16 17 21 22 24 22 22 21 21 19 19 19 20 19 19 18 18 17 17 17 17 17 15 14 14 15 16 17 18 19 18
18 24 19 23 24 25 25 25 23 22 21 21 20 18 15 15 17 19 20 19 19 16 17 17 17 18 19 18 18 17 16 15 17 16 12 11 12 11 14 15 15 16 16 17

GFSNGP_sfc_dewp_105.txt.gz
Dewpoint
32 30 30 29 29 30 22 26 21 29 28 27 28 27 28 30 36 37 38 38 40 41 41 42 43 43 43 43 43 43 42 41 41 40 39 39 38 39 39 39 39 39 39 38
24 28 30 29 30 30 31 32 32 31 29 32 31 32 31 31 34 36 38 38 39 41 41 41 42 42 42 42 41 41 41 40 39 39 38 38 38 38 38 37 37 37 37 37
20 24 27 22 26 30 31 31 32 29 31 31 30 31 32 33 32 31 33 39 39 40 41 42 42 42 41 41 41 40 40 39 38 38 38 38 37 37 36 36 36 35 35 35
22 20 16 22 27 31 30 30 30 29 30 32 32 34 35 35 35 33 34 38 39 40 40 42 42 42 41 40 40 40 39 38 38 38 38 37 37 36 35 35 34 34 37 37
21 19 20 26 29 31 28 30 34 32 32 31 32 34 34 36 36 36 37 38 39 41 41 42 42 41 40 40 40 39 39 38 38 38 38 37 36 34 34 34 34 34 37 37
23 18 17 25 28 29 30 29 36 33 31 32 32 29 32 36 37 37 38 40 41 42 41 42 41 41 40 39 39 39 39 39 38 38 37 36 35 34 34 34 34 36 36 36
23 20 22 25 31 31 22 23 37 33 32 33 32 32 35 37 37 37 38 39 41 41 41 41 41 41 40 39 39 39 39 39 38 38 37 36 34 36 35 33 33 36 35 35
23 21 17 28 31 28 29 35 38 35 34 35 35 36 36 36 36 36 37 38 39 39 40 40 41 41 40 39 40 40 39 39 38 38 38 36 35 35 33 35 36 36 35 34
23 23 29 33 32 35 36 31 37 35 35 37 36 36 36 36 36 36 36 36 37 38 38 38 39 40 39 39 39 39 38 37 37 36 36 35 34 35 36 36 35 35 34 34
27 30 30 32 34 36 37 37 37 38 38 38 36 37 37 37 36 36 36 36 36 36 36 36 37 39 39 39 39 38 37 36 36 35 35 35 36 36 36 35 35 34 33 33
28 28 29 32 34 35 37 38 38 39 40 40 40 39 39 37 37 37 37 37 37 36 36 35 35 36 37 38 38 37 37 36 36 36 36 35 36 36 35 35 35 34 34 34
29 31 31 33 35 36 36 36 37 38 38 40 41 40 38 37 37 36 34 34 35 36 35 35 35 34 35 35 36 36 36 36 36 37 35 36 35 35 38 38 37 38 38 36
30 31 33 33 35 34 34 36 37 37 37 38 38 38 37 36 35 35 32 32 32 34 35 35 34 33 33 34 34 34 33 34 34 36 36 36 35 34 32 35 38 38 39 39
30 31 31 32 31 34 35 35 36 35 36 38 38 38 37 36 35 33 33 32 33 33 33 33 32 31 32 33 33 33 32 35 32 32 32 34 34 32 33 33 33 33 35 37
30 31 31 31 32 33 34 35 33 34 34 34 35 35 35 34 33 32 32 31 32 33 32 33 31 31 32 34 35 35 34 32 32 32 33 34 33 34 34 33 33 33 33 34
31 31 32 31 31 33 35 35 35 35 35 35 34 34 34 34 33 32 32 32 30 31 31 31 31 30 32 33 32 34 36 36 37 35 34 34 34 33 33 33 33 33 33 33
28 28 30 31 31 32 33 34 34 34 33 33 34 34 34 34 33 30 28 30 31 30 26 28 28 29 32 30 31 32 34 33 35 33 33 34 33 33 33 33 32 33 33 34
32 33 33 33 33 33 33 35 35 35 34 33 34 33 31 29 27 25 25 28 29 27 25 25 28 28 27 26 28 27 28 32 32 32 32 32 33 33 33 32 32 32 33 33
32 32 32 32 33 34 35 34 34 34 33 32 31 30 30 30 28 27 26 27 27 26 24 24 28 27 26 26 29 26 27 26 27 28 30 32 32 32 32 32 32 32 32 32
32 33 32 31 31 31 32 32 32 30 28 27 24 26 23 23 24 23 23 24 27 26 25 25 24 25 26 26 28 25 25 24 24 24 25 25 26 28 29 31 31 32 32 32
31 32 31 30 30 30 26 22 22 27 24 21 19 19 21 24 27 28 27 26 27 26 25 24 24 23 24 27 26 24 24 24 24 23 23 23 23 23 23 23 24 25 26 27
32 31 31 31 30 30 29 28 24 21 23 25 25 26 27 27 26 25 26 24 26 25 25 24 24 24 26 26 23 22 22 22 22 22 22 22 23 23 23 24 23 24 24 24
32 31 31 31 31 30 30 29 28 27 27 26 26 26 24 23 22 19 18 21 25 24 24 24 24 25 25 23 22 21 21 21 21 21 21 20 22 21 24 23 22 23 23 20
26 29 29 31 31 30 28 28 27 29 29 27 26 26 26 25 24 25 25 25 26 26 24 23 24 24 23 22 21 20 20 20 19 17 17 21 14 14 15 19 18 18 19 19
25 23 21 22 27 30 30 30 29 28 27 26 26 25 24 24 23 20 20 23 25 24 22 22 22 21 21 20 19 18 18 16 12 14 13 12 13 12 14 15 15 16 17 19
25 25 25 26 27 27 29 30 29 29 27 24 21 19 18 20 21 23 20 22 22 22 22 20 19 19 19 18 18 18 18 17 16 16 17 15 13 13 14 15 15 15 16 16
17 24 17 22 23 25 25 25 25 25 25 24 22 21 19 16 17 19 20 18 19 19 18 17 18 18 18 19 18 17 16 15 17 17 15 13 12 12 13 14 13 14 15 15

GFSNGP_sfc_dewp_108.txt.gz
Dewpoint
31 30 30 29 29 30 22 25 19 26 26 27 29 29 30 32 36 37 38 38 40 41 41 42 43 44 44 43 43 43 43 42 41 40 40 39 39 39 39 39 39 39 38 38
24 27 30 29 30 29 30 30 30 29 28 31 32 31 31 31 31 33 37 38 39 41 41 41 41 43 43 43 42 43 41 40 39 39 38 38 38 38 38 37 38 38 37 37
19 23 27 21 24 30 31 30 31 27 30 30 30 32 33 34 33 32 34 38 39 39 41 41 42 42 42 41 42 41 40 39 39 38 38 38 37 37 36 36 36 35 35 35
20 19 16 22 29 29 30 30 30 29 31 32 32 34 35 35 35 35 36 37 38 40 40 41 42 41 41 41 40 40 39 38 38 38 37 37 37 36 35 35 35 36 37 37
20 18 19 26 29 34 31 31 34 32 32 31 33 34 34 36 37 36 37 38 40 41 41 41 41 41 40 39 39 39 38 38 38 38 37 36 36 35 35 35 34 33 36 37
23 17 17 23 28 29 31 28 35 32 31 32 32 27 31 36 37 37 38 39 40 41 42 41 41 41 40 39 39 38 38 38 38 38 37 37 36 35 34 34 35 34 36 36
22 19 21 25 30 32 20 20 37 33 32 34 31 32 35 36 36 37 37 38 40 40 40 40 41 41 40 39 38 39 39 39 38 38 37 37 35 36 36 33 33 35 36 36
22 20 17 29 30 25 28 33 36 35 33 34 34 36 36 36 36 36 36 37 38 38 38 39 40 41 39 39 40 40 39 39 38 37 38 36 35 36 33 33 33 35 35 34
23 23 29 32 32 34 36 33 35 34 34 36 36 35 35 35 36 36 36 36 36 37 36 37 40 40 39 38 39 39 39 38 38 37 37 36 35 35 34 34 35 36 35 34
27 29 29 31 32 34 36 35 36 37 37 36 35 37 36 36 35 36 36 36 36 35 35 35 38 39 39 39 39 39 38 37 36 36 35 34 35 35 35 36 35 34 34 33
26 27 28 31 32 34 36 36 37 37 38 37 38 39 38 37 37 36 36 36 36 36 35 35 35 35 36 38 38 38 37 37 36 36 37 35 35 35 35 36 34 33 33 34
27 30 30 31 34 34 34 35 36 37 37 39 41 41 38 36 36 34 33 33 34 34 34 35 33 33 34 35 35 36 36 36 36 36 36 36 34 36 38 38 38 38 38 36
31 31 32 32 34 33 33 34 35 35 36 38 38 38 37 35 34 35 32 32 32 33 33 34 33 32 32 33 34 33 33 33 33 35 36 37 36 35 34 35 39 39 39 39
30 30 29 31 30 33 34 35 35 34 35 36 37 38 37 36 35 33 33 32 33 33 33 33 32 31 32 33 33 32 32 35 32 31 31 32 32 32 34 33 33 33 36 38
29 30 30 30 30 32 33 33 32 33 33 33 35 35 35 35 34 32 32 32 32 33 32 32 31 30 32 34 33 34 35 35 34 32 30 32 32 33 33 33 33 33 33 35
30 30 30 29 29 31 32 33 32 34 35 35 34 33 34 34 33 32 32 32 32 32 32 30 30 29 32 31 31 33 34 35 36 34 34 34 34 33 33 33 33 33 33 33
29 28 28 28 30 31 32 32 33 33 33 33 34 35 35 35 34 32 31 31 32 29 25 26 27 28 31 27 29 30 28 31 33 32 32 32 33 33 33 33 32 32 33 34
30 31 31 31 31 32 32 34 36 35 34 34 34 33 31 30 29 28 26 26 30 29 26 24 26 28 26 25 28 26 26 28 27 29 32 32 32 32 32 32 32 32 32 33
31 31 31 32 33 33 34 34 34 34 33 32 31 30 30 28 28 26 25 25 27 27 26 24 25 26 26 25 28 25 25 25 24 25 25 27 27 30 31 31 32 32 32 32
30 31 32 32 31 31 32 32 32 31 30 29 27 28 25 23 23 23 22 21 24 27 25 25 24 22 25 25 28 24 24 24 23 23 23 24 24 24 24 25 25 26 27 29
30 31 31 30 30 30 29 24 21 26 27 24 20 21 19 21 24 24 23 23 26 28 28 26 25 23 23 26 27 24 23 22 23 23 22 22 22 23 23 23 23 23 24 25
27 28 30 31 30 30 30 28 25 22 21 23 24 24 25 26 25 24 25 24 24 27 25 25 25 24 26 27 24 22 22 21 21 22 22 21 22 23 23 23 22 23 24 24
24 27 30 31 31 30 30 30 29 28 25 26 24 25 26 26 23 20 18 18 23 25 25 25 24 25 26 24 22 21 21 21 21 21 20 19 20 21 21 21 22 22 21 20
24 26 26 28 31 30 29 29 29 29 29 28 26 25 25 24 24 24 24 26 26 26 25 24 24 24 24 23 21 20 20 20 19 18 17 20 15 16 17 18 18 18 17 17
24 22 20 22 28 29 26 28 30 29 29 27 25 26 26 26 25 22 19 21 25 25 21 24 23 23 22 20 20 19 18 17 13 14 15 14 15 15 15 15 15 15 15 15
24 25 25 26 27 27 26 26 26 28 29 28 27 25 22 20 21 23 20 21 20 22 19 19 20 19 19 19 18 19 19 18 17 16 17 15 14 13 14 14 14 14 14 14
17 24 20 21 23 24 24 25 24 25 26 25 24 24 23 21 17 19 21 20 20 19 18 17 17 18 18 18 19 18 16 15 17 16 14 12 11 11 13 13 13 14 14 14

GFSNGP_sfc_dewp_111.txt.gz
Dewpoint
30 31 30 30 30 31 27 28 23 27 26 28 29 30 31 31 33 35 37 38 41 42 42 43 43 44 44 44 45 46 45 45 44 43 42 41 41 40 40 40 40 39 39 39
24 30 29 27 29 30 31 30 30 29 29 30 31 32 33 33 32 33 36 39 39 40 42 42 43 43 43 43 43 44 43 42 41 40 40 40 39 39 39 39 39 39 39 39
20 23 26 21 24 30 30 31 30 28 30 31 32 33 34 34 35 35 36 36 38 39 40 42 43 43 43 42 43 42 41 40 39 39 39 39 38 38 38 38 38 38 37 38
21 18 16 21 29 29 31 32 31 31 32 32 33 34 35 36 35 36 36 37 38 40 41 41 42 42 41 42 41 42 40 39 39 39 38 38 38 38 38 38 38 38 39 38
20 18 20 27 28 33 30 32 35 32 30 32 33 33 34 37 37 36 37 38 40 41 41 41 42 41 41 40 40 40 39 39 39 38 38 37 37 37 37 37 37 37 38 39
23 17 17 25 27 30 32 29 35 31 31 32 31 27 30 36 36 36 37 38 39 40 41 41 41 41 40 39 39 39 39 39 39 38 38 38 37 37 36 37 37 38 38 38
23 20 21 24 28 31 20 23 37 33 33 33 31 32 35 36 36 36 37 37 39 39 40 41 41 41 40 39 40 40 40 39 39 39 38 38 37 37 37 37 36 38 37 37
22 20 17 31 30 26 26 33 37 36 34 35 35 36 36 36 36 36 36 36 38 38 38 40 41 41 40 40 40 40 40 39 39 39 38 37 37 38 36 36 36 37 37 36
22 23 28 33 33 35 36 34 36 37 36 36 36 36 36 36 36 36 36 36 36 37 37 39 40 41 40 39 40 40 39 39 38 38 37 36 37 36 35 35 35 36 36 35
27 29 29 32 33 35 36 36 37 38 38 37 36 36 37 36 36 36 36 36 36 35 35 35 36 37 39 39 39 39 38 38 38 37 37 36 37 36 36 36 36 36 35 35
26 27 29 31 33 34 36 36 36 37 39 39 38 38 38 37 37 36 35 36 36 35 35 35 35 35 35 36 39 39 39 38 38 37 38 36 36 36 36 36 37 36 36 35
26 29 29 30 34 34 34 35 36 37 37 38 41 41 38 37 36 34 32 33 34 34 34 34 33 33 33 34 35 35 37 37 37 37 37 37 36 36 38 38 38 39 38 36
31 32 32 34 33 34 34 34 35 35 36 37 38 39 38 35 34 34 32 32 33 33 34 33 32 32 33 34 34 34 33 34 34 34 35 37 36 36 35 36 40 40 39 39
30 31 30 31 31 32 33 34 35 34 35 36 37 37 37 36 35 33 33 32 33 34 34 33 32 31 32 34 34 34 34 35 33 33 33 33 33 33 34 34 34 35 37 39
30 29 30 31 31 31 32 33 32 33 33 33 34 34 35 35 34 32 32 33 33 32 32 32 32 30 32 32 32 32 34 35 35 35 34 35 34 34 34 34 34 34 34 35
30 30 30 30 30 31 31 31 31 32 34 34 34 33 34 34 33 31 31 32 32 32 32 31 30 30 31 29 30 32 30 33 34 33 33 33 33 33 33 33 33 33 33 33
29 28 28 28 30 30 31 32 33 33 33 33 33 35 36 35 34 31 31 31 33 32 26 25 26 28 28 26 28 28 26 29 31 31 32 32 32 32 32 32 32 32 32 34
29 30 30 30 30 30 32 34 35 35 35 34 35 34 31 31 30 29 25 24 27 29 27 23 25 29 26 24 28 25 25 26 25 26 27 27 31 32 32 32 32 32 32 33
30 30 30 31 32 33 33 34 34 34 34 33 31 29 29 30 29 27 25 23 24 26 26 23 24 24 26 26 29 26 24 24 23 23 23 25 25 25 27 27 28 29 29 31
30 30 31 31 31 31 32 33 32 32 31 30 29 29 28 26 24 24 23 21 21 24 25 24 25 23 23 24 26 26 23 22 22 22 22 23 22 23 23 23 23 23 24 25
29 29 29 30 29 30 29 27 24 25 28 26 24 22 23 20 22 24 27 26 26 28 28 28 25 24 23 24 27 25 22 21 21 21 21 21 21 22 22 22 23 22 22 24
26 27 27 27 28 30 30 28 26 24 21 23 23 23 24 26 26 25 26 26 24 26 25 24 24 24 24 27 25 23 21 20 20 20 21 20 19 20 22 23 23 23 23 24
24 25 27 26 25 27 30 30 29 29 26 24 23 24 25 26 26 23 20 20 22 24 25 24 25 25 25 25 23 22 21 21 20 20 21 20 20 21 21 19 20 21 21 20
23 26 25 28 27 26 25 25 29 30 29 29 29 28 26 25 26 25 24 26 29 27 25 25 25 25 25 24 23 21 20 20 20 20 19 20 20 19 18 18 18 18 18 18
24 22 20 23 28 28 28 25 24 26 26 29 29 28 28 28 28 26 24 21 24 25 23 27 27 25 23 22 21 21 20 20 19 18 18 18 17 17 17 17 17 17 17 18
24 25 25 25 28 28 28 26 26 26 26 27 27 28 27 26 24 25 22 22 20 22 21 19 20 20 18 18 19 19 19 19 19 18 18 18 17 16 16 15 15 15 16 16
17 25 23 22 22 23 23 24 24 24 26 25 24 25 25 24 22 21 21 19 21 20 19 19 18 19 17 18 18 19 19 18 18 17 17 15 15 13 13 14 14 14 14 14

GFSNGP_sfc_dewp_114.txt.gz
Dewpoint
30 30 30 31 30 29 32 28 30 26 27 29 30 32 32 32 35 37 38 39 40 42 43 44 44 45 48 49 50 51 52 52 51 50 49 49 48 47 45 45 44 43 41 41
28 26 27 27 29 29 29 28 28 28 28 31 32 33 33 33 34 34 35 37 39 40 42 43 43 44 45 47 48 49 49 48 47 45 45 45 44 44 43 42 41 41 41 41
24 24 26 25 28 30 30 30 30 28 30 32 32 33 34 34 34 35 35 36 38 40 41 43 43 44 43 44 44 45 44 44 43 43 42 42 41 41 41 41 41 41 40 41
23 20 18 25 31 31 32 33 32 32 31 32 33 35 36 36 35 35 36 37 39 40 41 41 43 43 43 43 43 43 42 41 41 41 41 40 40 41 41 41 41 41 41 41
21 20 23 26 29 33 31 32 33 30 31 32 34 34 36 37 36 37 37 39 40 41 42 42 43 42 42 42 42 42 41 41 41 40 40 40 40 41 41 41 41 41 40 40
25 19 18 25 28 31 32 29 35 32 32 32 31 27 33 37 36 37 38 39 40 41 41 42 42 42 42 41 41 42 41 41 40 40 40 40 40 40 42 41 40 40 40 40
24 22 22 25 29 31 21 29 37 34 35 34 32 35 36 37 37 37 37 39 40 40 41 42 42 42 42 41 42 41 41 41 41 40 41 40 41 40 40 40 40 39 39 39
24 23 20 31 31 25 31 36 38 36 36 36 36 37 37 37 37 37 37 37 39 40 40 41 43 42 42 42 42 41 41 41 41 41 39 39 40 39 39 39 39 38 38 37
23 23 31 35 35 36 36 37 38 38 37 37 37 37 37 37 37 37 37 36 37 38 38 38 39 40 41 40 41 40 40 40 40 39 39 38 38 38 37 37 37 37 37 37
28 30 32 34 36 38 38 38 39 40 39 38 37 37 38 37 37 37 37 37 37 36 36 35 35 35 36 38 40 39 39 39 39 39 38 37 38 38 37 37 37 38 37 37
28 31 32 33 35 37 37 37 37 38 40 39 38 38 38 38 37 36 36 36 36 36 35 35 35 35 35 35 38 39 40 39 39 38 38 37 37 37 37 37 38 38 38 38
25 30 30 31 35 35 35 35 37 38 38 39 41 40 39 37 36 34 33 34 35 35 35 34 33 33 34 35 35 35 36 37 38 38 38 38 38 38 39 39 39 39 39 38
30 32 34 35 35 35 34 35 36 37 38 38 38 39 38 36 34 34 33 33 34 34 35 34 33 33 33 34 34 35 35 35 35 35 35 36 37 36 35 38 40 40 40 40
33 34 33 34 33 35 35 36 37 36 36 37 38 38 37 36 35 33 33 33 33 34 34 33 32 32 33 33 33 34 34 35 35 34 35 35 35 35 35 36 36 36 38 40
33 31 32 34 34 34 34 35 35 34 35 35 35 36 37 36 35 34 33 33 33 33 32 32 31 30 32 32 32 32 33 34 34 35 35 36 36 35 35 35 35 35 36 36
32 32 32 32 32 33 33 33 33 33 35 35 35 34 35 35 34 33 32 32 32 33 32 31 30 29 31 30 30 31 30 29 32 34 34 34 34 34 34 34 34 34 34 34
31 31 31 31 32 31 31 31 32 33 34 34 34 35 35 35 34 32 32 32 32 32 29 26 25 27 28 26 28 28 26 26 28 26 28 30 32 33 33 33 33 33 33 34
31 31 31 30 30 31 31 32 33 34 34 35 36 35 33 33 33 32 29 24 24 29 28 27 23 26 26 24 26 26 24 24 24 24 24 24 27 28 30 31 32 33 32 33
30 30 30 31 31 31 31 32 34 34 35 34 33 32 31 31 30 29 27 24 22 24 25 27 24 24 22 25 27 28 25 23 23 23 23 24 24 23 25 25 25 26 27 28
31 31 32 32 32 32 32 33 33 33 32 32 31 30 29 29 27 24 24 23 21 22 27 26 24 23 22 22 25 26 24 21 20 20 21 21 21 21 22 22 23 22 22 23
32 32 32 31 30 30 30 30 29 29 30 29 28 27 25 25 22 23 24 26 29 30 30 28 28 26 22 22 26 27 24 21 19 19 20 19 19 20 21 21 22 22 21 21
32 32 32 32 31 30 30 29 28 27 24 24 26 25 23 23 24 26 28 29 29 26 26 27 28 26 23 24 27 26 23 20 19 19 20 20 20 19 21 22 23 22 22 23
31 31 31 31 31 32 32 31 31 30 29 28 25 23 24 24 27 27 27 25 24 23 24 25 26 27 26 25 27 25 23 22 21 21 21 22 22 21 22 21 20 21 22 21
31 31 31 31 30 30 30 31 32 32 31 30 30 30 28 28 28 28 28 29 30 28 28 26 26 28 27 26 26 25 24 21 21 22 21 21 22 21 21 20 20 20 20 19
30 30 29 29 29 29 30 30 29 29 30 30 31 31 31 30 30 30 30 30 29 26 24 26 28 28 26 25 25 25 23 23 23 22 21 21 21 20 19 19 19 19 19 20
28 28 29 28 29 29 29 29 28 28 28 28 29 30 30 29 29 30 29 28 25 25 25 25 25 26 24 23 23 20 19 19 20 21 21 20 20 19 18 18 17 17 18 18
26 28 27 26 26 26 27 28 27 26 27 28 28 28 27 27 26 26 24 21 21 22 23 22 23 23 23 21 20 20 19 20 21 20 20 20 19 19 17 16 17 17 17 17

GFSNGP_sfc_dewp_117.txt.gz
Dewpoint
27 29 28 28 28 28 31 28 30 27 28 30 31 31 32 33 35 36 37 41 44 45 43 44 45 49 51 52 53 55 55 54 54 54 53 53 52 53 52 52 50 48 45 44
27 26 27 28 29 29 29 28 28 28 29 32 32 33 33 33 34 34 35 37 39 42 45 44 44 45 48 50 51 52 52 50 50 50 50 49 48 47 48 46 44 43 43 42
25 25 25 23 29 29 30 30 29 29 30 31 32 34 34 34 34 35 36 37 38 40 41 43 43 44 44 46 48 48 48 47 47 47 46 46 46 46 47 45 43 43 43 42
22 21 18 26 32 33 32 32 31 30 30 31 33 35 36 36 35 36 37 38 39 40 42 42 43 43 43 44 44 45 45 46 46 45 45 44 44 43 43 43 43 43 43 44
21 20 23 26 29 32 34 31 30 29 30 30 33 34 36 36 36 37 39 40 40 41 42 42 43 43 43 43 43 43 42 42 43 42 42 41 42 42 42 43 43 42 42 42
24 20 18 24 29 32 32 30 33 32 32 31 30 29 34 37 37 37 39 40 40 41 42 42 42 42 42 42 42 42 42 42 42 42 42 42 44 43 43 42 41 42 41 41
22 21 23 26 30 31 24 31 35 34 34 34 34 35 37 38 38 37 38 39 41 41 42 42 43 43 42 42 42 42 42 42 42 42 42 42 42 42 42 41 41 41 40 40
22 20 21 31 31 27 34 38 36 36 36 36 36 37 38 38 37 38 37 37 40 40 40 40 42 42 42 41 42 42 42 41 42 42 41 41 41 41 41 40 40 39 38 38
24 25 32 34 35 36 35 36 37 37 38 37 37 37 38 37 37 37 37 37 37 38 37 37 38 39 39 39 41 41 40 41 40 40 39 39 39 39 38 39 39 38 38 38
27 30 33 34 37 37 37 38 39 40 38 38 37 38 38 37 37 37 37 37 37 36 36 35 35 36 36 37 41 40 39 39 39 39 39 38 39 39 38 38 38 38 38 38
26 30 32 33 35 37 37 38 38 39 40 38 38 38 38 38 37 36 36 36 36 35 35 34 34 35 35 36 37 39 40 40 40 39 39 38 38 38 38 38 39 39 39 39
21 27 28 30 34 37 36 36 37 38 38 39 40 39 39 38 37 35 34 34 35 35 35 34 33 33 34 34 35 35 35 36 37 38 39 38 38 38 40 41 41 41 41 40
27 30 31 33 35 35 35 35 36 36 38 38 38 40 39 38 36 34 33 34 34 35 35 34 33 34 34 33 34 34 35 35 35 35 35 35 37 37 36 38 41 41 41 41
32 34 34 34 34 35 35 36 37 36 36 37 37 38 38 38 36 34 34 34 34 34 34 34 33 33 33 33 33 34 34 35 35 35 35 34 35 35 36 36 36 37 40 41
33 32 33 34 34 35 35 35 35 35 35 35 36 36 37 37 36 35 34 33 33 33 33 33 32 31 32 32 32 32 32 32 33 35 35 35 35 35 35 35 35 35 36 36
33 32 34 34 34 34 34 34 33 32 33 34 34 35 35 35 35 34 33 32 33 33 33 32 30 29 27 29 27 28 28 27 29 32 32 33 33 33 33 33 34 34 34 34
32 32 32 32 32 32 32 32 32 32 34 34 34 35 35 35 35 34 33 32 32 32 32 30 27 26 26 25 25 26 26 25 26 25 26 27 28 32 32 32 32 32 33 34
33 33 32 31 31 30 30 31 31 32 33 35 35 35 35 35 34 34 33 30 25 24 28 28 27 24 25 24 23 25 24 24 24 24 24 24 25 27 26 28 29 31 32 33
31 31 31 30 30 30 31 31 33 34 35 35 34 34 33 32 32 31 30 28 26 24 24 27 28 24 21 23 26 26 27 24 22 22 23 24 25 24 24 25 24 24 26 27
31 31 31 32 31 31 31 31 32 33 33 33 32 31 30 30 30 29 26 25 25 23 27 28 26 23 22 24 25 25 25 23 21 20 21 21 22 21 22 22 23 22 22 22
32 32 32 31 31 30 30 31 31 30 31 31 30 30 29 28 27 26 25 24 27 31 31 30 28 27 28 24 23 25 26 24 21 19 20 20 19 20 20 21 22 22 22 22
34 34 34 33 32 31 30 29 29 29 28 26 28 29 27 25 24 24 25 25 29 30 28 28 28 29 28 25 24 26 27 24 21 20 21 21 21 21 22 22 23 23 23 24
34 34 33 33 33 34 33 32 32 31 30 29 28 27 25 24 25 27 27 30 30 28 26 25 27 28 28 27 26 27 26 24 23 21 22 24 24 24 23 23 23 22 23 23
33 33 33 33 32 32 31 32 32 33 31 31 31 31 29 28 28 29 29 30 30 30 28 28 28 27 28 27 26 26 26 26 24 24 23 23 24 23 23 22 21 21 21 21
33 33 32 32 30 30 31 32 31 30 31 31 32 32 31 32 31 31 32 31 31 32 31 27 27 29 28 27 27 27 26 26 26 25 23 23 22 22 21 21 21 20 20 21
31 30 30 30 30 30 29 29 28 28 28 28 29 30 31 31 31 31 30 31 30 29 28 27 26 26 27 27 26 25 24 23 22 22 22 23 22 21 21 20 20 19 19 19
31 31 30 29 28 28 29 29 28 28 28 28 27 28 29 29 28 28 28 26 24 24 24 24 24 25 25 24 23 22 22 22 22 22 22 21 21 20 20 19 18 18 19 18